[[{"header":{"parameterUnit":"m.s-1","parameterCategory":1,"la1":30.6,"la2":29.2853,"lo1":-89.7004,"lo2":-87.6739,"dy":0.0162,"dx":0.0183,"nx":112,"ny":82,"refTime":"2026-03-03T00:00:00:Z","depth":0,"parameterNumber":2,"parameterNumberName":"U-component_of_WINDS"},"data":[0.0,0.0,0.0,0.0,0.0,0.0,0.0,0.0,0.0,0.0,0.0,0.0,0.0,0.0,0.0,0.0,0.0,0.0,0.0,0.0,0.0,0.0,0.0,0.0,0.0,0.0,0.0,0.0,0.0,0.0,0.0,0.0,0.0,0.0,0.0,0.0,0.0,0.0,0.0,0.0,0.0,0.0,0.0,0.0,0.0,0.0,0.0,0.0,0.0,0.0,0.0,0.0,0.0,0.0,0.0,0.0,0.0,0.0,0.0,0.0,0.0,0.0,0.0,0.0,0.0,0.0,0.0,0.0,0.0,0.0,0.0,0.0,0.0,0.0,0.0,0.0,0.0,0.0,0.0,0.0,0.0,0.0,0.0,0.0,0.0,0.0,0.0,0.0,0.0,0.0,-1.2667,-1.4134,-1.4966,-1.5264,-1.4912,-1.4756,-1.4043,-1.2496,0.0,0.0,0.0,0.0,0.0,0.0,0.0,0.0,0.0,0.0,0.0,0.0,0.0,0.0,0.0,0.0,0.0,0.0,0.0,0.0,0.0,0.0,0.0,0.0,0.0,0.0,0.0,0.0,0.0,0.0,0.0,0.0,0.0,0.0,0.0,0.0,0.0,0.0,0.0,0.0,0.0,0.0,0.0,0.0,0.0,0.0,0.0,0.0,0.0,0.0,0.0,0.0,0.0,0.0,0.0,0.0,0.0,0.0,0.0,0.0,0.0,0.0,0.0,0.0,0.0,0.0,0.0,0.0,0.0,0.0,0.0,0.0,0.0,0.0,0.0,0.0,0.0,0.0,0.0,0.0,0.0,0.0,0.0,0.0,0.0,0.0,0.0,0.0,0.0,0.0,0.0,0.0,0.0,0.0,0.0,0.0,0.0,0.0,0.0,0.0,0.0,0.0,0.0,0.0,-1.2774,-1.4528,-1.5107,-1.5381,-1.5322,-1.4621,-1.3948,-1.335,0.0,0.0,0.0,0.0,0.0,0.0,0.0,0.0,0.0,0.0,0.0,0.0,0.0,0.0,0.0,0.0,0.0,0.0,0.0,0.0,0.0,0.0,0.0,0.0,0.0,0.0,0.0,0.0,0.0,0.0,0.0,0.0,0.0,0.0,0.0,0.0,0.0,0.0,0.0,0.0,0.0,0.0,0.0,0.0,0.0,0.0,0.0,0.0,0.0,0.0,0.0,0.0,0.0,0.0,0.0,0.0,0.0,0.0,0.0,0.0,0.0,0.0,0.0,0.0,0.0,0.0,0.0,0.0,0.0,0.0,0.0,0.0,0.0,0.0,0.0,0.0,0.0,0.0,0.0,0.0,0.0,0.0,0.0,0.0,0.0,0.0,0.0,0.0,0.0,0.0,0.0,0.0,0.0,0.0,0.0,0.0,0.0,0.0,0.0,0.0,0.0,0.0,0.0,-1.2509,-1.3348,-1.4657,-1.5156,-1.541,-1.541,-1.4844,-1.4111,-1.3223,-1.1956,0.0,0.0,0.0,0.0,0.0,0.0,0.0,0.0,0.0,0.0,0.0,0.0,0.0,0.0,0.0,0.0,0.0,0.0,0.0,0.0,0.0,0.0,0.0,0.0,0.0,0.0,0.0,0.0,0.0,0.0,0.0,0.0,0.0,0.0,0.0,0.0,0.0,0.0,0.0,0.0,0.0,0.0,0.0,0.0,0.0,0.0,0.0,0.0,0.0,0.0,0.0,0.0,0.0,0.0,0.0,0.0,0.0,0.0,0.0,0.0,0.0,0.0,0.0,0.0,0.0,0.0,0.0,0.0,0.0,0.0,0.0,0.0,0.0,0.0,0.0,0.0,0.0,0.0,0.0,0.0,0.0,0.0,0.0,0.0,0.0,0.0,0.0,0.0,0.0,0.0,0.0,0.0,0.0,0.0,0.0,0.0,0.0,0.0,0.0,0.0,0.0,0.0,-1.334,-1.3984,-1.4844,-1.5215,-1.541,-1.541,-1.4844,-1.4023,-1.2974,-1.1445,0.0,0.0,0.0,0.0,0.0,0.0,0.0,0.0,0.0,0.0,0.0,0.0,0.0,0.0,0.0,0.0,0.0,0.0,0.0,0.0,0.0,0.0,0.0,0.0,0.0,0.0,0.0,0.0,0.0,0.0,0.0,0.0,0.0,0.0,0.0,0.0,0.0,0.0,0.0,0.0,0.0,0.0,0.0,0.0,0.0,0.0,0.0,0.0,0.0,0.0,0.0,0.0,0.0,0.0,0.0,0.0,0.0,0.0,0.0,0.0,0.0,0.0,0.0,0.0,0.0,0.0,0.0,0.0,0.0,0.0,0.0,0.0,0.0,0.0,0.0,0.0,0.0,0.0,0.0,0.0,0.0,0.0,0.0,0.0,0.0,0.0,0.0,0.0,0.0,0.0,0.0,0.0,0.0,0.0,0.0,0.0,0.0,0.0,0.0,0.0,0.0,0.0,-1.3584,-1.4387,-1.5245,-1.5391,-1.541,-1.541,-1.4297,-1.3389,-1.2935,-1.0868,0.0,0.0,0.0,0.0,0.0,0.0,0.0,0.0,0.0,0.0,0.0,0.0,0.0,0.0,0.0,0.0,0.0,0.0,0.0,0.0,0.0,0.0,0.0,0.0,0.0,0.0,0.0,0.0,0.0,0.0,0.0,0.0,0.0,0.0,0.0,0.0,0.0,0.0,0.0,0.0,0.0,0.0,0.0,0.0,0.0,0.0,0.0,0.0,0.0,0.0,0.0,0.0,0.0,0.0,0.0,0.0,0.0,0.0,0.0,0.0,0.0,0.0,0.0,0.0,0.0,0.0,0.0,0.0,0.0,0.0,0.0,0.0,0.0,0.0,0.0,0.0,0.0,0.0,0.0,0.0,0.0,0.0,0.0,0.0,0.0,0.0,0.0,0.0,0.0,0.0,0.0,0.0,0.0,0.0,0.0,0.0,0.0,0.0,0.0,0.0,0.0,0.0,-1.3389,-1.4143,0.0,-1.541,-1.541,-1.541,-1.4736,-1.3923,-1.2964,0.0,0.0,0.0,0.0,0.0,0.0,0.0,0.0,0.0,0.0,0.0,0.0,0.0,0.0,0.0,0.0,0.0,0.0,0.0,0.0,0.0,0.0,0.0,0.0,0.0,0.0,0.0,0.0,0.0,0.0,0.0,0.0,0.0,0.0,0.0,0.0,0.0,0.0,0.0,0.0,0.0,0.0,0.0,0.0,0.0,0.0,0.0,0.0,0.0,0.0,0.0,0.0,0.0,0.0,0.0,0.0,0.0,0.0,0.0,0.0,0.0,0.0,0.0,0.0,0.0,0.0,0.0,0.0,0.0,0.0,0.0,0.0,0.0,0.0,0.0,0.0,0.0,0.0,0.0,0.0,0.0,0.0,0.0,0.0,0.0,0.0,0.0,0.0,0.0,0.0,0.0,0.0,0.0,0.0,0.0,0.0,0.0,0.0,0.0,0.0,0.0,0.0,-1.2661,-1.3486,-1.4297,0.0,-1.541,-1.541,-1.541,-1.4775,-1.3955,-1.2964,0.0,0.0,0.0,0.0,0.0,0.0,0.0,0.0,0.0,0.0,0.0,0.0,0.0,0.0,0.0,0.0,0.0,0.0,0.0,0.0,0.0,0.0,0.0,0.0,0.0,0.0,0.0,0.0,0.0,0.0,0.0,0.0,0.0,0.0,0.0,0.0,0.0,0.0,0.0,0.0,0.0,0.0,0.0,0.0,0.0,0.0,0.0,0.0,0.0,0.0,0.0,0.0,0.0,0.0,0.0,0.0,0.0,0.0,0.0,0.0,0.0,0.0,0.0,0.0,0.0,0.0,0.0,0.0,0.0,0.0,0.0,0.0,0.0,0.0,0.0,0.0,0.0,0.0,0.0,0.0,0.0,0.0,0.0,0.0,0.0,0.0,0.0,0.0,0.0,0.0,0.0,0.0,0.0,0.0,0.0,0.0,0.0,0.0,0.0,0.0,0.0,0.0,-1.2739,-1.4021,-1.4941,-1.5371,-1.541,-1.541,-1.541,-1.4248,-1.333,0.0,0.0,0.0,0.0,0.0,0.0,0.0,0.0,0.0,0.0,0.0,0.0,0.0,0.0,0.0,0.0,0.0,0.0,0.0,0.0,0.0,0.0,0.0,0.0,0.0,0.0,0.0,0.0,0.0,0.0,0.0,0.0,0.0,0.0,0.0,0.0,0.0,0.0,0.0,0.0,0.0,0.0,0.0,0.0,0.0,0.0,0.0,0.0,0.0,0.0,0.0,0.0,0.0,0.0,0.0,0.0,0.0,0.0,0.0,0.0,0.0,0.0,0.0,0.0,0.0,0.0,0.0,0.0,0.0,0.0,0.0,0.0,0.0,0.0,0.0,0.0,0.0,0.0,0.0,0.0,0.0,0.0,0.0,0.0,0.0,0.0,0.0,0.0,0.0,0.0,0.0,0.0,0.0,0.0,0.0,0.0,0.0,0.0,0.0,0.0,0.0,0.0,0.0,-1.2739,-1.4021,-1.4941,-1.5371,-1.541,-1.541,-1.541,-1.4484,-1.3617,-1.2954,0.0,0.0,0.0,0.0,0.0,0.0,0.0,0.0,0.0,0.0,0.0,0.0,0.0,0.0,0.0,0.0,0.0,0.0,0.0,0.0,0.0,0.0,0.0,0.0,0.0,0.0,0.0,0.0,0.0,0.0,0.0,0.0,0.0,0.0,0.0,0.0,0.0,0.0,0.0,0.0,0.0,0.0,0.0,0.0,0.0,0.0,0.0,0.0,0.0,0.0,0.0,0.0,0.0,0.0,0.0,0.0,0.0,0.0,0.0,0.0,0.0,0.0,0.0,0.0,0.0,0.0,0.0,0.0,0.0,0.0,0.0,0.0,0.0,0.0,0.0,0.0,0.0,0.0,0.0,0.0,0.0,0.0,0.0,0.0,0.0,0.0,0.0,0.0,0.0,0.0,0.0,0.0,0.0,0.0,0.0,0.0,0.0,0.0,0.0,0.0,0.0,0.0,-1.2758,-1.4324,-1.542,-1.5644,-1.5674,-1.5674,-1.5674,-1.4699,-1.3753,-1.2954,0.0,0.0,0.0,0.0,0.0,0.0,0.0,0.0,0.0,0.0,0.0,0.0,0.0,0.0,0.0,0.0,0.0,0.0,0.0,0.0,0.0,0.0,0.0,0.0,0.0,0.0,0.0,0.0,0.0,0.0,0.0,0.0,0.0,0.0,0.0,0.0,0.0,0.0,0.0,0.0,0.0,0.0,0.0,0.0,0.0,0.0,0.0,0.0,0.0,0.0,0.0,0.0,0.0,0.0,0.0,0.0,0.0,0.0,0.0,0.0,0.0,0.0,0.0,0.0,0.0,0.0,0.0,0.0,0.0,0.0,0.0,0.0,0.0,0.0,0.0,0.0,0.0,0.0,0.0,0.0,0.0,0.0,0.0,0.0,0.0,0.0,0.0,0.0,0.0,0.0,0.0,0.0,0.0,0.0,0.0,0.0,0.0,0.0,0.0,0.0,0.0,0.0,-1.2895,-1.4823,-1.6105,-1.6153,-1.6153,-1.6134,-1.6095,-1.4951,-1.3851,-1.3023,0.0,0.0,0.0,0.0,0.0,0.0,0.0,0.0,0.0,0.0,0.0,0.0,0.0,0.0,0.0,0.0,0.0,0.0,0.0,0.0,0.0,0.0,0.0,0.0,0.0,0.0,0.0,0.0,0.0,0.0,0.0,0.0,0.0,0.0,0.0,0.0,0.0,0.0,0.0,0.0,0.0,0.0,0.0,0.0,0.0,0.0,0.0,0.0,0.0,0.0,0.0,0.0,0.0,0.0,0.0,0.0,0.0,0.0,0.0,0.0,-1.6721,0.0,0.0,0.0,0.0,0.0,0.0,0.0,0.0,0.0,0.0,0.0,0.0,0.0,0.0,0.0,0.0,0.0,0.0,0.0,0.0,0.0,0.0,0.0,0.0,0.0,0.0,0.0,0.0,0.0,0.0,0.0,0.0,0.0,0.0,0.0,0.0,0.0,0.0,0.0,0.0,0.0,-1.3636,-1.5156,-1.6232,-1.6553,-1.656,-1.6445,-1.6124,-1.5498,-1.4629,-1.3447,-1.2083,0.0,0.0,0.0,0.0,0.0,0.0,0.0,0.0,0.0,0.0,0.0,0.0,0.0,0.0,0.0,0.0,0.0,0.0,0.0,0.0,0.0,0.0,0.0,0.0,0.0,0.0,0.0,0.0,0.0,0.0,0.0,0.0,0.0,0.0,0.0,0.0,0.0,0.0,0.0,0.0,0.0,0.0,0.0,0.0,0.0,0.0,0.0,0.0,0.0,0.0,0.0,0.0,0.0,0.0,0.0,0.0,0.0,0.0,0.0,0.0,-1.7021,0.0,0.0,0.0,0.0,0.0,0.0,0.0,0.0,0.0,0.0,0.0,0.0,0.0,0.0,0.0,0.0,0.0,0.0,0.0,0.0,0.0,0.0,0.0,0.0,0.0,0.0,0.0,0.0,0.0,0.0,0.0,0.0,0.0,0.0,0.0,0.0,0.0,0.0,0.0,0.0,-1.3909,-1.5449,-1.6553,-1.7002,-1.7051,-1.6953,-1.675,-1.5908,-1.5049,-1.418,-1.2715,0.0,0.0,0.0,0.0,0.0,0.0,0.0,0.0,0.0,0.0,0.0,0.0,0.0,0.0,0.0,0.0,0.0,0.0,0.0,0.0,0.0,0.0,0.0,0.0,0.0,0.0,0.0,0.0,0.0,0.0,0.0,0.0,0.0,0.0,0.0,0.0,0.0,0.0,0.0,0.0,0.0,0.0,0.0,0.0,0.0,0.0,0.0,0.0,0.0,0.0,0.0,0.0,0.0,-2.0109,-2.0252,-2.072,-2.0956,-2.1094,-2.1075,-1.9268,-1.8998,-1.9661,-1.8064,0.0,0.0,0.0,0.0,0.0,0.0,0.0,0.0,0.0,0.0,0.0,0.0,0.0,0.0,0.0,0.0,0.0,0.0,0.0,0.0,0.0,0.0,0.0,0.0,-1.668,-1.6219,-1.3656,0.0,0.0,0.0,0.0,0.0,0.0,0.0,0.0,0.0,0.0,0.0,-1.4163,-1.579,-1.7012,-1.7451,-1.749,-1.7461,-1.7425,-1.6387,-1.5508,-1.4932,-1.3496,-1.2067,0.0,0.0,0.0,0.0,0.0,0.0,0.0,0.0,0.0,0.0,0.0,0.0,0.0,0.0,0.0,0.0,0.0,0.0,0.0,0.0,0.0,0.0,0.0,0.0,0.0,0.0,0.0,0.0,0.0,0.0,0.0,0.0,-1.6821,-1.7348,0.0,0.0,0.0,0.0,0.0,0.0,0.0,0.0,0.0,0.0,0.0,0.0,0.0,-2.0444,-2.0854,-2.1868,-2.2453,-2.2565,-2.2635,-2.2742,-2.2784,-2.2797,-2.3008,-2.335,-2.3066,0.0,-2.0387,-1.9403,0.0,0.0,0.0,0.0,0.0,0.0,0.0,0.0,0.0,0.0,0.0,0.0,0.0,0.0,0.0,0.0,0.0,0.0,0.0,0.0,0.0,0.0,-1.7617,-1.7725,-1.7793,-1.7637,0.0,-1.5312,-1.3724,-1.2758,-1.2034,0.0,0.0,0.0,0.0,0.0,0.0,0.0,-1.505,-1.6445,-1.7461,-1.7881,-1.793,-1.7783,-1.7445,-1.7259,-1.6611,-1.541,-1.4775,-1.3903,-1.2612,-1.1819,0.0,0.0,0.0,0.0,0.0,0.0,0.0,0.0,0.0,0.0,0.0,0.0,0.0,0.0,0.0,0.0,0.0,0.0,0.0,0.0,0.0,0.0,0.0,0.0,0.0,0.0,0.0,0.0,0.0,-1.6931,-1.7624,-1.7347,-1.6922,-1.6369,0.0,0.0,0.0,0.0,0.0,0.0,0.0,0.0,0.0,-1.9583,-2.0737,-2.1563,-2.1963,-2.2975,-2.3567,-2.3773,-2.4106,-2.4411,-2.4609,-2.4553,-2.466,-2.4883,-2.4883,-2.4209,-2.3012,-2.1437,-2.0127,-1.9098,0.0,0.0,0.0,0.0,-1.7715,-1.7676,-1.8822,-1.9065,-1.8809,-1.832,0.0,0.0,0.0,0.0,0.0,0.0,0.0,0.0,0.0,0.0,-1.9199,-1.967,-1.9787,-1.9697,-1.9304,-1.8047,-1.6484,0.0,-1.4216,-1.3619,-1.2034,0.0,0.0,0.0,0.0,-1.4697,-1.5956,-1.6875,-1.7539,-1.7969,-1.8008,-1.7939,-1.7754,-1.7519,-1.7139,-1.6553,-1.5654,-1.4785,-1.4011,-1.314,-1.1924,0.0,0.0,0.0,0.0,0.0,0.0,0.0,0.0,0.0,0.0,0.0,0.0,0.0,0.0,0.0,0.0,0.0,0.0,0.0,0.0,0.0,0.0,0.0,0.0,0.0,0.0,0.0,0.0,-1.767,-1.8152,-1.7302,-1.7423,-1.702,0.0,0.0,0.0,0.0,0.0,0.0,-1.8531,-1.9434,-2.0244,-2.0889,-2.1963,-2.2734,-2.3164,-2.3916,-2.4443,-2.4766,-2.5078,-2.541,-2.5693,-2.5693,-2.5693,-2.5693,-2.5693,-2.5547,-2.5088,-2.3164,-2.1924,-2.1103,-1.9922,-1.9173,-1.8926,-1.9678,-1.9678,-1.9465,-2.0878,-2.1182,-2.086,-2.0283,-1.9893,-1.9355,-1.7935,0.0,0.0,0.0,0.0,-1.8301,-1.9482,-2.0019,-2.0449,-2.1221,-2.1356,-2.1309,-2.1016,-2.0312,-1.9053,0.0,-1.625,-1.585,-1.403,0.0,0.0,0.0,0.0,-1.5801,-1.6777,-1.7471,-1.7949,-1.8144,-1.813,-1.8091,-1.8018,-1.7725,-1.75,-1.7425,-1.6465,-1.5625,-1.4971,-1.4336,-1.3174,-1.1445,0.0,0.0,0.0,0.0,0.0,0.0,0.0,0.0,0.0,0.0,0.0,0.0,0.0,0.0,0.0,0.0,0.0,0.0,0.0,0.0,0.0,0.0,0.0,0.0,0.0,0.0,0.0,0.0,0.0,-1.7819,-1.8214,0.0,0.0,0.0,0.0,-1.8443,-1.8932,-1.992,-2.1572,-2.1719,-2.2314,-2.3555,-2.4043,-2.4502,-2.4979,-2.54,-2.5606,-2.5615,-2.5645,-2.5664,-2.5693,-2.5693,-2.5693,-2.5693,-2.5693,-2.5674,-2.5557,-2.4248,-2.3428,-2.2877,-2.206,-2.1455,-2.1083,-2.1592,-2.1484,-2.1142,-2.168,-2.1836,-2.1875,-2.2236,-2.1514,-2.0449,-1.9902,-1.9153,0.0,0.0,-1.9482,-1.999,-2.0859,-2.1112,-2.1249,-2.1748,-2.1846,-2.1846,-2.1826,-2.1465,-2.045,0.0,-1.7578,-1.7044,-1.6095,0.0,-1.5821,-1.5381,-1.6426,-1.7275,-1.7376,-1.8428,-1.9043,-1.8617,-1.8568,-1.8412,-1.8047,-1.7988,-1.7812,-1.7402,-1.7357,-1.6709,-1.543,-1.5342,-1.4512,-1.2837,-1.1976,0.0,0.0,0.0,0.0,0.0,0.0,0.0,0.0,0.0,0.0,0.0,0.0,0.0,0.0,0.0,0.0,0.0,0.0,0.0,0.0,0.0,0.0,0.0,0.0,0.0,0.0,0.0,0.0,-2.0017,-2.0436,0.0,-1.887,-1.9434,-2.0107,-2.0684,-2.1387,-2.2168,-2.3066,-2.3633,-2.4186,-2.46,-2.5039,-2.5342,-2.5498,-2.5937,-2.6162,-2.6162,-2.6426,-2.6562,-2.6562,-2.6562,-2.6562,-2.6543,-2.6269,-2.6162,-2.6074,-2.5039,-2.4521,-2.4316,-2.374,-2.3418,-2.3301,-2.3457,-2.3418,-2.3257,-2.3457,-2.334,-2.3047,-2.2646,-2.2012,-2.1427,-2.123,-2.0967,-2.082,-2.124,-2.1465,-2.1719,-2.2262,-2.2418,-2.2457,-2.2613,-2.2652,-2.2617,-2.2344,-2.2168,-2.1748,-2.0703,-1.9697,-1.8652,-1.751,-1.7539,-1.7578,-1.7148,-1.7715,-1.8291,-1.8574,-1.9004,-1.9228,-1.9072,-1.9053,-1.8877,-1.8412,-1.8383,-1.8198,-1.7812,-1.7275,-1.6758,-1.6248,-1.5683,-1.4746,-1.3311,-1.2978,-1.1848,0.0,0.0,0.0,0.0,0.0,0.0,0.0,0.0,0.0,0.0,0.0,0.0,0.0,0.0,0.0,0.0,0.0,0.0,0.0,0.0,0.0,0.0,0.0,0.0,0.0,0.0,-2.128,-2.1203,-2.1859,-2.1855,-2.0693,-2.1504,-2.2275,-2.2705,-2.3443,-2.4039,-2.4424,-2.498,-2.5361,-2.5508,-2.5801,-2.6025,-2.6122,-2.6455,-2.6602,-2.6602,-2.6885,-2.7012,-2.7012,-2.7012,-2.7012,-2.7002,-2.6719,-2.6602,-2.6543,-2.581,-2.5566,-2.5459,-2.4863,-2.4639,-2.4639,-2.4639,-2.4541,-2.4414,-2.4414,-2.4238,-2.3887,-2.3174,-2.2754,-2.25,-2.2353,-2.2305,-2.2363,-2.2646,-2.2682,-2.274,-2.3023,-2.3091,-2.3091,-2.3091,-2.3091,-2.3023,-2.274,-2.2682,-2.2598,-2.2178,-2.1162,-2.0039,-1.9043,-1.8984,-1.889,-1.8506,-1.8763,-1.9134,-1.9463,-1.9629,-1.9668,-1.9512,-1.9502,-1.9268,-1.8646,-1.8598,-1.8422,-1.8037,-1.7344,-1.6853,-1.6707,-1.5849,-1.4855,-1.3714,-1.3276,-1.2295,-1.0723,0.0,0.0,0.0,0.0,0.0,0.0,0.0,0.0,0.0,0.0,0.0,0.0,0.0,0.0,0.0,0.0,0.0,0.0,0.0,0.0,0.0,0.0,0.0,-2.0894,-2.0965,-2.1078,-2.1251,-2.2399,-2.2847,-2.206,-2.3115,-2.4014,-2.4424,-2.4844,-2.5283,-2.5664,-2.5703,-2.5947,-2.6377,-2.6396,-2.6602,-2.7012,-2.7021,-2.7031,-2.7031,-2.7051,-2.7051,-2.7051,-2.7051,-2.7051,-2.7051,-2.7041,-2.7031,-2.7002,-2.6582,-2.6406,-2.6318,-2.5487,-2.5135,-2.5135,-2.5135,-2.4824,-2.4453,-2.4443,-2.4434,-2.4365,-2.3945,-2.3809,-2.373,-2.3266,-2.312,-2.311,-2.311,-2.311,-2.3091,-2.3091,-2.3091,-2.3091,-2.3091,-2.3091,-2.3091,-2.3091,-2.3091,-2.2974,-2.2607,-2.1814,-2.1093,-2.0723,-2.0254,-1.9834,-1.9414,-1.9697,0.0,-1.9932,-2.0303,-2.0449,-1.998,-1.9932,-1.9553,-1.8715,-1.8627,-1.8432,-1.8037,-1.7607,-1.7178,-1.6716,-1.5849,-1.4991,-1.4143,-1.2886,-1.2051,-1.1645,0.0,0.0,0.0,0.0,0.0,0.0,0.0,0.0,0.0,0.0,0.0,0.0,0.0,0.0,0.0,0.0,0.0,0.0,0.0,0.0,0.0,-1.9507,-2.0027,-2.0777,-2.2635,-2.3724,-2.3144,-2.4192,-2.4805,-2.4294,-2.4805,-2.5206,-2.5313,-2.544,-2.5557,-2.5684,-2.6035,-2.6269,-2.6387,-2.668,-2.6894,-2.7012,-2.7334,-2.749,-2.749,-2.7793,-2.7939,-2.7939,-2.7939,-2.7939,-2.793,-2.7617,-2.749,-2.7451,-2.7021,-2.6846,-2.6758,-2.5889,-2.5557,-2.5557,-2.5557,-2.543,-2.5274,-2.5,-2.4893,-2.4814,-2.4385,-2.4248,-2.4219,-2.4102,-2.3848,-2.3613,-2.3613,-2.3379,-2.3091,-2.3091,-2.3091,-2.3091,-2.3091,-2.3091,-2.3091,-2.3091,-2.3091,-2.3062,-2.2945,-2.2487,-2.2021,-2.1602,-2.1426,-2.1191,-2.0771,-2.0761,0.0,-2.0468,-2.0527,-2.0556,-2.0439,-2.0429,-2.0166,-1.9572,-1.9287,-1.8789,-1.8057,-1.7291,-1.6824,-1.6707,-1.5849,-1.5156,-1.4619,-1.3652,-1.2939,0.0,0.0,0.0,0.0,0.0,0.0,0.0,0.0,0.0,0.0,0.0,0.0,0.0,0.0,0.0,0.0,0.0,0.0,0.0,0.0,0.0,0.0,-2.0591,-2.1361,-2.178,-2.3269,-2.4395,-2.4558,-2.5107,-2.543,-2.5361,-2.5538,-2.5693,-2.5693,-2.5859,-2.6006,-2.6006,-2.6416,-2.6738,-2.6914,-2.7158,-2.7373,-2.7549,-2.7803,-2.793,-2.793,-2.8174,-2.8291,-2.8291,-2.8291,-2.8291,-2.8281,-2.8037,-2.793,-2.7891,-2.7461,-2.7285,0.0,0.0,0.0,0.0,0.0,-2.5693,-2.5654,-2.5439,-2.5352,-2.5273,-2.4834,-2.4687,-2.4658,-2.4473,-2.4248,-2.4053,-2.4053,-2.3867,-2.3588,-2.3457,-2.3408,-2.3315,-2.314,-2.3091,-2.3091,-2.3091,-2.3091,-2.3091,-2.3091,-2.2896,0.0,-2.2451,-2.2119,-2.1797,-2.1543,-2.1317,-2.1103,-2.0879,-2.0684,-2.0605,-2.0605,-2.0605,-2.0429,-1.9951,-1.9531,0.0,0.0,0.0,-1.6758,-1.6171,-1.5654,0.0,0.0,0.0,0.0,0.0,0.0,0.0,0.0,-1.2524,-1.2426,0.0,0.0,0.0,0.0,0.0,0.0,0.0,0.0,0.0,0.0,0.0,0.0,0.0,0.0,0.0,0.0,-2.1982,-2.3711,-2.3531,-2.3452,-2.4036,-2.5661,-2.5447,-2.536,-2.5946,-2.5859,-2.5781,-2.583,-2.6379,-2.6655,-2.6465,0.0,0.0,0.0,0.0,-2.8068,-2.8291,-2.8451,-2.8451,-2.8291,-2.8291,-2.8291,-2.8291,-2.8291,-2.8291,-2.8291,-2.8291,-2.8291,-2.8262,-2.7891,-2.7767,-2.764,-2.6777,-2.6455,-2.6406,-2.6025,-2.583,-2.583,-2.5771,0.0,0.0,-2.5283,-2.5194,-2.5068,-2.4687,-2.4531,-2.4492,-2.4492,-2.4453,-2.4336,-2.3955,-2.3857,-2.375,-2.3276,-2.3169,-2.3149,-2.311,-2.3091,-2.3091,-2.3091,-2.3091,-2.3091,-2.3091,-2.2519,-2.2012,-2.1963,-2.1631,-2.1307,-2.121,-2.0889,-2.0664,-2.0605,0.0,0.0,-2.0019,-1.96,-1.917,-1.8705,-1.7969,-1.6973,-1.5752,-1.5752,-1.5752,-1.5703,-1.5703,-1.6063,-1.6843,-1.6843,-1.6872,-1.6853,-1.4453,-1.3945,0.0,0.0,0.0,0.0,0.0,0.0,0.0,0.0,0.0,0.0,0.0,0.0,0.0,0.0,0.0,-2.1956,-2.2959,-2.4131,-2.5098,-2.4932,-2.5235,-2.6527,-2.6042,-2.615,-2.7562,-2.6823,-2.6406,-2.6738,-2.7803,-2.8054,-2.6945,-2.833,-2.8717,-2.7708,-2.9051,-2.9326,-2.8291,-2.9355,-2.9355,-2.8291,0.0,0.0,-2.8291,-2.8291,-2.8291,-2.8291,-2.8291,-2.8291,-2.8281,-2.8203,-2.7969,-2.7669,-2.71,-2.6894,-2.6885,-2.6797,-2.6768,-2.6719,-2.6377,-2.626,-2.6191,-2.5752,-2.5557,-2.5596,-2.546,-2.5225,0.0,-2.4941,-2.4687,-2.4394,-2.4316,-2.4297,-2.4189,-2.376,-2.3662,-2.3564,-2.3169,-2.3091,-2.3091,-2.3091,-2.3091,-2.3091,-2.3091,-2.2955,-2.2783,-2.2441,-2.2324,-2.197,-2.1278,-2.1112,-2.0967,-2.0644,-2.0605,-2.0566,-2.0488,-2.0039,-1.9609,-1.9189,-1.8682,-1.8091,-1.7529,-1.7798,-1.7818,-1.751,-1.751,-1.7598,-1.7764,-1.7764,-1.7906,-1.8198,-1.6668,-1.6309,0.0,0.0,0.0,0.0,0.0,0.0,0.0,0.0,0.0,0.0,0.0,-2.1681,-2.1654,0.0,-2.4701,-2.4977,-2.5396,-2.6085,-2.7133,-2.7268,-2.7268,-2.7243,-2.6536,-2.6615,-2.8046,-2.7904,-2.7792,-2.7965,-2.8823,-2.935,-2.935,-2.9781,-2.9982,-2.9982,-3.085,-3.0968,-3.0317,-3.0968,-3.0968,-3.0317,-3.0317,-3.0317,-3.0266,-2.9618,-2.9303,-2.926,-2.8601,-2.8291,-2.8291,-2.8291,-2.8164,-2.7959,-2.7734,-2.7393,-2.7012,-2.7012,-2.7012,-2.6982,-2.6777,-2.6699,-2.667,-2.6445,-2.623,-2.6064,-2.6064,-2.5752,-2.54,-2.54,-2.5244,-2.4982,-2.4805,-2.4746,-2.4629,-2.4209,-2.3945,-2.373,-2.3516,-2.3247,-2.3091,-2.3091,-2.3091,-2.3091,-2.3091,-2.3091,-2.3023,-2.2818,-2.2646,-2.2285,-2.1641,-2.1327,-2.1064,-2.0654,-2.0605,-2.0605,-2.0605,-2.04,-1.9971,-1.9326,-1.9277,-1.8948,-1.8315,-1.849,-1.851,-1.8295,-1.8286,-1.85,-1.8965,-1.8965,-1.926,-1.9884,-1.9251,-1.8831,0.0,0.0,0.0,0.0,0.0,0.0,0.0,0.0,-1.9171,-2.1161,-2.2751,-2.4035,-2.4829,-2.6058,-2.704,-2.7316,-2.7681,-2.819,-2.8847,-2.9217,-2.9131,-2.8412,-2.7614,-2.7554,-2.8629,-2.92,-2.9558,-2.9643,-3.0256,-3.0974,-3.1759,-3.1374,-3.148,-3.228,-3.2593,-3.2593,-3.228,-3.2593,-3.2593,-3.228,-3.228,-3.228,-3.228,-3.1173,-3.0669,-3.0618,-2.925,-2.8698,-2.8644,-2.8388,-2.8291,-2.8291,-2.8291,-2.7871,-2.7266,-2.7266,-2.7266,-2.7256,-2.7168,-2.7139,-2.7129,-2.7041,-2.6787,-2.6514,-2.6514,-2.6211,-2.5859,-2.5859,-2.5752,-2.5606,-2.5293,-2.5195,-2.5088,-2.4648,-2.4287,-2.4014,-2.3926,-2.3574,-2.3218,-2.3218,-2.3149,-2.3091,-2.3091,-2.3091,-2.3091,-2.3091,-2.2783,-2.2353,-2.1934,-2.1504,-2.1064,-2.0654,-2.0605,-2.0605,-2.0605,-2.0683,-2.0361,-1.958,-2.0019,-1.9951,-1.9134,-1.9182,-1.9231,-1.9231,-1.9231,-1.9609,-2.0293,-2.0293,-2.0664,-2.1317,-2.1317,-2.0937,-2.1312,-1.9569,-1.8559,-2.1186,-1.9777,-1.885,0.0,0.0,-2.2904,-2.3745,-2.6286,-2.7683,-2.54,-2.7677,-2.9268,-2.7299,-2.8196,-2.9247,-2.9329,-2.9373,-2.9772,-3.0676,-3.0203,-2.9983,-3.0522,-3.1098,-3.1566,-3.189,-3.3139,-3.3383,-3.2303,-3.333,-3.3464,-3.2331,-3.3514,-3.3563,-3.2331,-3.3563,-3.3514,-3.228,-3.228,-3.228,-3.228,-3.2129,-3.209,-3.1977,-3.0669,-3.0068,-2.9964,-2.8804,-2.8291,-2.8291,-2.8291,-2.8232,-2.8144,-2.8144,-2.8144,-2.8096,-2.7777,-2.7598,-2.7529,-2.7139,-2.6982,-2.6943,-2.6943,-2.665,-2.6318,-2.6318,-2.6035,-2.5674,-2.5625,-2.5615,-2.5547,-2.5107,-2.5008,-2.4861,-2.4434,-2.4014,-2.3721,-2.3721,-2.3408,-2.3091,-2.3091,-2.3091,-2.3091,-2.3091,-2.2783,-2.2353,-2.1934,-2.1504,-2.1064,-2.0654,-2.0605,-2.0605,-2.0605,-2.0928,-2.0947,-2.0488,-2.1201,-2.1445,-2.0927,-2.1318,-2.1523,-2.1523,-2.1523,-2.1572,-2.167,-2.167,-2.1719,-2.1816,-2.1816,-2.1758,-2.4116,-2.2862,-2.1946,-2.2566,-2.2992,-2.3513,-2.4572,-2.504,-2.5584,-2.684,-2.8398,-2.9493,-2.923,-3.0107,-3.0814,0.0,-3.0446,-3.0732,-3.1468,-3.1557,-3.1468,-3.1223,-3.1878,-3.2267,-3.1972,-3.2447,-3.2957,-3.3467,-3.408,-3.4471,-3.4691,-3.452,-3.4471,-3.4691,-3.5259,-3.5259,-3.4691,-3.5259,-3.5259,-3.4691,-3.4691,-3.4691,-3.4642,-3.3859,-3.3105,-3.228,-3.1724,-3.148,-3.1429,-3.0876,-3.0618,-3.0618,-3.0618,-3.0618,-3.0421,-2.891,-2.8291,-2.8271,-2.8096,-2.8027,-2.7998,-2.7822,-2.7598,-2.7393,-2.7393,-2.71,-2.6758,-2.6758,-2.6621,-2.6426,-2.6182,-2.6113,-2.6006,-2.5557,-2.5254,-2.5067,-2.4834,-2.4453,-2.415,-2.415,-2.3809,-2.3516,-2.3516,-2.3257,-2.3091,-2.3091,-2.2945,-2.2682,-2.2305,-2.209,-2.1719,-2.1025,-2.0723,-2.0605,-2.0605,-2.0977,-2.1045,-2.0635,-2.1437,-2.1689,-2.121,-2.165,-2.1885,-2.1885,-2.1885,-2.2012,-2.2246,-2.2246,-2.2373,-2.2617,-2.2617,-2.2617,-2.546,-2.492,-2.4591,-2.4278,-2.5683,-2.6974,-2.629,-2.6939,-2.8096,-2.9397,-3.0278,-3.1016,-3.179,-3.1827,-3.1909,-3.2469,-3.2108,-3.2052,-3.2982,-3.3124,-3.2754,-3.1821,-3.2859,-3.3506,-3.3049,-3.3534,-3.4076,-3.4667,-3.4715,-3.522,-3.6345,-3.5475,-3.5415,-3.6358,-3.6405,-3.6405,-3.6405,-3.6405,-3.6405,-3.6405,-3.6405,-3.6405,-3.6358,-3.5367,-3.441,-3.3392,-3.3044,-3.2894,-3.2844,-3.2431,-3.228,-3.228,-3.228,-3.228,-3.2079,-3.012,-2.9408,-2.9408,-2.9408,-2.9408,-2.9408,-2.9408,-2.9194,-2.8888,-2.8545,-2.8079,-2.768,-2.729,-2.7109,-2.6943,-2.6641,-2.6562,-2.6455,-2.6016,-2.5674,-2.54,-2.5273,-2.4912,-2.459,-2.459,-2.4258,-2.3965,-2.3965,-2.3603,-2.3276,-2.3276,-2.3169,-2.2945,-2.2568,-2.2412,-2.21,-2.1444,-2.1123,-2.0967,-2.0967,-2.123,-2.1221,-2.0781,-2.1572,-2.1865,-2.1385,-2.1943,-2.2236,-2.2236,-2.2236,-2.2383,-2.2685,-2.2685,-2.2799,-2.3091,-2.3091,-2.3091,-2.433,-2.4173,-2.479,-2.6706,-2.6986,-2.7288,-2.9028,-2.9974,-3.0584,-3.1032,-3.2134,-3.2661,-3.1464,-3.2227,-3.2655,-3.1456,-3.2283,-3.3081,-3.3068,-3.3124,-3.3081,-3.3038,-3.3093,-3.3319,0.0,-3.4335,-3.4886,-3.5437,-3.5474,-3.5746,-3.638,-3.6358,-3.6358,-3.6405,-3.6405,-3.6405,-3.6405,-3.6405,-3.6405,-3.6405,-3.6405,-3.6405,-3.6405,-3.6358,-3.631,-3.6203,-3.4872,-3.4337,-3.4227,-3.2844,-3.228,-3.228,-3.228,-3.228,-3.228,-3.223,-3.218,-3.218,-3.218,-3.218,-3.218,-3.218,-3.2168,-3.1905,-3.0596,-2.993,-2.933,-2.8043,-2.7344,-2.7012,-2.6992,-2.6992,-2.6894,-2.6465,-2.6357,-2.623,-2.5762,-2.5361,-2.5096,-2.5096,-2.4697,-2.4394,-2.4394,-2.4043,-2.3769,-2.3769,-2.3408,-2.2945,-2.2568,-2.2158,-2.1894,-2.1865,-2.1855,-2.1846,-2.1846,-2.1855,-2.168,-2.12,-2.2021,-2.2305,-2.1885,-2.2656,-2.3052,-2.3052,-2.3052,-2.3062,-2.3081,-2.3081,-2.3081,-2.3091,-2.3091,-2.3091,-2.5569,-2.6242,-2.7077,-2.8045,-2.9331,-3.0434,-3.062,-3.1477,-3.2302,-3.2432,-3.2486,-3.2364,-3.1956,-3.2224,-3.2364,-3.1914,-3.2548,-3.3124,-3.3124,-3.3124,-3.3124,-3.3124,-3.3124,0.0,0.0,0.0,0.0,-3.5433,-3.5495,-3.578,-3.638,-3.6405,-3.6405,-3.6405,-3.6405,-3.6405,-3.6405,-3.6405,-3.6405,-3.6417,-3.6782,-3.6958,-3.6923,-3.7287,-3.745,-3.745,-3.6985,-3.6788,-3.6739,-3.6258,-3.6096,-3.6096,-3.6096,-3.6096,-3.6096,-3.6096,-3.5878,-3.522,-3.3058,-3.228,-3.228,-3.228,-3.1673,-3.0876,-3.0421,-2.9558,-2.869,-2.8235,-2.7978,-2.7803,-2.7519,-2.7441,-2.7334,-2.6904,-2.6592,-2.6348,-2.6201,-2.582,-2.5518,-2.5518,-2.5156,-2.4844,-2.4844,-2.4492,-2.4111,-2.3828,-2.3418,-2.3042,-2.2906,-2.2568,-2.2305,-2.2305,-2.2051,-2.1885,-2.1885,-2.1885,-2.1816,-2.168,-2.2197,-2.2451,-2.2305,-2.2799,-2.3091,-2.3091,-2.3091,-2.3091,-2.3091,-2.3091,-2.3091,-2.3091,-2.3091,-2.3091,-2.6992,-2.816,-2.9149,-2.9858,-3.1272,-3.2329,-3.1723,-3.2377,-3.2998,-3.2596,-3.2177,-3.1863,-3.1675,-3.1486,-3.1474,-3.1851,-3.2227,-3.2616,-3.3061,-3.3124,-3.3124,-3.3124,-3.3124,-3.3124,0.0,0.0,0.0,-3.4843,-3.5094,-3.5445,-3.6044,-3.6304,-3.6405,-3.6405,-3.6405,-3.6405,-3.6405,-3.6405,-3.6505,-3.6707,-3.7211,-3.7475,-3.7487,-3.7839,-3.8002,-3.8002,-3.8002,-3.8002,-3.8002,-3.8002,-3.8002,-3.8002,-3.8002,-3.8002,-3.8002,-3.8002,-3.7789,-3.7143,-3.4851,-3.3939,-3.3787,-3.3787,-3.3181,-3.2381,-3.1887,-3.1184,-3.038,-2.9869,-2.9713,-2.9641,-2.9415,-2.8991,-2.8537,-2.8085,-2.7378,-2.6797,-2.665,-2.6269,-2.5967,-2.5967,-2.5615,-2.5303,-2.5303,-2.4941,-2.4502,-2.4072,-2.3779,-2.3442,-2.314,-2.2857,-2.2691,-2.2691,-2.249,-2.2334,-2.2334,-2.2197,-2.2109,-2.2109,-2.2363,-2.251,-2.251,-2.2877,-2.3091,-2.3091,-2.3091,-2.3091,-2.3091,-2.3091,-2.3091,-2.3091,-2.3091,-2.3091,-2.8561,-2.9803,-3.0947,-3.1989,-3.2667,-3.293,-3.239,-3.2667,-3.2717,-3.1587,-3.1298,-3.1085,0.0,0.0,-3.008,-3.1097,-3.1361,-3.1813,-3.2918,-3.3124,-3.3124,0.0,0.0,0.0,0.0,0.0,0.0,-3.3897,0.0,-3.4931,-3.5508,-3.6081,-3.6405,-3.6405,-3.6405,-3.6405,-3.6405,-3.6405,-3.6681,-3.7199,-3.7739,-3.8027,-3.8052,-3.8078,-3.809,-3.809,-3.809,-3.809,-3.809,-3.809,-3.809,-3.809,-3.809,-3.809,-3.809,-3.809,-3.8078,-3.7977,-3.745,-3.6958,-3.6493,-3.6455,-3.6395,-3.6098,-3.4787,-3.4337,-3.4019,-3.2694,-3.228,-3.228,-3.223,-3.1276,-3.0213,-2.9731,-2.8623,-2.7559,-2.7139,-2.6719,-2.6426,-2.6426,-2.6064,-2.5713,-2.5693,-2.5381,-2.4951,-2.4521,-2.4453,-2.415,-2.3266,-2.314,-2.313,-2.313,-2.311,-2.3091,-2.3091,-2.273,-2.2549,-2.2549,-2.2549,-2.2549,-2.2549,-2.2886,-2.3091,-2.3091,-2.3091,-2.3091,-2.3091,-2.3091,-2.3091,-2.3091,-2.3091,-2.3091,-2.9729,-3.0972,-3.1976,-3.2679,-3.3011,-3.3043,-3.2893,-3.2641,-3.2127,-3.1035,-3.0143,-2.9139,0.0,0.0,0.0,-2.9477,-3.0934,0.0,-3.3023,-3.3124,0.0,-3.3124,0.0,-3.3696,-3.3696,-3.406,0.0,0.0,-3.4638,-3.514,-3.6107,-3.6329,-3.6405,-3.6405,-3.6405,-3.6405,-3.6405,-3.6405,-3.6681,-3.7199,-3.7739,-3.8228,-3.8668,-3.9069,-3.927,-3.927,-3.927,-3.927,-3.927,-3.927,-3.927,-3.927,-3.927,-3.927,-3.927,-3.927,-3.8994,-3.863,-3.8492,-3.8065,-3.7525,-3.7111,-3.6307,-3.5367,-3.4639,-3.3662,-3.2744,-3.2381,-3.228,-3.2079,-3.1071,-3.0566,-3.0037,-2.8918,-2.8144,-2.7689,-2.7529,-2.7158,-2.6855,-2.6855,-2.6514,-2.6123,-2.5742,-2.5596,-2.542,-2.4971,-2.4902,-2.4707,-2.416,-2.3818,-2.3623,-2.3623,-2.3286,-2.3091,-2.3091,-2.3003,-2.2935,-2.2935,-2.2935,-2.2935,-2.2935,-2.3042,-2.3091,-2.3091,-2.3091,-2.3091,-2.3091,-2.3091,-2.3091,-2.3091,-2.3091,-2.3091,-3.0934,-3.1938,-3.2667,-3.3006,-3.3124,-3.2872,-3.1851,-3.1574,-3.0922,-2.8837,-2.7908,0.0,-2.5669,-2.6527,-2.7632,0.0,0.0,0.0,-3.2591,-3.2918,-3.3212,0.0,-3.3709,0.0,-3.4236,-3.4537,-3.4781,0.0,-3.5044,-3.5353,-3.5968,-3.6279,-3.6405,-3.6405,-3.6405,-3.6405,-3.6405,-3.6644,-3.6998,-3.755,-3.8115,-3.868,-3.9245,-3.9546,-3.9697,-3.9697,0.0,-3.9697,-3.9697,-3.9697,-3.9697,-3.9697,-3.9697,-3.9697,-3.9697,-3.9697,-3.9496,-3.9233,-3.9233,-3.9019,-3.8617,-3.7801,-3.7023,-3.6393,-3.6063,-3.5449,-3.4769,-3.4495,-3.4436,-3.4228,-3.3239,-3.2079,-3.0979,-3.0214,-2.8963,-2.7939,-2.7939,-2.7607,-2.7246,-2.7051,-2.6826,-2.6523,-2.6094,-2.6025,-2.5869,-2.543,-2.5361,-2.5273,-2.4982,-2.4453,-2.4062,-2.4062,-2.3848,-2.3578,-2.3437,-2.3428,-2.334,-2.311,-2.3091,-2.3091,-2.3091,-2.3091,-2.3091,-2.3091,-2.3091,-2.3091,-2.3091,-2.3091,-2.3091,-2.3101,-2.3286,-2.3428,-3.2051,-3.2692,-3.3124,-3.3124,-3.3061,-3.2428,-3.0369,-3.0105,-2.9365,-2.6151,0.0,-2.4933,-2.3866,-2.4669,-2.5862,-2.7027,0.0,-3.0909,-3.2051,-3.2641,-3.3194,-3.3822,-3.396,-3.4223,-3.4731,-3.4901,-3.514,-3.5571,-3.5608,-3.5608,-3.5608,-3.6107,-3.6405,-3.6405,-3.6405,-3.6405,-3.6405,-3.6958,-3.7462,-3.8015,-3.8592,-3.9157,-3.9697,-3.9697,-3.9697,-3.9697,-3.9697,-3.9697,-3.9697,-3.9697,-3.9697,-3.9697,-3.9697,-3.9697,-3.9697,-3.9697,-3.9697,-3.9697,-3.9697,-3.9697,-3.9521,-3.8467,-3.8115,-3.8103,-3.8027,-3.8002,-3.7902,-3.7425,-3.7299,-3.7161,-3.6405,-3.4494,-3.2611,-3.2353,-3.0369,-2.8548,-2.8548,-2.8157,-2.7617,-2.7187,-2.71,-2.6963,-2.6543,-2.6475,-2.6328,-2.584,-2.5771,-2.5752,-2.5693,-2.4962,-2.4502,-2.4502,-2.4453,-2.4268,-2.3906,-2.3877,-2.3711,-2.3286,-2.3266,-2.3266,-2.3266,-2.3266,-2.3266,-2.3266,-2.3266,-2.3266,-2.3266,-2.3266,-2.3266,-2.3276,-2.3701,-2.3877,-3.2754,-3.3006,-3.3124,-3.3124,-3.2717,-3.2026,-3.0758,-2.9465,0.0,0.0,-2.4173,-2.3195,-2.2133,-2.359,-2.5322,-2.6449,-2.851,-3.047,-3.2001,-3.2303,-3.2742,0.0,-3.4299,-3.4756,-3.5307,-3.5818,0.0,0.0,-3.6267,-3.6267,-3.6267,-3.6355,-3.6405,-3.6405,-3.6405,-3.6405,-3.6405,-3.6958,-3.7462,-3.8015,-3.8592,-3.9157,-3.9697,-3.9697,-3.9697,-3.9697,-3.9697,0.0,-3.9697,-3.9697,-3.9697,-3.9697,-3.9697,-3.9697,-3.9697,-3.9697,-3.9697,-3.9697,-3.9697,-3.9697,-3.9584,-3.8931,-3.8718,-3.863,-3.8153,-3.8002,-3.799,-3.7889,-3.7864,-3.7468,-3.5842,-3.503,-3.4313,-3.2672,-3.1122,-2.9964,-2.9964,-2.9041,-2.8057,-2.7637,-2.7559,-2.7412,-2.6982,-2.6904,-2.6768,-2.6338,-2.6279,-2.6143,-2.5732,-2.5283,-2.4998,-2.4998,-2.4629,-2.4385,-2.4316,-2.4307,-2.4277,-2.4199,-2.4153,-2.4153,-2.4153,-2.4153,-2.4153,-2.4153,-2.4153,-2.4153,-2.4153,-2.4153,-2.4153,-2.4199,-2.4277,-2.4307,-3.3006,-3.3124,-3.3124,-3.3124,-3.2428,-3.1273,-2.9327,0.0,0.0,0.0,-2.1754,-2.1127,-2.0363,-2.223,0.0,-2.5079,-2.7077,-2.9164,-3.111,-3.1386,-3.2114,-3.4098,-3.4562,-3.5052,-3.5893,-3.6207,-3.6405,-3.6405,-3.6405,-3.6405,-3.6405,-3.6405,-3.6405,-3.6405,-3.6405,-3.6405,-3.6405,-3.6958,-3.7462,-3.8015,-3.8592,-3.9157,-3.9697,-3.9697,-3.9697,-3.9697,-3.9697,-3.9697,-3.9697,-3.9697,-3.9697,-3.9697,-3.9697,-3.9697,-3.9697,-3.9697,-3.9697,-3.9697,-3.9697,-3.9697,-3.9647,-3.9383,-3.9295,-3.9245,-3.8969,-3.8881,-3.8831,-3.8542,-3.8454,-3.8166,-3.6973,-3.6142,-3.5334,-3.4101,-3.2572,-3.1327,-3.1327,-3.0824,-3.0306,-3.0137,-2.9549,-2.8909,-2.8462,-2.7849,-2.7207,-2.6777,-2.6709,-2.6562,-2.6133,-2.5889,-2.5664,-2.5439,-2.5225,-2.501,-2.4775,-2.4756,-2.4658,-2.4434,-2.4414,-2.4414,-2.4414,-2.4414,-2.4414,-2.4414,-2.4414,-2.4414,-2.4414,-2.4414,-2.4414,-2.4424,-2.4648,-2.4756,-3.3043,-3.3124,-3.3124,-3.3124,-3.2139,-3.0532,-2.7883,-2.5812,0.0,-2.0451,-1.9623,-1.9409,-1.9208,-2.1039,-2.2912,0.0,-2.5749,-2.7846,-2.9955,-3.0557,-3.1725,0.0,-3.465,0.0,-3.6304,-3.6405,0.0,-3.6405,-3.6405,-3.6405,-3.6405,-3.6405,-3.6405,-3.6405,-3.6405,-3.6468,-3.6581,-3.7086,-3.7638,-3.8203,-3.8768,-3.927,-3.9697,-3.9697,-3.9697,-3.9697,-3.9697,-3.9697,-3.9697,-3.9697,-3.9697,-3.9697,-3.9697,-3.9697,-3.9697,-3.9697,-3.9697,-3.9697,-3.9697,-3.9697,-3.9697,-3.9697,-3.9697,-3.9697,-3.9697,-3.9697,-3.9597,-3.917,-3.9095,-3.8919,-3.8341,-3.7392,-3.6413,-3.5559,-3.4125,-3.2841,-3.2549,-3.2409,-3.228,-3.228,-3.1429,-3.0563,-2.9947,-2.8951,-2.8001,-2.7268,-2.7158,-2.7002,-2.6572,-2.6523,-2.6387,-2.5996,-2.5801,-2.5596,-2.5244,-2.5215,-2.5068,-2.4717,-2.4697,-2.4697,-2.4697,-2.4697,-2.4697,-2.4697,-2.4697,-2.4697,-2.4697,-2.4697,-2.4697,-2.4707,-2.5049,-2.5215,-3.293,-3.3124,-3.3124,-3.3124,-3.1876,-3.0093,-2.7808,0.0,-2.2594,-2.0288,-1.9032,-1.8631,-1.956,-2.039,0.0,0.0,0.0,-2.7165,-2.88,-3.0369,-3.1976,-3.3759,0.0,0.0,-3.6304,-3.6405,-3.6405,-3.6405,-3.6405,-3.6405,-3.6405,-3.6405,-3.6405,-3.6405,-3.6405,-3.6644,-3.7098,-3.7651,-3.8216,-3.8793,-3.9358,-3.9647,-3.9697,-3.9697,-3.9697,-3.9697,-3.9697,-3.9697,0.0,-3.9697,-3.9697,-3.9697,-3.9697,-3.9697,-3.9697,-3.9697,-3.9697,-3.9697,-3.9697,-3.9697,-3.9697,-3.9697,-3.9697,-3.9697,-3.9697,-3.9697,-3.9685,-3.9634,-3.9622,-3.9484,-3.8931,-3.873,-3.8164,-3.6374,-3.542,-3.4589,-3.3385,-3.2718,-3.228,-3.228,-3.218,-3.1713,-3.0461,-3.0151,-2.9507,-2.7865,-2.766,-2.7451,-2.7012,-2.6953,-2.6943,-2.6904,-2.6152,-2.5674,-2.5635,-2.5625,-2.5615,-2.5567,-2.5567,-2.5567,-2.5567,-2.5567,-2.5567,-2.5567,-2.5567,-2.5567,-2.5567,-2.5567,-2.5567,-2.5567,-2.5606,-2.5625,-3.283,-3.3124,-3.3124,-3.3124,-3.1587,-2.9541,-2.7329,0.0,-2.1518,-1.9296,-1.8242,-1.794,-1.8706,-1.956,-2.0765,0.0,0.0,0.0,-2.7118,-2.8298,-2.9905,-3.2566,-3.3671,0.0,0.0,0.0,-3.6405,-3.6405,-3.6405,-3.6405,-3.6405,-3.6405,-3.6405,-3.6405,-3.6405,-3.6669,-3.7174,-3.7726,-3.8304,-3.8932,-3.9433,-3.9697,-3.9697,-3.9697,-3.9697,-3.9697,-3.9697,-3.9697,0.0,-3.9697,-3.9697,-3.9697,-3.9697,-3.9697,-3.9697,-3.9697,-3.9697,-3.9697,-3.9697,-3.9697,-3.9697,-3.9697,-3.9697,-3.9697,-3.9697,-3.9697,-3.9697,-3.9697,-3.9697,-3.9647,-3.9421,-3.912,-3.8705,-3.7938,-3.7305,-3.6738,-3.6227,-3.5655,-3.5269,-3.5269,-3.4318,-3.3415,-3.2855,-3.1389,-3.0057,-2.9372,-2.8598,-2.7891,-2.7461,-2.7402,-2.7305,-2.7041,-2.6709,-2.6504,-2.6504,-2.6279,-2.6133,-2.6133,-2.584,-2.5693,-2.5693,-2.5693,-2.5693,-2.5693,-2.5693,-2.5693,-2.5693,-2.5693,-2.5693,-2.5693,-2.5693,-2.5693,-3.2277,-3.2817,-3.3074,-3.2867,-3.1298,-2.9164,-2.6788,-2.3796,-2.0865,-1.8656,-1.7626,-1.735,-1.8078,-1.8819,-1.9924,0.0,0.0,-2.3464,-2.6135,-2.7218,-2.8812,-3.1637,0.0,-3.406,-3.5717,-3.6216,-3.6405,-3.6405,-3.6405,-3.6405,-3.6405,-3.6405,-3.6405,-3.6405,-3.6405,-3.6669,-3.7174,-3.7563,-3.814,-3.8881,-3.927,-3.9534,-3.9697,-3.9697,-3.9697,-3.9697,-3.9697,-3.9697,0.0,-3.9697,-3.9697,-3.9697,-3.9697,-3.9697,-3.9697,-3.9697,-3.9697,-3.9697,-3.9697,-3.9697,-3.9697,-3.9697,-3.9697,-3.9697,-3.9697,-3.9697,-3.9697,-3.9697,-3.9697,-3.9697,-3.9697,-3.9408,-3.912,-3.912,-3.868,-3.8266,-3.8266,-3.7826,-3.7425,-3.7425,-3.6235,-3.5113,-3.4698,-3.2896,-3.1235,-3.0421,-2.9513,-2.8642,-2.7943,-2.7851,-2.7734,-2.7432,-2.7393,-2.7285,-2.7041,-2.6738,-2.6572,-2.6572,-2.6289,-2.6064,-2.6064,-2.6064,-2.6064,-2.6064,-2.6064,-2.6064,-2.6064,-2.6064,-2.6064,-2.6064,-2.6064,-2.6064,-3.111,-3.2227,-3.2943,-3.2365,-3.0997,-2.9051,-2.6239,-2.3464,-2.0865,-1.8656,-1.7313,-1.6851,-1.799,-1.8216,-1.8945,-2.1142,0.0,0.0,-2.6185,-2.7871,-2.949,0.0,0.0,-3.2893,-3.4575,-3.5717,-3.6405,-3.6405,-3.6405,0.0,-3.6405,-3.6405,-3.6405,-3.6405,-3.6405,-3.6669,-3.7174,-3.7199,-3.7764,-3.8919,-3.8932,-3.917,-3.9697,-3.9697,-3.9697,-3.9697,-3.9697,-3.9697,0.0,-3.9697,-3.9697,-3.9697,-3.9697,-3.9697,-3.9697,-3.9697,-3.9697,-3.9697,-3.9697,-3.9697,-3.9697,-3.9697,-3.9697,-3.9697,-3.9697,-3.9697,-3.9697,-3.9697,-3.9697,-3.9697,-3.9697,-3.9685,-3.9685,-3.9685,-3.927,-3.8906,-3.8906,-3.8404,-3.8002,-3.8002,-3.755,-3.6761,-3.5409,-3.4706,-3.3415,-3.0721,-3.0266,-2.9817,-2.8495,-2.8281,-2.8281,-2.8281,-2.8281,-2.7939,-2.708,-2.7012,-2.7012,-2.7012,-2.7002,-2.7002,-2.7002,-2.7002,-2.7002,-2.7002,-2.7002,-2.7002,-2.7002,-2.7002,-2.7002,-2.7002,-2.7002,-2.7002,-2.885,-2.9679,-3.0105,-2.9553,-2.8448,-2.7014,-2.4971,-2.2648,-2.0427,-1.8581,-1.7277,-1.6839,-1.799,-1.8204,-1.9146,-2.2105,-2.2882,0.0,0.0,0.0,0.0,-3.1198,-3.3545,-3.5253,0.0,0.0,-3.6405,-3.6405,-3.6405,-3.6405,-3.6405,-3.6405,-3.6405,-3.6405,-3.6405,-3.6669,-3.7174,-3.7186,-3.7751,-3.8919,-3.8919,-3.9157,-3.9697,-3.9697,-3.9697,-3.9697,-3.9697,-3.9697,-3.9697,-3.9697,-3.9697,-3.9697,-3.9697,-3.9697,-3.9697,-3.9697,-3.9697,-3.9697,-3.9697,-3.9697,-3.9697,-3.9697,-3.9697,-3.9697,-3.9697,-3.9697,-3.9697,-3.9697,-3.9697,-3.9697,-3.9697,-3.9697,-3.9697,-3.9697,-3.9559,-3.9433,-3.9433,-3.8994,-3.8592,-3.8592,-3.8128,-3.7591,-3.7171,-3.6192,-3.5076,-3.3846,-3.2846,-3.1655,-2.99,-2.966,-2.9303,-2.8398,-2.8291,-2.8184,-2.791,-2.7627,-2.7461,-2.7461,-2.7178,-2.7012,-2.7012,-2.7012,-2.7012,-2.7012,-2.7012,-2.7012,-2.7012,-2.7012,-2.7012,-2.7012,-2.7012,-2.7178,-2.6578,-2.7871,-2.8486,-2.7934,-2.6954,-2.5732,-2.4054,-2.1945,-1.9962,-1.8505,-1.7277,-1.6798,-1.7727,-1.8066,-1.9007,-2.1453,-2.2205,0.0,0.0,0.0,0.0,-3.1436,0.0,0.0,0.0,-3.6166,-3.6405,-3.6405,-3.6405,-3.6405,-3.6405,-3.6405,-3.6405,-3.6405,-3.6405,-3.6568,-3.6872,-3.692,-3.7385,-3.8241,-3.8241,-3.8642,-3.9383,-3.9383,-3.9496,-3.9697,-3.9697,-3.9697,0.0,-3.9697,-3.9697,-3.9697,-3.9697,-3.9697,-3.9697,-3.9697,-3.9697,-3.9697,-3.9697,-3.9697,-3.9697,-3.9697,-3.9697,-3.9697,-3.9697,-3.9697,-3.9697,-3.9697,-3.9697,-3.9697,-3.9697,-3.9697,-3.9697,-3.9697,-3.9697,-3.9697,-3.9697,-3.9421,-3.9182,-3.9182,-3.873,-3.8329,-3.8329,-3.7455,-3.647,-3.5618,-3.4637,-3.3328,-3.159,-3.1189,-3.0721,-2.9911,-2.9355,-2.9049,-2.9049,-2.8354,-2.791,-2.791,-2.7646,-2.75,-2.75,-2.75,-2.75,-2.75,-2.75,-2.75,-2.75,-2.75,-2.75,-2.75,-2.75,-2.7646,0.0,-2.6352,-2.7507,-2.6992,-2.6076,-2.4883,-2.3233,-2.124,0.0,-1.8367,-1.7275,-1.6713,-1.7448,-1.7915,-1.8631,-1.9899,-2.0978,0.0,0.0,-2.6854,0.0,0.0,-3.3834,0.0,-3.4839,-3.5768,-3.6405,-3.6405,-3.6405,-3.6405,-3.6405,-3.6405,-3.6405,-3.6405,-3.6405,-3.6405,-3.6405,-3.6405,-3.6681,-3.7186,-3.7186,-3.7751,-3.8856,-3.8856,-3.9107,0.0,-3.9634,-3.9659,-3.9697,-3.9697,-3.9697,-3.9697,-3.9697,-3.9697,-3.9697,-3.9697,-3.9697,-3.9697,-3.9697,-3.9697,-3.9697,-3.9697,-3.9697,-3.9697,-3.9697,-3.9697,-3.9697,-3.9697,-3.9697,-3.9697,-3.9697,-3.9697,-3.9697,-3.9697,-3.9697,-3.9697,-3.9697,-3.9697,-3.9697,-3.9697,-3.9283,-3.8982,-3.8982,-3.8479,-3.7693,-3.6386,-3.5791,-3.4967,-3.356,-3.2938,-3.2533,-3.2432,-3.1249,-3.0515,-3.0515,-2.9175,-2.8291,-2.8291,-2.8291,-2.8291,-2.8291,-2.8291,-2.8291,-2.8291,-2.8291,-2.8291,-2.8291,-2.8291,-2.8291,-2.8291,-2.8291,-2.8291,-2.0299,0.0,-2.3012,-2.2887,-2.2648,-2.2121,0.0,-1.9848,-1.887,-1.7802,-1.7011,-1.7052,-1.8894,-1.8668,-1.9258,-2.2485,-2.3238,-2.4217,-2.6553,-2.9679,0.0,-3.3935,-3.5228,-3.6015,-3.6015,-3.6254,-3.6405,-3.6405,-3.6405,-3.6405,-3.6405,-3.6405,-3.6405,-3.6405,-3.6405,-3.6405,-3.6405,-3.6405,-3.6681,-3.7186,-3.7186,-3.755,-3.8216,-3.8216,-3.8517,-3.9069,-3.9069,-3.9308,-3.9697,-3.9697,-3.9697,-3.9697,-3.9697,-3.9697,-3.9697,-3.9697,-3.9697,-3.9697,-3.9697,-3.9697,-3.9697,-3.9697,-3.9697,-3.9697,-3.9697,-3.9697,-3.9697,-3.9697,-3.9697,-3.9697,-3.9697,-3.9697,-3.9697,-3.9697,-3.9697,-3.9697,-3.9697,-3.9697,-3.9697,-3.9697,-3.9584,-3.9496,-3.9496,-3.9383,-3.9043,-3.8352,-3.8127,-3.7351,-3.5561,-3.5243,-3.4753,-3.3711,-3.2971,-3.2502,-3.2502,-2.9918,-2.8291,-2.8291,-2.8291,-2.8291,-2.8291,-2.8291,-2.8291,-2.8291,-2.8291,-2.8291,-2.8291,-2.8291,-2.8291,-2.8291,-2.8291,-2.8291,-1.8204,-1.9849,-2.1493,-2.1493,-2.1292,-2.0981,-2.0365,-1.9196,-1.8103,0.0,0.0,0.0,-1.8417,-1.8631,-1.9434,-2.2074,-2.3326,0.0,0.0,0.0,-3.3483,-3.4587,-3.5692,-3.6405,0.0,-3.6405,-3.6405,-3.6405,-3.6405,-3.6405,-3.6405,-3.6405,-3.6405,-3.6405,-3.6405,-3.6405,-3.6405,-3.6405,-3.6556,-3.6857,-3.6857,-3.7098,-3.7626,-3.7626,-3.7939,-3.8492,-3.8755,-3.9044,-3.9333,-3.9584,-3.9697,-3.9697,-3.9697,-3.9697,-3.9697,-3.9697,-3.9697,-3.9697,-3.9697,-3.9697,-3.9697,-3.9697,-3.9697,-3.9697,-3.9697,-3.9697,-3.9697,-3.9697,-3.9697,-3.9697,-3.9697,-3.9697,-3.9697,-3.9697,-3.9697,-3.9697,-3.9697,-3.9697,-3.9697,-3.9697,-3.9697,-3.9697,-3.9697,-3.9697,-3.9597,-3.9295,-3.9032,-3.8541,-3.7486,-3.7103,-3.663,-3.5895,-3.5035,-3.4502,-3.4502,-3.2276,-3.0452,-2.928,-2.8644,-2.8291,-2.8291,-2.8291,-2.8291,-2.8291,-2.8291,-2.8291,-2.8291,-2.8291,-2.8291,-2.8291,-2.8291,-2.8291,-1.7438,-1.9459,-2.1358,-2.1154,-2.0918,-2.0641,-2.0478,0.0,0.0,0.0,0.0,0.0,0.0,-1.8781,0.0,0.0,0.0,0.0,-2.9654,-3.1913,-3.3608,-3.4668,-3.5742,0.0,-3.6405,-3.6405,-3.6405,-3.6405,-3.6405,-3.6405,-3.6405,-3.6405,-3.6405,-3.6405,-3.6405,-3.6405,-3.6405,-3.6405,-3.6405,-3.6405,-3.6405,-3.6656,-3.7061,-3.7061,-3.7362,-3.7914,0.0,0.0,-3.8957,-3.9371,-3.9622,-3.9697,-3.9697,-3.9697,-3.9697,-3.9697,-3.9697,-3.9697,-3.9697,-3.9697,-3.9697,-3.9697,-3.9697,-3.9697,-3.9697,-3.9697,-3.9697,-3.9697,-3.9697,-3.9697,-3.9697,-3.9697,-3.9697,-3.9697,-3.9697,-3.9697,-3.9697,-3.9697,-3.9697,-3.9697,-3.9697,-3.9697,-3.9697,-3.9697,-3.9697,-3.9697,-3.9295,-3.9045,-3.9045,-3.8567,-3.8266,-3.8266,-3.7178,-3.6435,-3.6435,-3.5149,-3.3388,-3.1288,-2.9646,-2.8617,-2.8291,-2.8291,-2.8291,-2.8291,-2.8291,-2.8291,-2.8291,-2.8291,-2.8291,-2.8291,-2.8291,-2.8291,-1.8343,-1.9761,-2.0591,-1.961,-2.0037,-2.0453,-1.9497,-1.8995,0.0,0.0,0.0,0.0,0.0,-2.1004,-2.1933,0.0,0.0,-2.9001,0.0,0.0,-3.4186,-3.5245,0.0,-3.6405,-3.6405,-3.6405,-3.6405,-3.6405,-3.6405,-3.6405,-3.6405,-3.6405,-3.6405,-3.6405,-3.6405,-3.6405,-3.6405,-3.6405,-3.6405,-3.6405,-3.6405,-3.6455,-3.6531,-3.6531,-3.6832,-3.7312,0.0,-3.799,-3.8932,-3.9007,-3.927,-3.9697,-3.9697,-3.9697,-3.9697,-3.9697,-3.9697,-3.9697,-3.9697,-3.9697,-3.9697,-3.9697,-3.9697,-3.9697,-3.9697,-3.9697,-3.9697,-3.9697,-3.9697,-3.9697,-3.9697,-3.9697,-3.9697,-3.9697,-3.9697,-3.9697,-3.9697,-3.9697,-3.9697,-3.9697,-3.9697,-3.9697,-3.9697,-3.9697,-3.9697,-3.9697,-3.9622,-3.9572,-3.9572,-3.9496,-3.9433,-3.9433,-3.8854,-3.8466,-3.8466,-3.6744,-3.5506,-3.5137,-3.2298,-2.9954,-2.8364,-2.8291,-2.8291,-2.8291,-2.8291,-2.8291,-2.8291,-2.8291,-2.8291,-2.8291,-2.8291,-2.8291,-1.744,-1.8682,-1.9723,-1.9497,-2.0514,-2.143,-2.0888,-2.0338,0.0,0.0,0.0,0.0,0.0,0.0,-2.4293,-2.7369,0.0,-3.0507,-3.2416,-3.3382,-3.4311,0.0,-3.6031,-3.6405,-3.6405,-3.6405,-3.6405,-3.6405,-3.6405,-3.6405,-3.6405,-3.6405,-3.6405,-3.6405,-3.6405,-3.6405,-3.6405,-3.6405,-3.6405,-3.6405,-3.6405,-3.6405,-3.6405,-3.6405,-3.6543,-3.6807,0.0,-3.7475,-3.8015,-3.8668,-3.907,-3.9283,-3.9584,-3.9697,-3.9697,-3.9697,-3.9697,-3.9697,-3.9697,-3.9697,-3.9697,-3.9697,-3.9697,-3.9697,-3.9697,-3.9697,-3.9697,-3.9697,-3.9697,-3.9697,-3.9697,-3.9697,-3.9697,-3.9697,-3.9697,-3.9697,-3.9697,-3.9697,-3.9697,-3.9697,-3.9697,-3.9697,-3.9697,-3.9697,-3.9697,-3.9697,-3.9697,-3.9697,-3.9697,-3.9697,-3.9697,-3.9697,-3.9471,-3.932,-3.932,-3.8522,-3.7094,-3.5033,-3.2743,-3.1079,-3.0248,-3.0184,-3.0184,-3.0184,-3.0956,-3.1009,-3.0184,-3.0184,-2.9772,-2.8984,-2.8984,-2.8984,-1.7388,-1.8306,-1.9346,-2.0024,-2.1066,-2.2071,-2.2585,-2.1845,-2.1307,0.0,0.0,0.0,0.0,-2.4669,0.0,-2.9716,-3.0746,-3.1725,-3.3244,-3.3822,-3.45,-3.5558,-3.6107,-3.6405,-3.6405,-3.6405,-3.6405,-3.6405,-3.6405,-3.6405,-3.6405,-3.6405,-3.6405,-3.6405,-3.6405,-3.6405,-3.6405,-3.6405,-3.6405,-3.6405,-3.6405,-3.6405,-3.6405,-3.6405,-3.6405,-3.643,-3.6857,-3.7061,-3.7262,-3.8266,-3.8743,-3.8931,-3.9484,-3.9697,-3.9697,-3.9697,-3.9697,-3.9697,-3.9697,-3.9697,-3.9697,-3.9697,-3.9697,-3.9697,-3.9697,-3.9697,-3.9697,-3.9697,-3.9697,-3.9697,-3.9697,-3.9697,-3.9697,-3.9697,-3.9697,-3.9697,-3.9697,-3.9697,-3.9697,-3.9697,-3.9697,-3.9697,-3.9697,-3.9697,-3.9697,-3.9697,-3.9697,-3.9697,-3.9697,-3.9697,-3.9697,-3.9697,-3.9697,-3.9697,-3.9697,-3.9697,-3.8447,-3.5521,-3.3721,-3.2652,-3.233,-3.2341,-3.2341,-3.2341,-3.3121,-3.311,-3.233,-3.1648,-3.085,-3.0107,-2.9784,-2.9626,-1.9975,-2.0088,-2.0012,-2.1091,-2.1106,-2.1358,-2.3401,-2.3,0.0,-2.4224,0.0,0.0,0.0,-2.7595,-2.9842,-3.1072,-3.219,-3.3294,-3.4449,-3.4638,-3.5064,-3.6216,-3.638,-3.6405,-3.6405,-3.6405,-3.6405,-3.6405,-3.6405,-3.6405,-3.6405,-3.6405,-3.6405,-3.6405,-3.6405,-3.6405,-3.6405,-3.6405,-3.6405,-3.6405,-3.6405,-3.6405,-3.6405,-3.6405,-3.6405,-3.6405,-3.6455,-3.6757,-3.7224,-3.7826,-3.8379,-3.8931,-3.9484,-3.9697,-3.9697,-3.9697,-3.9697,-3.9697,-3.9697,-3.9697,-3.9697,-3.9697,-3.9697,-3.9697,-3.9697,-3.9697,-3.9697,-3.9697,-3.9697,-3.9697,-3.9697,-3.9697,-3.9697,-3.9697,-3.9697,-3.9697,-3.9697,-3.9697,-3.9697,-3.9697,-3.9697,-3.9697,-3.9697,-3.9697,-3.9697,-3.9697,-3.9697,-3.9697,-3.9697,-3.9697,-3.9697,-3.9697,-3.9697,-3.9697,-3.9697,-3.9697,-3.9608,-3.9301,-3.7034,-3.5154,-3.3892,-3.384,-3.384,-3.384,-3.2588,-3.2588,-3.384,-3.1103,-3.0429,-3.1594,-3.0218,-2.9626,-1.858,-1.9196,-2.0075,-2.1204,-2.2121,0.0,0.0,-2.5209,-2.5875,-2.7557,-2.7908,0.0,0.0,0.0,-3.0658,-3.1725,-3.2566,-3.3458,-3.4562,-3.468,-3.5127,-3.6279,-3.6405,-3.6405,-3.6405,-3.6405,-3.6405,-3.6405,-3.6405,-3.6405,-3.6405,-3.6405,-3.6405,-3.6405,-3.6405,-3.6405,-3.6405,-3.6405,-3.6405,-3.6405,-3.6405,-3.6405,-3.6405,-3.6405,-3.6405,-3.6405,-3.6405,-3.6531,-3.6757,-3.7262,-3.7826,-3.8429,-3.9333,-3.9697,-3.9697,-3.9697,-3.9697,-3.9697,-3.9697,-3.9697,-3.9697,-3.9697,-3.9697,-3.9697,-3.9697,-3.9697,-3.9697,-3.9697,-3.9697,-3.9697,-3.9697,-3.9697,-3.9697,-3.9697,-3.9697,-3.9697,-3.9697,-3.9697,-3.9697,-3.9697,-3.9697,-3.9697,-3.9697,-3.9697,-3.9697,-3.9697,-3.9697,-3.9697,-3.9697,-3.9697,-3.9697,-3.9697,-3.9697,-3.9697,-3.9697,-3.9697,-3.9697,-3.9697,-3.7971,-3.6713,-3.6215,-3.6174,-3.5737,-3.4836,-3.5148,-3.4717,-3.3462,-3.2329,-3.1584,-3.1218,-3.0667,-3.0391,-1.8053,-1.8706,-1.9823,-2.0968,0.0,0.0,-2.5799,-2.6866,-2.8072,-2.9917,-3.0168,-3.0218,-3.0758,0.0,0.0,-3.2064,-3.2704,-3.3395,-3.4336,-3.4568,-3.5064,-3.5994,-3.6304,-3.6405,-3.6405,-3.6405,-3.6405,-3.6405,-3.6405,-3.6405,-3.6405,-3.6405,-3.6405,-3.6405,-3.6405,-3.6405,-3.6405,-3.6405,-3.6405,-3.6405,-3.6405,-3.6405,-3.6405,-3.6405,-3.6405,-3.6405,-3.6405,-3.6405,-3.6455,-3.7008,-3.7613,-3.8379,-3.932,-3.9697,-3.9697,-3.9697,-3.9697,-3.9697,-3.9697,-3.9697,-3.9697,-3.9697,-3.9697,-3.9697,-3.9697,-3.9697,-3.9697,-3.9697,-3.9697,-3.9697,-3.9697,-3.9697,-3.9697,-3.9697,-3.9697,-3.9697,-3.9697,-3.9697,-3.9697,-3.9697,-3.9697,-3.9747,-3.9923,-3.9961,-4.0011,-4.0187,-4.0061,-3.9961,-3.9961,-3.9798,-3.9697,-3.9697,-3.9697,-3.9697,-3.9697,-3.9697,-3.9697,-3.9697,-3.8739,-3.819,-3.819,-3.819,-3.7701,-3.6727,-3.7198,-3.6757,-3.5167,-3.3789,-3.2804,-3.2275,-3.1334,-3.117,-1.9146,-1.9008,-1.9284,-2.044,0.0,0.0,-2.6816,-2.7733,-2.875,-3.0947,-3.0997,-3.0783,-3.1298,-3.1399,0.0,-3.2127,-3.2704,-3.3269,-3.3822,-3.4374,-3.4868,-3.542,-3.6019,-3.6392,-3.6392,-3.6405,-3.6405,-3.6405,-3.6405,-3.6405,-3.6405,-3.6405,-3.6405,-3.6405,-3.6405,-3.6405,-3.6405,-3.6405,-3.6405,-3.6405,-3.6405,-3.6405,-3.6405,-3.6405,-3.6405,-3.6405,-3.6405,-3.6405,-3.6455,-3.696,-3.7852,-3.8969,-3.9484,-3.9697,-3.9697,-3.9697,-3.9697,-3.9697,-3.9697,-3.9697,-3.9697,-3.9697,-3.9697,-3.9697,-3.9697,-3.9697,-3.9697,-3.9697,-3.9697,-3.9697,-3.9697,-3.9697,-3.9697,-3.9697,-3.9697,-3.9697,-3.9697,-3.9697,-3.9697,-3.9697,-3.9697,-3.9885,-4.0438,-4.0526,-4.0714,-4.12,-4.0877,-4.0526,-4.0526,-4.0036,-3.9697,-3.9697,-3.9697,-3.9697,-3.9697,-3.9697,-3.9697,-3.9697,-3.9697,-3.9697,-3.9697,-3.9697,-3.9685,-3.9685,-3.8243,-3.819,-3.9645,-3.5277,-3.3845,-3.5245,-3.2322,-3.171,-1.8694,-1.9296,-2.0539,-2.2033,0.0,0.0,0.0,-2.9754,0.0,0.0,-3.2127,-3.1788,-3.1938,-3.1964,0.0,-3.219,-3.2704,-3.3269,-3.3822,-3.4035,-3.4349,-3.4856,-3.5115,-3.5203,-3.5203,-3.5567,-3.5793,-3.5793,-3.6144,-3.6405,-3.6405,-3.6405,-3.6405,-3.6405,-3.6405,-3.6405,-3.6405,-3.6405,-3.6405,-3.6405,-3.6405,-3.6405,-3.6405,-3.6405,-3.6405,-3.6405,-3.6405,-3.6405,-3.648,-3.7374,-3.7965,-3.8354,-3.932,-3.9697,-3.9697,-3.9697,-3.9697,-3.9697,-3.9697,-3.9697,-3.9697,-3.9697,-3.9697,-3.9697,-3.9697,-3.9697,-3.9697,-3.9697,-3.9697,-3.9785,-4.0174,-3.9986,-3.9697,-3.9697,-3.9697,-3.9697,-3.9697,-3.9998,-4.0275,-4.0275,-4.0588,-4.0902,-4.1012,-4.1037,-4.11,-4.1263,-4.115,-4.1037,-4.1037,-4.0614,-4.0275,-4.0275,-3.9923,-3.9697,-3.9697,-3.9697,-3.9697,-3.9697,-3.9697,-3.9697,-3.9697,-3.9697,-3.9193,-3.819,-3.7743,-3.7198,-3.6607,-3.5288,-3.4847,-3.5288,-3.4414,-3.4247,-1.9233,-2.0101,0.0,-2.3308,-2.5649,-2.8059,-3.0394,0.0,0.0,0.0,-3.2616,-3.2277,-3.2516,-3.2365,0.0,-3.2516,-3.2855,-3.3194,-3.3533,-3.3759,-3.4022,-3.4349,-3.4587,-3.468,-3.468,-3.4981,-3.5169,-3.5169,-3.5529,-3.5705,-3.5705,-3.5918,-3.6031,-3.6031,-3.6304,-3.6405,-3.6405,-3.6405,-3.6405,-3.6405,-3.6405,-3.6405,-3.6405,-3.6405,-3.6405,-3.6405,-3.6405,-3.6405,-3.648,-3.7312,-3.7814,-3.8103,-3.9007,-3.9496,-3.9697,-3.9697,-3.9697,-3.9697,-3.9697,-3.9697,-3.9697,-3.9697,-3.9697,-3.9697,-3.9697,-3.9697,-3.9697,-3.9697,-3.9697,-3.9823,-4.0375,-4.0275,-4.0023,-4.0023,-4.0023,-4.0023,-4.0023,-4.045,-4.0852,-4.0852,-4.1062,-4.1363,-4.163,-4.1668,-4.1743,-4.1957,-4.1806,-4.158,-4.1313,-4.1,-4.0852,-4.0852,-4.035,-4.0023,-4.0023,-3.9823,-3.9697,-3.9697,-3.9697,-3.9697,-3.9697,-3.9697,-3.9297,-3.8413,-3.8348,-3.7926,-3.7049,-3.5847,-3.5617,-3.6162,-3.4958,-3.5057,-2.0339,-2.1131,-2.2171,-2.4406,-2.5912,0.0,-3.0758,-3.2252,-3.3018,-3.3111,0.0,-3.2453,-3.298,-3.2641,-3.2466,-3.2993,-3.3124,-3.3124,-3.3124,-3.3508,-3.3822,-3.3822,-3.4274,-3.4575,-3.4575,-3.4613,-3.465,-3.465,-3.4655,-3.468,-3.468,-3.5157,-3.542,-3.542,-3.6006,-3.6329,-3.6329,-3.638,-3.6405,-3.6405,-3.6405,-3.6405,-3.6405,-3.6405,-3.6405,-3.6405,-3.6405,-3.6405,-3.6455,-3.7008,-3.7475,-3.799,-3.868,-3.9182,-3.9622,-3.9672,-3.9697,-3.9697,-3.9697,-3.9697,-3.9697,-3.9697,-3.9697,-3.9697,-3.9697,-3.9697,-3.9697,-3.9697,-3.9697,-3.9823,-4.0375,-4.0513,-4.0526,-4.0576,-4.0588,-4.0588,-4.0588,-4.1028,-4.1363,-4.1363,-4.1401,-4.1643,-4.22,-4.2288,-4.2451,-4.2898,-4.2602,-4.2045,-4.1555,-4.1388,-4.1363,-4.1363,-4.0927,-4.0588,-4.0588,-4.0136,-3.9848,-3.9848,-3.9848,-3.9848,-3.9848,-3.9747,-3.9697,-3.9697,-3.9581,-3.9581,-3.9685,-3.6888,-3.6271,-3.7636,-3.4947,-3.5167,-1.9924,-2.1355,0.0,-2.5581,-2.7934,-3.0131,-3.1675,-3.2227,-3.2528,-3.298,-3.298,-3.293,-3.3099,-3.2968,-3.293,-3.3056,-3.3124,-3.3124,-3.3124,-3.3224,-3.3257,-3.3257,-3.3357,-3.3432,-3.3432,-3.3822,-3.4073,-3.4073,-3.4474,-3.468,-3.468,-3.4793,-3.4856,-3.4856,-3.5382,-3.5671,-3.5671,-3.6144,-3.6405,-3.6405,-3.6405,-3.6405,-3.6405,-3.6405,-3.6405,-3.6405,-3.6405,-3.6405,-3.6455,-3.7008,-3.7249,-3.7462,-3.8529,-3.8994,-3.9094,-3.9534,-3.9697,-3.9697,-3.9697,-3.9697,-3.9697,-3.9697,-3.9697,-3.9697,-3.9697,-3.9697,-3.9697,-3.9697,-3.9697,-3.9823,-4.0375,-4.0513,-4.0626,-4.1012,-4.1112,-4.1112,-4.1112,-4.1593,-4.2037,-4.2037,-4.2333,-4.266,-4.2841,-4.2854,-4.2891,-4.2961,-4.2873,-4.276,-4.2635,-4.2246,-4.2037,-4.2037,-4.1492,-4.1112,-4.1112,-4.1,-4.0937,-4.0937,-4.0937,-4.0937,-4.0937,-4.0162,-3.9697,-3.9697,-3.8582,-3.8518,-3.9697,-3.7914,-3.7808,-3.9193,-3.8582,-3.8635,-2.0652,0.0,0.0,-2.6954,0.0,-3.0758,-3.1323,-3.1838,-3.2303,-3.2604,-3.288,-3.3124,-3.3124,-3.3124,-3.3124,-3.3124,-3.3124,-3.3124,-3.3124,-3.3124,-3.3124,-3.3124,-3.3124,-3.3124,-3.3124,-3.3332,-3.3508,-3.3508,-3.3771,-3.3935,-3.3935,-3.4186,-3.4324,-3.4324,-3.4818,-3.5107,-3.5107,-3.5429,-3.5705,-3.5968,-3.5968,-3.6107,-3.6405,-3.6405,-3.6405,-3.6405,-3.6405,-3.6405,-3.643,-3.6719,-3.6996,-3.7262,-3.8128,-3.863,-3.8931,-3.9484,-3.9697,-3.9697,-3.9697,-3.9697,-3.9697,-3.9697,-3.9697,-3.9697,-3.9697,-3.9697,-3.9697,-3.9697,-3.9697,-3.9885,-4.0701,-4.0862,-4.1116,-4.1932,-4.1919,-4.1731,-4.1731,-4.2158,-4.2602,-4.2602,-4.2841,-4.2974,-4.2974,-4.2974,-4.2974,-4.2974,-4.2974,-4.2974,-4.2974,-4.2778,-4.2602,-4.2602,-4.2057,-4.1731,-4.1731,-4.1492,-4.1288,-4.1288,-4.1288,-4.1288,-4.1288,-4.0736,-4.0362,-4.0099,-3.9355,-3.9167,-3.9697,-3.8243,-3.8243,-3.9685,-3.8973,-3.9025,-2.1104,0.0,-2.5021,-2.811,-2.9704,0.0,-3.0595,-3.1311,-3.1964,-3.2051,-3.2604,-3.3124,-3.3124,-3.3124,-3.3124,-3.3124,-3.3124,-3.3124,-3.3124,-3.3124,-3.3124,-3.3124,-3.3124,-3.3124,-3.3124,-3.3124,-3.3124,-3.3124,-3.3124,-3.3124,-3.3124,-3.3508,-3.3759,-3.3759,-3.4299,-3.4575,-3.4575,-3.4675,-3.4906,-3.5357,-3.5458,-3.583,-3.6405,-3.6405,-3.6405,-3.6405,-3.6405,-3.6405,-3.6405,-3.6405,-3.6681,-3.7111,-3.7751,-3.8304,-3.8793,-3.9446,-3.9697,-3.9697,-3.9697,-3.9697,-3.9697,-3.9697,-3.9697,-3.9697,-3.9697,-3.9697,-3.9697,-3.9697,-3.9697,-3.9923,-4.0887,-4.1213,-4.1539,-4.2597,-4.2615,-4.2351,-4.2351,-4.2715,-4.2974,-4.2974,-4.2974,-4.2974,-4.2974,-4.2974,-4.2974,-4.2974,-4.2974,-4.2974,-4.2974,-4.2974,-4.2974,-4.2974,-4.2627,-4.2351,-4.2351,-4.1882,-4.1564,-4.1564,-4.1564,-4.1564,-4.1564,-4.1564,-4.1367,-4.0802,-4.0424,-4.0149,-3.9973,-3.8424,-3.8388,-3.9835,-3.8611,-3.8664,-1.9208,0.0,-2.595,0.0,-2.9415,-3.003,0.0,0.0,-3.0959,0.0,-3.234,-3.3124,-3.3124,-3.3124,-3.3124,-3.3124,-3.3124,-3.3124,-3.3124,-3.3124,-3.3124,-3.3124,-3.3124,-3.3124,-3.3124,-3.3124,-3.3124,-3.3124,-3.3124,-3.3124,-3.3124,-3.3187,-3.3224,-3.3224,-3.3721,-3.401,-3.401,-3.4487,-3.4763,-3.4793,-3.527,-3.583,-3.6405,-3.6405,-3.6405,-3.6405,-3.6405,-3.6405,-3.6405,-3.6405,-3.6455,-3.6619,-3.76,-3.8052,-3.8253,-3.9308,-3.9697,-3.9697,-3.9697,-3.9697,-3.9697,-3.9697,-3.9697,-3.9697,-3.9697,-3.9697,-3.9697,-3.9697,-3.9697,-3.9835,-4.0463,-4.0924,-4.1492,-4.2175,-4.2627,-4.2873,-4.2873,-4.2924,-4.2974,-4.2974,-4.2974,-4.2974,-4.2974,-4.2974,-4.2974,-4.2974,-4.2974,-4.2974,-4.2974,-4.2974,-4.2974,-4.2974,-4.2911,-4.2873,-4.2873,-4.2798,-4.276,-4.276,-4.276,-4.276,-4.276,-4.276,-4.2497,-4.1999,-4.0184,-3.9861,-4.1062,-3.9152,-3.8934,-4.0413,-4.0177,-4.0177,-2.065,-2.317,-2.5774,0.0,-2.9076,-2.9465,-3.003,-3.0394,-3.0683,-3.0909,-3.1587,-3.2227,-3.2541,-3.2591,-3.2704,-3.3074,-3.3124,-3.3124,-3.3124,-3.3124,-3.3124,-3.3124,-3.3124,-3.3124,-3.3124,-3.3124,-3.3124,-3.3124,-3.3124,-3.3124,-3.3124,-3.3124,-3.3124,-3.3124,-3.3319,-3.3432,-3.3432,-3.3684,-3.396,-3.4274,-3.5094,-3.5621,-3.5918,-3.6267,-3.6405,-3.6405,-3.6405,-3.6405,-3.6405,-3.6405,-3.6405,-3.6493,-3.7236,-3.7739,-3.8103,-3.8931,-3.9433,-3.9697,-3.9697,-3.9697,-3.9697,-3.9697,-3.9697,-3.9697,-3.9697,-3.9697,-3.9697,-3.9697,-3.9923,-4.0275,-4.0786,-4.1379,-4.1944,-4.2484,-4.2798,-4.2974,-4.2974,-4.2974,-4.2974,-4.2974,-4.2974,-4.2974,-4.2974,-4.2974,-4.2974,-4.2974,-4.2974,-4.2974,-4.2974,-4.2974,-4.2974,-4.2974,-4.2974,-4.2974,-4.2974,-4.2974,-4.2974,-4.2974,-4.2974,-4.2974,-4.2974,-4.2974,-4.2861,-4.2678,-4.1483,-4.0995,-4.1288,-4.0409,-4.0285,-4.0924,-4.0924,-4.0924,0.0,0.0,-2.4575,-2.7195,-2.8261,-2.8863,0.0,0.0,-3.0407,0.0,-3.0708,-3.1148,-3.17,-3.1913,-3.219,-3.2767,-3.2855,-3.2905,-3.3056,-3.3124,-3.3124,-3.3124,-3.3124,-3.3124,-3.3124,-3.3124,-3.3124,-3.3124,-3.3124,-3.3124,-3.3124,-3.3124,-3.3124,-3.3124,-3.3124,-3.3124,-3.3124,-3.3124,-3.3357,-3.3909,-3.4831,-3.537,-3.552,-3.6107,-3.6405,-3.6405,-3.6405,-3.6405,-3.6405,-3.6405,-3.6405,-3.6468,-3.6973,-3.7525,-3.8078,-3.8655,-3.922,-3.9697,-3.9697,-3.9697,-3.9697,-3.9697,-3.9697,-3.9697,-3.9697,-3.9697,-3.9697,-3.9697,-4.0086,-4.0639,-4.115,-4.1743,-4.2351,-4.2848,-4.2974,-4.2974,-4.2974,-4.2974,-4.2974,-4.2974,-4.2974,-4.2974,-4.2974,-4.2974,-4.2974,-4.2974,-4.2974,-4.2974,-4.2974,-4.2974,-4.2974,-4.2974,-4.2974,-4.2974,-4.2974,-4.2974,-4.2974,-4.2974,-4.2974,-4.2974,-4.2974,-4.2974,-4.2974,-4.2974,-4.2627,-4.2158,-4.1756,-4.1618,-4.1543,-4.1543,-4.1543,-4.1543,0.0,-2.0426,0.0,-2.4437,-2.6603,-2.8298,0.0,0.0,-2.9829,-2.9829,-2.9854,-3.0043,-3.0595,-3.1097,-3.1612,-3.2164,-3.2252,-3.2453,-3.3006,-3.3124,-3.3124,-3.3124,-3.3124,-3.3124,-3.3124,-3.3124,-3.3124,-3.3124,-3.3124,-3.3124,-3.3124,-3.3124,-3.3124,-3.3124,-3.3124,-3.3124,-3.3124,-3.3124,-3.3357,-3.3909,-3.4487,-3.4994,-3.552,-3.6107,-3.6405,-3.6405,-3.6405,-3.6405,-3.6405,-3.6405,-3.6405,-3.6468,-3.6973,-3.7525,-3.8078,-3.8655,-3.922,-3.9697,-3.9697,-3.9697,-3.9697,-3.9697,-3.9697,-3.9697,-3.9697,-3.9697,-3.9697,-3.9697,-4.0086,-4.0639,-4.115,-4.1743,-4.2351,-4.2848,-4.2974,-4.2974,-4.2974,-4.2974,-4.2974,-4.2974,-4.2974,-4.2974,-4.2974,-4.2974,-4.2974,-4.2974,-4.2974,-4.2974,-4.2974,-4.2974,-4.2974,-4.2974,-4.2974,-4.2974,-4.2974,-4.2974,-4.2974,-4.2974,-4.2974,-4.2974,-4.2974,-4.2974,-4.2974,-4.2974,-4.2949,-4.2924,-4.2886,-4.2426,-4.2162,-4.2162,-4.2162,-4.2162,0.0,0.0,0.0,-2.374,-2.5686,-2.7281,-2.8197,-2.9126,-2.9792,-2.9792,-2.9792,-2.9854,-3.0043,-3.0532,-3.1072,-3.1599,-3.1687,-3.1876,-3.2441,-3.2516,-3.2667,-3.3031,-3.3124,-3.3124,-3.3124,-3.3124,-3.3124,-3.3124,-3.3124,-3.3124,-3.3124,-3.3124,-3.3124,-3.3124,-3.3124,-3.3124,-3.3124,-3.3124,-3.3224,-3.3382,-3.3935,-3.4487,-3.4994,-3.5592,-3.6031,-3.6405,-3.6405,-3.6405,-3.6405,-3.6405,-3.6405,-3.643,-3.6619,-3.7211,-3.804,-3.8241,-3.8894,-3.9697,-3.9697,-3.9697,-3.9697,-3.9697,-3.9697,-3.9697,-3.9697,-3.9697,-3.9772,-4.0124,-4.0614,-4.1178,-4.1718,-4.2271,-4.2791,-4.2924,-4.2974,-4.2974,-4.2974,-4.2974,-4.2974,-4.2974,-4.2974,-4.2974,-4.2974,-4.2974,-4.2848,-4.2552,-4.2803,-4.2904,-4.2552,-4.2816,-4.2974,-4.2974,-4.2974,-4.2974,-4.2974,-4.2974,-4.2974,-4.2974,-4.2974,-4.2974,-4.2974,-4.2974,-4.2974,-4.2974,-4.2974,-4.2974,-4.2974,-4.2841,-4.274,-4.274,-4.274,-4.274,-1.8017,0.0,0.0,0.0,0.0,-2.5598,-2.7645,-2.8549,-2.9051,-2.9428,-2.9654,-2.9792,-2.9792,-3.0093,-3.052,-3.1047,-3.1135,-3.1323,-3.1863,-3.1938,-3.2152,-3.2717,-3.278,-3.2867,-3.3056,-3.3124,-3.3124,-3.3124,-3.3124,0.0,-3.3124,-3.3124,-3.3124,-3.3124,-3.3124,-3.3124,-3.3124,-3.3124,-3.3124,-3.3124,-3.3633,-3.4186,-3.4738,-3.5245,-3.5843,-3.6405,-3.6405,-3.6405,-3.6405,-3.6405,-3.6405,-3.6405,-3.6405,-3.7036,-3.8002,-3.8002,-3.8718,-3.9697,-3.9697,-3.9697,-3.9697,-3.9697,-3.9697,-3.9697,-3.9697,-3.9823,-4.0049,-4.0413,-4.104,-4.1693,-4.2125,-4.2627,-4.2974,-4.2974,-4.2974,-4.2974,-4.2974,-4.2974,-4.2974,-4.2974,-4.2974,-4.2974,-4.2974,-4.2974,-4.2848,-4.2539,-4.2791,-4.2848,-4.2527,-4.2803,-4.2974,-4.2974,-4.2974,-4.2974,-4.2974,-4.2974,-4.2974,-4.2974,-4.2974,-4.2974,-4.2974,-4.2974,-4.2974,-4.2974,-4.2974,-4.2974,-4.2974,-4.2974,-4.2974,-4.2974,-4.2974,-4.2974,0.0,0.0,0.0,0.0,0.0,0.0,-2.7067,0.0,-2.7482,-2.8599,-2.9315,-2.9716,-2.9779,-2.9792,-2.9967,-3.0507,-3.0595,-3.0771,-3.1298,-3.1361,-3.1574,-3.2127,-3.219,-3.2416,-3.3006,-3.3056,-3.3056,-3.3124,-3.3124,-3.3124,-3.3124,-3.3124,-3.3124,-3.3124,-3.3124,-3.3124,-3.3124,-3.3124,-3.3124,-3.3124,-3.3621,-3.4161,-3.4668,-3.5219,-3.5818,-3.638,-3.6405,-3.6405,-3.6405,-3.6405,-3.6405,-3.6405,-3.6405,-3.7036,-3.8002,-3.8002,-3.8718,-3.9697,-3.9697,-3.9697,-3.9697,-3.9697,-3.9697,-3.9697,-3.9697,-4.0074,-4.0513,-4.0538,-4.1317,-4.2213,-4.2225,-4.2627,-4.2974,-4.2974,-4.2974,-4.2974,-4.2974,-4.2974,-4.2974,-4.2974,-4.2974,-4.2974,-4.2974,-4.2974,-4.2974,-4.2949,-4.2949,-4.2949,-4.2949,-4.2949,-4.2961,-4.2974,-4.2974,-4.2974,-4.2974,-4.2974,-4.2974,-4.2974,-4.2974,-4.2974,-4.2974,-4.2974,-4.2974,-4.2974,-4.2974,-4.2974,-4.2974,-4.2974,-4.2974,-4.2974,-4.2974,-4.2974,-1.7209,0.0,0.0,0.0,0.0,0.0,0.0,0.0,-2.4913,-2.7256,-2.7593,-2.7907,-2.949,-2.9792,-2.9842,-2.9993,-3.0018,-3.0206,-3.0758,-3.0834,-3.1022,-3.1549,-3.1625,-3.1838,-3.2403,-3.2453,-3.2629,0.0,-3.3124,-3.3124,-3.3124,-3.3124,-3.3124,-3.3124,-3.3124,-3.3124,-3.3124,-3.3124,-3.3124,-3.3124,-3.3232,-3.3596,-3.4148,-3.47,-3.5207,-3.5793,-3.6194,-3.6405,-3.6405,-3.6405,-3.6405,-3.6405,-3.6405,-3.7036,-3.8002,-3.8002,-3.8718,-3.9697,-3.9697,-3.9697,-3.9697,-3.9697,-3.9697,-3.9697,-3.9697,-4.0074,-4.0601,-4.0949,-4.1618,-4.2301,-4.2703,-4.2861,-4.2974,-4.2974,-4.2974,-4.2974,-4.2974,-4.2974,-4.2974,-4.2974,-4.2974,-4.2974,-4.2974,-4.2974,-4.2848,-4.2502,-4.2439,-4.2439,-4.2439,-4.2439,-4.259,-4.2936,-4.2974,-4.2974,-4.2974,-4.2974,-4.2974,-4.2974,-4.2974,-4.2974,-4.2974,-4.2974,-4.2974,-4.2974,-4.2974,-4.2974,-4.2974,-4.2974,-4.2974,-4.2974,-4.2974,-4.2974,-1.7876,0.0,0.0,0.0,0.0,0.0,-2.2786,-2.3032,-2.3577,0.0,-2.6901,-2.7379,-2.9101,-2.9428,-2.9515,-2.9754,-2.9792,-2.9905,-3.0231,-3.0269,-3.047,-3.0997,-3.1072,-3.1286,-3.1813,-3.1863,-3.2102,-3.2667,-3.2717,-3.2817,-3.3111,-3.3124,-3.3124,-3.3124,-3.3124,-3.3124,-3.3124,-3.3124,-3.3124,-3.3124,-3.3124,-3.337,-3.3922,-3.4474,-3.4981,-3.552,-3.6119,-3.6405,-3.6405,-3.6405,-3.6405,-3.6405,-3.6405,-3.7036,-3.8002,-3.8002,-3.8718,-3.9697,-3.9697,-3.9697,-3.9697,-3.9697,-3.9697,-3.9697,-3.9697,-4.0237,-4.0874,-4.12,-4.1907,-4.2627,-4.2898,-4.2974,-4.2974,-4.2974,-4.2974,-4.2974,-4.2974,-4.2974,-4.2974,-4.2974,-4.2974,-4.2974,-4.2974,-4.2974,-4.2873,-4.2602,-4.2552,-4.2552,-4.2552,-4.2552,-4.2678,-4.2949,-4.2974,-4.2974,-4.2974,-4.2974,-4.2974,-4.2974,-4.2974,-4.2974,-4.2974,-4.2974,-4.2974,-4.2974,-4.2974,-4.2974,-4.2974,-4.2974,-4.2974,-4.2974,-4.2974,-4.2974,-1.8744,-1.8844,0.0,0.0,-2.0338,0.0,-2.3221,-2.3075,-2.2849,0.0,-2.6336,-2.703,-2.8286,-2.8574,-2.8825,-2.934,-2.9578,-2.9716,-2.9779,-2.9792,-2.998,-3.047,-3.052,-3.0733,-3.1248,-3.1298,-3.1537,-3.2077,-3.2177,-3.2441,-3.2955,-3.3043,-3.3124,-3.3124,-3.3124,-3.3124,-3.3124,-3.3124,-3.3124,-3.3124,-3.3124,-3.337,-3.3922,-3.4474,-3.4981,-3.552,-3.6119,-3.6405,-3.6405,-3.6405,-3.6405,-3.6405,-3.6405,-3.7036,-3.8002,-3.8002,-3.8718,-3.9697,-3.9697,-3.9697,-3.9697,-3.9697,-3.9697,-3.9697,-3.9697,-4.0463,-4.1313,-4.1426,-4.2233,-4.2974,-4.2974,-4.2974,-4.2974,-4.2974,-4.2974,-4.2974,-4.2974,-4.2974,-4.2974,-4.2974,-4.2974,-4.2974,-4.2974,-4.2974,-4.2974,-4.2974,-4.2924,-4.2911,-4.2974,-4.2924,-4.2911,-4.2974,-4.2974,-4.2974,-4.2974,-4.2974,-4.2974,-4.2974,-4.2974,-4.2974,-4.2974,-4.2974,-4.2974,-4.2974,-4.2974,-4.2974,-4.2974,-4.2974,-4.2974,-4.2974,-4.2974,-4.2974,-2.0264,-2.0289,-2.0365,-2.03,0.0,0.0,-1.9811,-2.0275,-2.1295,0.0,-2.2548,-2.3364,-2.5799,-2.6628,-2.7014,-2.7128,-2.8222,-2.9264,-2.9729,-2.9792,-2.9829,-2.9942,-2.9955,-3.0168,-3.0708,-3.0771,-3.0984,-3.1512,-3.1964,-3.2265,-3.2378,-3.283,-3.3124,-3.3124,-3.3124,-3.3124,-3.3124,-3.3124,-3.3124,-3.3124,-3.3124,-3.337,-3.3922,-3.4474,-3.4981,-3.552,-3.6119,-3.6405,-3.6405,-3.6405,-3.6405,-3.6405,-3.6405,-3.7036,-3.8002,-3.8002,-3.8718,-3.9697,-3.9697,-3.9697,-3.9697,-3.9697,-3.9697,-3.9697,-3.9697,-4.0463,-4.1463,-4.2409,-4.2811,-4.2974,-4.2974,-4.2974,-4.2974,-4.2974,-4.2974,-4.2974,-4.2974,-4.2974,-4.2974,-4.2974,-4.2974,-4.2974,-4.2974,-4.2974,-4.2974,-4.2974,-4.2652,-4.2527,-4.2924,-4.264,-4.2539,-4.2924,-4.2974,-4.2974,-4.2974,-4.2974,-4.2974,-4.2974,-4.2974,-4.2974,-4.2974,-4.2974,-4.2974,-4.2974,-4.2974,-4.2974,-4.2974,-4.2974,-4.2974,-4.2974,-4.2974,-4.2974,-2.1333,-2.1106,-2.1232,-2.1757,0.0,0.0,0.0,-2.0439,-2.0627,-2.202,-2.187,-2.2246,-2.4745,-2.4983,-2.5172,-2.6311,-2.7394,-2.821,-2.8499,-2.9264,-2.9792,-2.9792,-2.9792,-2.9905,-3.0181,-3.0206,-3.0432,-3.0959,-3.1499,-3.18,-3.18,-3.234,-3.2641,-3.2641,-3.293,-3.3124,-3.3124,-3.3124,-3.3124,-3.3124,-3.3124,-3.337,-3.3922,-3.4474,-3.4981,-3.552,-3.6119,-3.6405,-3.6405,-3.6405,-3.6405,-3.643,-3.6707,-3.7274,-3.804,-3.8329,-3.8969,-3.9697,-3.9697,-3.9697,-3.9697,-3.9697,-3.9697,-3.9697,-3.9697,-4.0463,-4.1514,-4.2672,-4.2974,-4.2974,-4.2974,-4.2974,-4.2974,-4.2974,-4.2974,-4.2974,-4.2974,-4.2974,-4.2974,-4.2974,-4.2974,-4.2974,-4.2974,-4.2974,-4.2974,-4.2974,-4.2791,-4.2728,-4.2949,-4.2791,-4.2728,-4.2949,-4.2974,-4.2974,-4.2974,-4.2974,-4.2974,-4.2974,-4.2974,-4.2974,-4.2974,-4.2974,-4.2974,-4.2974,-4.2974,-4.2974,-4.2974,-4.2974,-4.2974,-4.2974,-4.2974,-4.2974,0.0,0.0,0.0,0.0,0.0,-2.1305,0.0,0.0,0.0,0.0,0.0,0.0,0.0,0.0,0.0,-2.5242,0.0,0.0,0.0,-2.7996,0.0,-2.9277,-2.9591,-2.9741,-2.9641,-2.9428,-2.9628,-3.0407,-3.0645,-3.0896,-3.1223,-3.1851,-3.2215,-3.2215,-3.278,-3.3124,-3.3124,-3.3124,-3.3124,-3.3124,-3.3124,-3.342,-3.4073,-3.4512,-3.5031,-3.5683,-3.6169,-3.6405,-3.6405,-3.6405,-3.6405,-3.6468,-3.6973,-3.7525,-3.8078,-3.8655,-3.922,-3.9697,-3.9697,-3.9697,-3.9697,-3.9697,-3.9772,-3.9873,-3.9986,-4.0701,-4.1706,-4.2698,-4.2974,-4.2974,-4.2974,-4.2974,-4.2974,-4.2974,-4.2974,-4.2974,-4.2974,-4.2974,-4.2974,-4.2974,-4.2974,-4.2974,-4.2974,-4.2974,-4.2974,-4.2974,-4.2974,-4.2974,-4.2974,-4.2974,-4.2974,-4.2974,-4.2974,-4.2974,-4.2974,-4.2974,-4.2974,-4.2974,-4.2974,-4.2974,-4.2974,-4.2974,-4.2974,-4.2974,-4.2974,-4.2974,-4.2974,-4.2974,-4.2974,-4.2974,-4.2974,-4.2974,0.0,0.0,0.0,0.0,-2.4481,0.0,0.0,0.0,-2.1515,-1.9823,0.0,0.0,0.0,0.0,0.0,0.0,0.0,0.0,-2.4443,-2.5347,-2.644,-2.7444,-2.8888,-2.9591,-2.9038,-2.8147,-2.821,-2.9767,-2.9013,-2.9126,-3.062,-3.1662,-3.2215,-3.2215,-3.278,-3.3124,-3.3124,-3.3124,-3.3124,-3.3124,-3.3124,-3.3621,-3.4625,-3.4655,-3.529,-3.6317,-3.638,-3.6405,-3.6405,-3.6405,-3.6405,-3.6468,-3.6973,-3.7525,-3.8078,-3.8655,-3.922,-3.9697,-3.9697,-3.9697,-3.9697,-3.9697,-4.0023,-4.0513,-4.0949,-4.158,-4.2238,-4.2798,-4.2974,-4.2974,-4.2974,-4.2974,-4.2974,-4.2974,-4.2974,-4.2974,-4.2974,-4.2974,-4.2974,-4.2974,-4.2974,-4.2974,-4.2974,-4.2974,-4.2974,-4.2974,-4.2974,-4.2974,-4.2974,-4.2974,-4.2974,-4.2974,-4.2974,-4.2974,-4.2974,-4.2974,-4.2974,-4.2974,-4.2974,-4.2974,-4.2974,-4.2974,-4.2974,-4.2974,-4.2974,-4.2974,-4.2974,-4.2974,-4.2974,-4.2974,-4.2974,-4.2974,0.0,0.0,0.0,0.0,0.0,0.0,-2.1453,0.0,-2.069,0.0,0.0,0.0,0.0,0.0,0.0,0.0,-2.2548,0.0,0.0,0.0,-2.5197,0.0,0.0,0.0,-2.7908,-2.7557,-2.802,-2.9666,-2.8448,-2.836,-3.0043,-3.0871,-3.1424,-3.1725,-3.2277,-3.2742,-3.3124,-3.3124,-3.3124,-3.3124,-3.3124,-3.3658,-3.468,-3.468,-3.5328,-3.6405,-3.6405,-3.6405,-3.6405,-3.6405,-3.6405,-3.6493,-3.7324,-3.7801,-3.8115,-3.9019,-3.9496,-3.9697,-3.9697,-3.9697,-3.9697,-3.9697,-4.0061,-4.0626,-4.1125,-4.1718,-4.2326,-4.2879,-4.2974,-4.2974,-4.2974,-4.2974,-4.2974,-4.2974,-4.2974,-4.2974,-4.2974,-4.2974,-4.2974,-4.2974,-4.2974,-4.2974,-4.2974,-4.2974,-4.2974,-4.2974,-4.2974,-4.2974,-4.2974,-4.2974,-4.2974,-4.2974,-4.2974,-4.2974,-4.2974,-4.2974,-4.2974,-4.2974,-4.2974,-4.2974,-4.2974,-4.2974,-4.2974,-4.2974,-4.2974,-4.2974,-4.2974,-4.2974,-4.2974,-4.2974,-4.2974,-4.2974,-2.763,0.0,0.0,0.0,0.0,0.0,0.0,0.0,0.0,0.0,0.0,0.0,0.0,0.0,0.0,0.0,0.0,-2.2071,0.0,-2.2184,0.0,0.0,0.0,0.0,0.0,-2.6502,-2.703,-2.9164,-2.7645,-2.7544,-2.9679,-3.0319,-3.0859,-3.1373,-3.1926,-3.2491,-3.3111,-3.3124,-3.3124,-3.3124,-3.3232,-3.3796,-3.468,-3.4831,-3.5466,-3.6405,-3.6405,-3.6405,-3.6405,-3.6405,-3.6405,-3.6518,-3.7575,-3.8002,-3.814,-3.9283,-3.9697,-3.9697,-3.9697,-3.9697,-3.9722,-3.9873,-4.0287,-4.0852,-4.1392,-4.1944,-4.2527,-4.2861,-4.2974,-4.2974,-4.2974,-4.2974,-4.2974,-4.2974,-4.2974,-4.2974,-4.2974,-4.2974,-4.2974,-4.2974,-4.2974,-4.3024,-4.3175,-4.3074,-4.2974,-4.2974,-4.2974,-4.2974,-4.2974,-4.2974,-4.2974,-4.2974,-4.2974,-4.2974,-4.2974,-4.2974,-4.2974,-4.2974,-4.2974,-4.2974,-4.2974,-4.2974,-4.2974,-4.2974,-4.2974,-4.2974,-4.2974,-4.2974,-4.2974,-4.2974,-4.2974,-4.2974,0.0,0.0,0.0,-2.5661,0.0,0.0,0.0,0.0,-2.2083,0.0,0.0,0.0,0.0,0.0,0.0,0.0,0.0,0.0,0.0,0.0,0.0,0.0,0.0,0.0,0.0,-2.4531,-2.46,0.0,-2.6138,-2.6327,-2.9616,-3.0319,-3.0859,-3.1373,-3.1926,-3.2491,-3.3111,-3.3124,-3.3124,-3.3124,-3.3621,-3.4173,-3.4738,-3.5232,-3.583,-3.6405,-3.6405,-3.6405,-3.6405,-3.6405,-3.6405,-3.6518,-3.7575,-3.8002,-3.814,-3.9283,-3.9697,-3.9697,-3.9697,-3.9697,-3.9785,-4.0325,-4.0865,-4.1417,-4.1969,-4.2577,-4.2949,-4.2974,-4.2974,-4.2974,-4.2974,-4.2974,-4.2974,-4.2974,-4.2974,-4.2974,-4.2974,-4.2974,-4.2974,-4.2974,-4.2974,-4.315,-4.3677,-4.3325,-4.2974,-4.2974,-4.2974,-4.2974,-4.2974,-4.2974,-4.2974,-4.2974,-4.2974,-4.2974,-4.2974,-4.2974,-4.2974,-4.2974,-4.2974,-4.2974,-4.2974,-4.2974,-4.2974,-4.2974,-4.2974,-4.2974,-4.2974,-4.2974,-4.2974,-4.2974,-4.2974,-4.2974,0.0,0.0,-2.9804,-2.7557,0.0,0.0,0.0,0.0,0.0,0.0,0.0,0.0,0.0,0.0,0.0,0.0,0.0,0.0,0.0,0.0,0.0,0.0,0.0,0.0,0.0,0.0,0.0,-2.7394,-2.654,0.0,-2.9654,-2.9967,-3.0482,-3.1361,-3.1574,-3.2114,-3.3111,-3.3124,-3.3124,-3.3124,-3.3633,-3.4186,-3.4738,-3.5245,-3.5843,-3.6405,-3.6405,-3.6405,-3.6405,-3.6405,-3.6619,-3.6973,-3.7713,-3.8241,-3.8668,-3.9421,-3.9697,-3.9697,-3.9697,-3.9936,-4.0275,-4.0463,-4.1128,-4.1907,-4.215,-4.259,-4.2974,-4.2974,-4.2974,-4.2974,-4.2974,-4.2974,-4.2974,-4.2974,-4.2974,-4.2974,-4.2974,-4.2974,-4.3087,-4.3451,-4.3526,-4.3689,-4.4254,-4.4192,-4.4066,-4.4066,-4.3765,-4.3526,-4.3526,-4.3526,-4.3526,-4.3526,-4.3526,-4.3664,-4.4041,-4.3727,-4.3363,-4.2999,-4.2974,-4.2974,-4.2974,-4.2974,-4.2974,-4.2974,-4.2974,-4.2974,-4.2974,-4.2974,-4.2974,-4.2974,-4.2974,-4.2974,-3.0796,-3.0884,0.0,-2.8812,-2.7582,0.0,-2.3991,0.0,0.0,0.0,0.0,0.0,0.0,0.0,0.0,0.0,0.0,0.0,0.0,-1.8268,0.0,0.0,0.0,0.0,0.0,0.0,-2.4356,-2.6839,-2.6147,-2.6728,0.0,-2.9679,-3.0281,-3.1361,-3.1386,-3.1926,-3.3111,-3.3124,-3.3124,-3.3124,-3.3834,-3.4374,-3.4751,-3.5504,-3.6031,-3.6405,-3.6405,-3.6405,-3.6405,-3.6405,-3.6732,-3.7236,-3.7789,-3.8366,-3.8931,-3.9484,-3.9697,-3.9697,-3.9697,-4.0061,-4.0551,-4.0752,-4.1417,-4.225,-4.2439,-4.2753,-4.2974,-4.2974,-4.2974,-4.2974,-4.2974,-4.2974,-4.2974,-4.2974,-4.2974,-4.3037,-4.3225,-4.3275,-4.3426,-4.3991,-4.4091,-4.4267,-4.4832,-4.4756,-4.4618,-4.4618,-4.4317,-4.4091,-4.4091,-4.4091,-4.4091,-4.4091,-4.4091,-4.4229,-4.4593,-4.4292,-4.394,-4.3589,-4.3564,-4.3564,-4.3564,-4.3564,-4.3564,-4.3564,-4.3376,-4.3275,-4.3275,-4.3074,-4.2974,-4.2974,-4.2974,-4.2974]},{"header":{"parameterUnit":"m.s-1","parameterCategory":1,"la1":30.6,"la2":29.2853,"lo1":-89.7004,"lo2":-87.6739,"dy":0.0162,"dx":0.0183,"nx":112,"ny":82,"refTime":"2026-03-03T00:00:00:Z","depth":0,"parameterNumber":3,"parameterNumberName":"V-component_of_WINDS"},"data":[0.0,0.0,0.0,0.0,0.0,0.0,0.0,0.0,0.0,0.0,0.0,0.0,0.0,0.0,0.0,0.0,0.0,0.0,0.0,0.0,0.0,0.0,0.0,0.0,0.0,0.0,0.0,0.0,0.0,0.0,0.0,0.0,0.0,0.0,0.0,0.0,0.0,0.0,0.0,0.0,0.0,0.0,0.0,0.0,0.0,0.0,0.0,0.0,0.0,0.0,0.0,0.0,0.0,0.0,0.0,0.0,0.0,0.0,0.0,0.0,0.0,0.0,0.0,0.0,0.0,0.0,0.0,0.0,0.0,0.0,0.0,0.0,0.0,0.0,0.0,0.0,0.0,0.0,0.0,0.0,0.0,0.0,0.0,0.0,0.0,0.0,0.0,0.0,0.0,0.0,2.0619,2.3065,2.5344,2.6437,2.5828,2.5558,2.4323,2.1698,0.0,0.0,0.0,0.0,0.0,0.0,0.0,0.0,0.0,0.0,0.0,0.0,0.0,0.0,0.0,0.0,0.0,0.0,0.0,0.0,0.0,0.0,0.0,0.0,0.0,0.0,0.0,0.0,0.0,0.0,0.0,0.0,0.0,0.0,0.0,0.0,0.0,0.0,0.0,0.0,0.0,0.0,0.0,0.0,0.0,0.0,0.0,0.0,0.0,0.0,0.0,0.0,0.0,0.0,0.0,0.0,0.0,0.0,0.0,0.0,0.0,0.0,0.0,0.0,0.0,0.0,0.0,0.0,0.0,0.0,0.0,0.0,0.0,0.0,0.0,0.0,0.0,0.0,0.0,0.0,0.0,0.0,0.0,0.0,0.0,0.0,0.0,0.0,0.0,0.0,0.0,0.0,0.0,0.0,0.0,0.0,0.0,0.0,0.0,0.0,0.0,0.0,0.0,0.0,2.1103,2.4787,2.61,2.664,2.6539,2.5388,2.422,2.3122,0.0,0.0,0.0,0.0,0.0,0.0,0.0,0.0,0.0,0.0,0.0,0.0,0.0,0.0,0.0,0.0,0.0,0.0,0.0,0.0,0.0,0.0,0.0,0.0,0.0,0.0,0.0,0.0,0.0,0.0,0.0,0.0,0.0,0.0,0.0,0.0,0.0,0.0,0.0,0.0,0.0,0.0,0.0,0.0,0.0,0.0,0.0,0.0,0.0,0.0,0.0,0.0,0.0,0.0,0.0,0.0,0.0,0.0,0.0,0.0,0.0,0.0,0.0,0.0,0.0,0.0,0.0,0.0,0.0,0.0,0.0,0.0,0.0,0.0,0.0,0.0,0.0,0.0,0.0,0.0,0.0,0.0,0.0,0.0,0.0,0.0,0.0,0.0,0.0,0.0,0.0,0.0,0.0,0.0,0.0,0.0,0.0,0.0,0.0,0.0,0.0,0.0,0.0,2.0715,2.2716,2.5322,2.6251,2.6691,2.6691,2.571,2.4441,2.2902,2.0657,0.0,0.0,0.0,0.0,0.0,0.0,0.0,0.0,0.0,0.0,0.0,0.0,0.0,0.0,0.0,0.0,0.0,0.0,0.0,0.0,0.0,0.0,0.0,0.0,0.0,0.0,0.0,0.0,0.0,0.0,0.0,0.0,0.0,0.0,0.0,0.0,0.0,0.0,0.0,0.0,0.0,0.0,0.0,0.0,0.0,0.0,0.0,0.0,0.0,0.0,0.0,0.0,0.0,0.0,0.0,0.0,0.0,0.0,0.0,0.0,0.0,0.0,0.0,0.0,0.0,0.0,0.0,0.0,0.0,0.0,0.0,0.0,0.0,0.0,0.0,0.0,0.0,0.0,0.0,0.0,0.0,0.0,0.0,0.0,0.0,0.0,0.0,0.0,0.0,0.0,0.0,0.0,0.0,0.0,0.0,0.0,0.0,0.0,0.0,0.0,0.0,0.0,2.3105,2.4222,2.571,2.6353,2.6691,2.6691,2.571,2.4289,2.2415,1.9824,0.0,0.0,0.0,0.0,0.0,0.0,0.0,0.0,0.0,0.0,0.0,0.0,0.0,0.0,0.0,0.0,0.0,0.0,0.0,0.0,0.0,0.0,0.0,0.0,0.0,0.0,0.0,0.0,0.0,0.0,0.0,0.0,0.0,0.0,0.0,0.0,0.0,0.0,0.0,0.0,0.0,0.0,0.0,0.0,0.0,0.0,0.0,0.0,0.0,0.0,0.0,0.0,0.0,0.0,0.0,0.0,0.0,0.0,0.0,0.0,0.0,0.0,0.0,0.0,0.0,0.0,0.0,0.0,0.0,0.0,0.0,0.0,0.0,0.0,0.0,0.0,0.0,0.0,0.0,0.0,0.0,0.0,0.0,0.0,0.0,0.0,0.0,0.0,0.0,0.0,0.0,0.0,0.0,0.0,0.0,0.0,0.0,0.0,0.0,0.0,0.0,0.0,2.3528,2.4982,2.6471,2.6657,2.6691,2.6691,2.4763,2.319,2.2347,1.8872,0.0,0.0,0.0,0.0,0.0,0.0,0.0,0.0,0.0,0.0,0.0,0.0,0.0,0.0,0.0,0.0,0.0,0.0,0.0,0.0,0.0,0.0,0.0,0.0,0.0,0.0,0.0,0.0,0.0,0.0,0.0,0.0,0.0,0.0,0.0,0.0,0.0,0.0,0.0,0.0,0.0,0.0,0.0,0.0,0.0,0.0,0.0,0.0,0.0,0.0,0.0,0.0,0.0,0.0,0.0,0.0,0.0,0.0,0.0,0.0,0.0,0.0,0.0,0.0,0.0,0.0,0.0,0.0,0.0,0.0,0.0,0.0,0.0,0.0,0.0,0.0,0.0,0.0,0.0,0.0,0.0,0.0,0.0,0.0,0.0,0.0,0.0,0.0,0.0,0.0,0.0,0.0,0.0,0.0,0.0,0.0,0.0,0.0,0.0,0.0,0.0,0.0,2.319,2.4558,0.0,2.6691,2.6691,2.6691,2.5524,2.4054,2.2398,0.0,0.0,0.0,0.0,0.0,0.0,0.0,0.0,0.0,0.0,0.0,0.0,0.0,0.0,0.0,0.0,0.0,0.0,0.0,0.0,0.0,0.0,0.0,0.0,0.0,0.0,0.0,0.0,0.0,0.0,0.0,0.0,0.0,0.0,0.0,0.0,0.0,0.0,0.0,0.0,0.0,0.0,0.0,0.0,0.0,0.0,0.0,0.0,0.0,0.0,0.0,0.0,0.0,0.0,0.0,0.0,0.0,0.0,0.0,0.0,0.0,0.0,0.0,0.0,0.0,0.0,0.0,0.0,0.0,0.0,0.0,0.0,0.0,0.0,0.0,0.0,0.0,0.0,0.0,0.0,0.0,0.0,0.0,0.0,0.0,0.0,0.0,0.0,0.0,0.0,0.0,0.0,0.0,0.0,0.0,0.0,0.0,0.0,0.0,0.0,0.0,0.0,2.1874,2.3359,2.4763,0.0,2.6691,2.6691,2.6691,2.5592,2.4171,2.2398,0.0,0.0,0.0,0.0,0.0,0.0,0.0,0.0,0.0,0.0,0.0,0.0,0.0,0.0,0.0,0.0,0.0,0.0,0.0,0.0,0.0,0.0,0.0,0.0,0.0,0.0,0.0,0.0,0.0,0.0,0.0,0.0,0.0,0.0,0.0,0.0,0.0,0.0,0.0,0.0,0.0,0.0,0.0,0.0,0.0,0.0,0.0,0.0,0.0,0.0,0.0,0.0,0.0,0.0,0.0,0.0,0.0,0.0,0.0,0.0,0.0,0.0,0.0,0.0,0.0,0.0,0.0,0.0,0.0,0.0,0.0,0.0,0.0,0.0,0.0,0.0,0.0,0.0,0.0,0.0,0.0,0.0,0.0,0.0,0.0,0.0,0.0,0.0,0.0,0.0,0.0,0.0,0.0,0.0,0.0,0.0,0.0,0.0,0.0,0.0,0.0,0.0,2.2009,2.4223,2.5879,2.6623,2.6691,2.6691,2.6691,2.4678,2.3088,0.0,0.0,0.0,0.0,0.0,0.0,0.0,0.0,0.0,0.0,0.0,0.0,0.0,0.0,0.0,0.0,0.0,0.0,0.0,0.0,0.0,0.0,0.0,0.0,0.0,0.0,0.0,0.0,0.0,0.0,0.0,0.0,0.0,0.0,0.0,0.0,0.0,0.0,0.0,0.0,0.0,0.0,0.0,0.0,0.0,0.0,0.0,0.0,0.0,0.0,0.0,0.0,0.0,0.0,0.0,0.0,0.0,0.0,0.0,0.0,0.0,0.0,0.0,0.0,0.0,0.0,0.0,0.0,0.0,0.0,0.0,0.0,0.0,0.0,0.0,0.0,0.0,0.0,0.0,0.0,0.0,0.0,0.0,0.0,0.0,0.0,0.0,0.0,0.0,0.0,0.0,0.0,0.0,0.0,0.0,0.0,0.0,0.0,0.0,0.0,0.0,0.0,0.0,2.2009,2.4223,2.5879,2.6623,2.6691,2.6691,2.6691,2.5151,2.3644,2.2381,0.0,0.0,0.0,0.0,0.0,0.0,0.0,0.0,0.0,0.0,0.0,0.0,0.0,0.0,0.0,0.0,0.0,0.0,0.0,0.0,0.0,0.0,0.0,0.0,0.0,0.0,0.0,0.0,0.0,0.0,0.0,0.0,0.0,0.0,0.0,0.0,0.0,0.0,0.0,0.0,0.0,0.0,0.0,0.0,0.0,0.0,0.0,0.0,0.0,0.0,0.0,0.0,0.0,0.0,0.0,0.0,0.0,0.0,0.0,0.0,0.0,0.0,0.0,0.0,0.0,0.0,0.0,0.0,0.0,0.0,0.0,0.0,0.0,0.0,0.0,0.0,0.0,0.0,0.0,0.0,0.0,0.0,0.0,0.0,0.0,0.0,0.0,0.0,0.0,0.0,0.0,0.0,0.0,0.0,0.0,0.0,0.0,0.0,0.0,0.0,0.0,0.0,2.2043,2.4747,2.664,2.7097,2.7148,2.7148,2.7148,2.5523,2.3881,2.2381,0.0,0.0,0.0,0.0,0.0,0.0,0.0,0.0,0.0,0.0,0.0,0.0,0.0,0.0,0.0,0.0,0.0,0.0,0.0,0.0,0.0,0.0,0.0,0.0,0.0,0.0,0.0,0.0,0.0,0.0,0.0,0.0,0.0,0.0,0.0,0.0,0.0,0.0,0.0,0.0,0.0,0.0,0.0,0.0,0.0,0.0,0.0,0.0,0.0,0.0,0.0,0.0,0.0,0.0,0.0,0.0,0.0,0.0,0.0,0.0,0.0,0.0,0.0,0.0,0.0,0.0,0.0,0.0,0.0,0.0,0.0,0.0,0.0,0.0,0.0,0.0,0.0,0.0,0.0,0.0,0.0,0.0,0.0,0.0,0.0,0.0,0.0,0.0,0.0,0.0,0.0,0.0,0.0,0.0,0.0,0.0,0.0,0.0,0.0,0.0,0.0,0.0,2.2279,2.5609,2.7824,2.7908,2.7908,2.7874,2.7807,2.5896,2.4051,2.2499,0.0,0.0,0.0,0.0,0.0,0.0,0.0,0.0,0.0,0.0,0.0,0.0,0.0,0.0,0.0,0.0,0.0,0.0,0.0,0.0,0.0,0.0,0.0,0.0,0.0,0.0,0.0,0.0,0.0,0.0,0.0,0.0,0.0,0.0,0.0,0.0,0.0,0.0,0.0,0.0,0.0,0.0,0.0,0.0,0.0,0.0,0.0,0.0,0.0,0.0,0.0,0.0,0.0,0.0,0.0,0.0,0.0,0.0,0.0,0.0,2.5564,0.0,0.0,0.0,0.0,0.0,0.0,0.0,0.0,0.0,0.0,0.0,0.0,0.0,0.0,0.0,0.0,0.0,0.0,0.0,0.0,0.0,0.0,0.0,0.0,0.0,0.0,0.0,0.0,0.0,0.0,0.0,0.0,0.0,0.0,0.0,0.0,0.0,0.0,0.0,0.0,0.0,2.3678,2.6251,2.8043,2.867,2.8756,2.8484,2.7858,2.6843,2.5338,2.3291,2.0876,0.0,0.0,0.0,0.0,0.0,0.0,0.0,0.0,0.0,0.0,0.0,0.0,0.0,0.0,0.0,0.0,0.0,0.0,0.0,0.0,0.0,0.0,0.0,0.0,0.0,0.0,0.0,0.0,0.0,0.0,0.0,0.0,0.0,0.0,0.0,0.0,0.0,0.0,0.0,0.0,0.0,0.0,0.0,0.0,0.0,0.0,0.0,0.0,0.0,0.0,0.0,0.0,0.0,0.0,0.0,0.0,0.0,0.0,0.0,0.0,2.764,0.0,0.0,0.0,0.0,0.0,0.0,0.0,0.0,0.0,0.0,0.0,0.0,0.0,0.0,0.0,0.0,0.0,0.0,0.0,0.0,0.0,0.0,0.0,0.0,0.0,0.0,0.0,0.0,0.0,0.0,0.0,0.0,0.0,0.0,0.0,0.0,0.0,0.0,0.0,0.0,2.4152,2.6759,2.867,2.9448,2.9533,2.9364,2.8939,2.7554,2.6065,2.456,2.2023,0.0,0.0,0.0,0.0,0.0,0.0,0.0,0.0,0.0,0.0,0.0,0.0,0.0,0.0,0.0,0.0,0.0,0.0,0.0,0.0,0.0,0.0,0.0,0.0,0.0,0.0,0.0,0.0,0.0,0.0,0.0,0.0,0.0,0.0,0.0,0.0,0.0,0.0,0.0,0.0,0.0,0.0,0.0,0.0,0.0,0.0,0.0,0.0,0.0,0.0,0.0,0.0,0.0,3.3466,3.4381,3.4146,3.5666,3.6445,3.6411,3.3372,3.2173,3.2162,2.9406,0.0,0.0,0.0,0.0,0.0,0.0,0.0,0.0,0.0,0.0,0.0,0.0,0.0,0.0,0.0,0.0,0.0,0.0,0.0,0.0,0.0,0.0,0.0,0.0,2.889,2.8163,2.3712,0.0,0.0,0.0,0.0,0.0,0.0,0.0,0.0,0.0,0.0,0.0,2.4592,2.7419,2.9465,3.0226,3.0294,3.0243,3.0106,2.8383,2.686,2.5862,2.3376,2.0953,0.0,0.0,0.0,0.0,0.0,0.0,0.0,0.0,0.0,0.0,0.0,0.0,0.0,0.0,0.0,0.0,0.0,0.0,0.0,0.0,0.0,0.0,0.0,0.0,0.0,0.0,0.0,0.0,0.0,0.0,0.0,0.0,2.2272,2.3073,0.0,0.0,0.0,0.0,0.0,0.0,0.0,0.0,0.0,0.0,0.0,0.0,0.0,3.0524,3.1284,3.4492,3.6108,3.6199,3.8236,3.9192,3.9167,3.9386,3.9851,4.0443,3.9952,0.0,3.4958,3.3271,0.0,0.0,0.0,0.0,0.0,0.0,0.0,0.0,0.0,0.0,0.0,0.0,0.0,0.0,0.0,0.0,0.0,0.0,0.0,0.0,0.0,0.0,3.0514,3.07,3.0818,3.0548,0.0,2.6522,2.3831,2.2043,2.0792,0.0,0.0,0.0,0.0,0.0,0.0,0.0,2.6132,2.8484,3.0243,3.097,3.1055,3.0801,3.014,2.9818,2.8772,2.6691,2.5592,2.402,2.1789,2.042,0.0,0.0,0.0,0.0,0.0,0.0,0.0,0.0,0.0,0.0,0.0,0.0,0.0,0.0,0.0,0.0,0.0,0.0,0.0,0.0,0.0,0.0,0.0,0.0,0.0,0.0,0.0,0.0,0.0,2.167,2.3817,2.3875,2.4795,2.4907,0.0,0.0,0.0,0.0,0.0,0.0,0.0,0.0,0.0,3.1957,3.3839,3.5188,3.5928,3.8238,3.9613,4.0059,4.1336,4.2175,4.2625,4.2634,4.2821,4.3098,4.3098,4.1931,3.9758,3.7036,3.4861,3.2996,0.0,0.0,0.0,0.0,3.0683,3.0615,3.2682,3.3106,3.2577,3.1732,0.0,0.0,0.0,0.0,0.0,0.0,0.0,0.0,0.0,0.0,3.3254,3.4155,3.4358,3.4117,3.3351,3.1258,2.8552,0.0,2.4561,2.353,2.0792,0.0,0.0,0.0,0.0,2.5456,2.7706,2.9228,3.0378,3.1123,3.119,3.1072,3.0751,3.0345,2.9685,2.867,2.7114,2.5609,2.4206,2.2702,2.0653,0.0,0.0,0.0,0.0,0.0,0.0,0.0,0.0,0.0,0.0,0.0,0.0,0.0,0.0,0.0,0.0,0.0,0.0,0.0,0.0,0.0,0.0,0.0,0.0,0.0,0.0,0.0,0.0,2.3343,2.5389,2.5174,2.7087,2.7572,0.0,0.0,0.0,0.0,0.0,0.0,3.2016,3.366,3.5064,3.618,3.8041,3.9377,4.0121,4.1424,4.2337,4.2895,4.3436,4.4012,4.4615,4.4615,4.4615,4.4615,4.4615,4.4248,4.3453,4.0121,3.7973,3.6552,3.4506,3.3292,3.278,3.4083,3.4083,3.38,3.6254,3.6688,3.6039,3.5131,3.4455,3.3525,3.1142,0.0,0.0,0.0,0.0,3.1698,3.3744,3.4675,3.5419,3.6755,3.7083,3.6907,3.6309,3.5182,3.3,0.0,2.8146,2.7384,2.424,0.0,0.0,0.0,0.0,2.7368,2.9059,3.026,3.1089,3.1427,3.1481,3.1413,3.1207,3.07,3.0311,3.0106,2.8518,2.7063,2.593,2.4831,2.2818,1.9824,0.0,0.0,0.0,0.0,0.0,0.0,0.0,0.0,0.0,0.0,0.0,0.0,0.0,0.0,0.0,0.0,0.0,0.0,0.0,0.0,0.0,0.0,0.0,0.0,0.0,0.0,0.0,0.0,0.0,2.797,3.0389,0.0,0.0,0.0,0.0,3.1864,3.2709,3.4416,3.7364,3.7618,3.865,4.0798,4.1644,4.2439,4.3156,4.3995,4.4462,4.4479,4.453,4.4564,4.4615,4.4615,4.4615,4.4615,4.4615,4.4581,4.4378,4.1999,4.0578,3.9723,3.821,3.7161,3.6609,3.7398,3.7212,3.6711,3.755,3.7821,3.7889,3.8514,3.7263,3.5329,3.4472,3.3258,0.0,0.0,3.3744,3.4624,3.622,3.666,3.6897,3.7669,3.7838,3.7838,3.7804,3.7178,3.5509,0.0,3.0446,2.9447,2.7807,0.0,2.7334,2.664,2.845,2.9922,3.0021,3.1918,3.2983,3.2327,3.2242,3.1972,3.1258,3.1157,3.0852,3.0142,2.9987,2.8941,2.6725,2.6573,2.5135,2.2178,2.069,0.0,0.0,0.0,0.0,0.0,0.0,0.0,0.0,0.0,0.0,0.0,0.0,0.0,0.0,0.0,0.0,0.0,0.0,0.0,0.0,0.0,0.0,0.0,0.0,0.0,0.0,0.0,0.0,3.1572,3.4181,0.0,3.2767,3.366,3.4827,3.5825,3.7043,3.8396,3.9952,4.0933,4.1786,4.2608,4.3369,4.3893,4.4164,4.4925,4.5314,4.5314,4.5771,4.6007,4.6007,4.6007,4.6007,4.5974,4.55,4.5314,4.5162,4.3369,4.2472,4.2117,4.1119,4.0561,4.0358,4.0629,4.0561,4.0383,4.0629,4.0426,3.9918,3.9225,3.8125,3.7019,3.6772,3.6315,3.6062,3.6789,3.7178,3.7618,3.8657,3.8928,3.8996,3.9266,3.9334,3.9174,3.87,3.8396,3.7669,3.5859,3.4117,3.2307,3.0328,3.0378,3.0446,2.9702,3.0683,3.1681,3.2171,3.2916,3.3305,3.3034,3.3,3.2696,3.1972,3.1921,3.1599,3.0852,2.9922,2.9025,2.8214,2.7233,2.5541,2.3054,2.2479,2.0471,0.0,0.0,0.0,0.0,0.0,0.0,0.0,0.0,0.0,0.0,0.0,0.0,0.0,0.0,0.0,0.0,0.0,0.0,0.0,0.0,0.0,0.0,0.0,0.0,0.0,0.0,3.3083,3.4515,3.7016,3.7855,3.5842,3.7246,3.8582,3.9326,4.0502,4.1533,4.2303,4.3267,4.3927,4.4181,4.4688,4.5077,4.5359,4.5821,4.6075,4.6075,4.6566,4.6786,4.6786,4.6786,4.6786,4.6769,4.6278,4.6075,4.5974,4.4705,4.417,4.4096,4.3064,4.2675,4.2675,4.2675,4.2506,4.2286,4.2286,4.1982,4.1373,4.0138,3.9411,3.8971,3.8717,3.8633,3.8734,3.9225,3.9385,3.9486,3.9977,4.0096,4.0096,4.0096,4.0096,3.9977,3.9486,3.9385,3.914,3.8413,3.6654,3.4709,3.2983,3.2882,3.2801,3.2053,3.2581,3.3224,3.3711,3.3998,3.4066,3.3795,3.3778,3.3372,3.2378,3.2293,3.1989,3.1241,3.004,2.9264,2.901,2.752,2.5794,2.3814,2.3052,2.1295,1.8527,0.0,0.0,0.0,0.0,0.0,0.0,0.0,0.0,0.0,0.0,0.0,0.0,0.0,0.0,0.0,0.0,0.0,0.0,0.0,0.0,0.0,0.0,0.0,3.0904,3.2751,3.4821,3.6715,3.8894,3.9673,3.821,4.0037,4.1593,4.2303,4.3031,4.3792,4.4564,4.4632,4.4942,4.5686,4.572,4.6075,4.6786,4.6802,4.6819,4.6819,4.6853,4.6853,4.6853,4.6853,4.6853,4.6853,4.6836,4.6819,4.6769,4.6041,4.5737,4.5585,4.4035,4.3426,4.3426,4.3426,4.2997,4.2354,4.2337,4.232,4.2202,4.1474,4.1238,4.1102,4.04,4.0146,4.013,4.013,4.013,4.0096,4.0096,4.0096,4.0096,4.0096,4.0096,4.0096,4.0096,4.0096,3.9893,3.9157,3.7879,3.6626,3.5802,3.5081,3.4353,3.3626,3.4117,0.0,3.4523,3.5165,3.5329,3.4607,3.4523,3.3952,3.2496,3.2344,3.2005,3.1241,3.0497,2.9753,2.9027,2.752,2.6031,2.4558,2.2375,2.0873,2.0069,0.0,0.0,0.0,0.0,0.0,0.0,0.0,0.0,0.0,0.0,0.0,0.0,0.0,0.0,0.0,0.0,0.0,0.0,0.0,0.0,0.0,3.0693,3.2762,3.3009,3.6224,3.8904,3.9885,4.2008,4.2963,4.1972,4.2963,4.3768,4.3955,4.4175,4.4378,4.4598,4.5094,4.55,4.5703,4.621,4.6583,4.6786,4.7344,4.7614,4.7614,4.8139,4.8392,4.8392,4.8392,4.8392,4.8376,4.7834,4.7614,4.7547,4.6802,4.6498,4.6346,4.484,4.4265,4.4265,4.4265,4.4158,4.3887,4.3301,4.3115,4.298,4.2236,4.1999,4.1948,4.1745,4.1305,4.0899,4.0899,4.0493,4.0096,4.0096,4.0096,4.0096,4.0096,4.0096,4.0096,4.0096,4.0096,4.0045,3.9842,3.9046,3.8142,3.7415,3.711,3.6705,3.5977,3.6051,0.0,3.5363,3.5464,3.5515,3.5312,3.5295,3.4928,3.3986,3.3406,3.2544,3.1275,3.0025,2.9213,2.901,2.752,2.6251,2.5321,2.3646,2.2412,0.0,0.0,0.0,0.0,0.0,0.0,0.0,0.0,0.0,0.0,0.0,0.0,0.0,0.0,0.0,0.0,0.0,0.0,0.0,0.0,0.0,0.0,3.427,3.6629,3.6518,3.8631,4.0802,4.2429,4.3487,4.4045,4.3927,4.4344,4.4615,4.4615,4.4902,4.5043,4.5043,4.5754,4.6312,4.6616,4.7039,4.7411,4.7716,4.8156,4.8376,4.8376,4.8798,4.9001,4.9001,4.9001,4.9001,4.8984,4.8562,4.8376,4.8308,4.7564,4.7259,0.0,0.0,0.0,0.0,0.0,4.4615,4.4547,4.4062,4.391,4.3775,4.3014,4.276,4.2709,4.2388,4.1999,4.166,4.166,4.1339,4.0959,4.0629,4.0544,4.0485,4.018,4.0096,4.0096,4.0096,4.0096,4.0096,4.0096,3.9757,0.0,3.8886,3.8311,3.7753,3.7313,3.7015,3.6643,3.6163,3.5825,3.56,3.56,3.56,3.5295,3.4556,3.3829,0.0,0.0,0.0,2.9025,2.8079,2.7182,0.0,0.0,0.0,0.0,0.0,0.0,0.0,0.0,2.1637,2.1468,0.0,0.0,0.0,0.0,0.0,0.0,0.0,0.0,0.0,0.0,0.0,0.0,0.0,0.0,0.0,0.0,3.8075,4.1068,4.0654,4.0519,4.1422,4.4002,4.3855,4.3815,4.4491,4.4677,4.4767,4.4852,4.5346,4.5706,4.5838,0.0,0.0,0.0,0.0,4.825,4.9001,4.8909,4.8909,4.9001,4.9001,4.9001,4.9001,4.9001,4.9001,4.9001,4.9001,4.9001,4.8951,4.8308,4.7973,4.7753,4.638,4.5821,4.5737,4.5077,4.4852,4.4852,4.475,0.0,0.0,4.3792,4.3527,4.342,4.276,4.2489,4.2422,4.2422,4.2354,4.2151,4.1491,4.1322,4.1136,4.0417,4.0231,4.0197,4.013,4.0096,4.0096,4.0096,4.0096,4.0096,4.0096,3.9005,3.8125,3.8041,3.7466,3.6998,3.6829,3.618,3.5701,3.56,0.0,0.0,3.4675,3.3947,3.3203,3.2479,3.1123,2.9397,2.7283,2.7283,2.7283,2.7199,2.7199,2.7893,2.9247,2.9247,2.9297,2.9264,2.5033,2.4154,0.0,0.0,0.0,0.0,0.0,0.0,0.0,0.0,0.0,0.0,0.0,0.0,0.0,0.0,0.0,3.7367,3.9766,4.1796,4.347,4.3183,4.2734,4.2659,4.3664,4.4394,4.4431,4.5085,4.5737,4.6312,4.5818,4.5779,4.6553,4.6572,4.6976,4.7872,4.7756,4.8092,4.9001,4.8257,4.8257,4.9001,0.0,0.0,4.9001,4.9001,4.9001,4.9001,4.9001,4.9001,4.8984,4.8849,4.8443,4.7804,4.6938,4.6583,4.6566,4.6413,4.6363,4.6278,4.5686,4.5483,4.5365,4.4604,4.4378,4.4333,4.4209,4.369,0.0,4.32,4.276,4.2252,4.2117,4.2083,4.1897,4.1153,4.0984,4.0815,4.0231,4.0096,4.0096,4.0096,4.0096,4.0096,4.0096,3.9859,3.9462,3.887,3.8667,3.8149,3.6948,3.666,3.6315,3.5667,3.56,3.5532,3.5397,3.4709,3.3964,3.3237,3.2357,3.1413,3.0362,3.0905,3.0939,3.0328,3.0328,3.048,3.0768,3.0768,3.1092,3.1599,2.8942,2.8247,0.0,0.0,0.0,0.0,0.0,0.0,0.0,0.0,0.0,0.0,0.0,2.91,3.0711,0.0,3.6535,3.8461,4.0741,4.2359,4.2693,4.27,4.27,4.2762,4.4164,4.4959,4.445,4.5092,4.5687,4.6085,4.6015,4.5959,4.5959,4.6634,4.7062,4.7062,4.6942,4.7122,4.7589,4.7122,4.7122,4.7589,4.7589,4.7589,4.7622,4.8096,4.8289,4.8338,4.8798,4.9001,4.9001,4.9001,4.8781,4.8426,4.8037,4.7445,4.6786,4.6786,4.6786,4.6735,4.638,4.6244,4.6194,4.5805,4.5432,4.5145,4.5145,4.4604,4.3995,4.3995,4.3724,4.3379,4.2963,4.2861,4.2658,4.1931,4.1474,4.1102,4.073,4.0367,4.0096,4.0096,4.0096,4.0096,4.0096,4.0096,3.9977,3.9622,3.9225,3.8599,3.7483,3.7032,3.6485,3.5684,3.56,3.56,3.56,3.5245,3.459,3.3474,3.3389,3.2903,3.1802,3.2107,3.2141,3.1769,3.1752,3.2124,3.2848,3.2848,3.3444,3.4527,3.3427,3.2699,0.0,0.0,0.0,0.0,0.0,0.0,0.0,0.0,2.7443,2.9192,3.0398,3.168,3.3477,3.628,3.8528,3.9193,4.1427,4.259,4.1293,4.163,4.2189,4.2724,4.4191,4.4963,4.4402,4.4964,4.5407,4.5538,4.593,4.5921,4.5357,4.6405,4.6781,4.6208,4.6012,4.6012,4.6208,4.6012,4.6012,4.6208,4.6208,4.6208,4.6208,4.6986,4.734,4.7373,4.8321,4.8719,4.875,4.8923,4.9001,4.9001,4.9001,4.8274,4.7225,4.7225,4.7225,4.7208,4.7056,4.7005,4.6989,4.6836,4.6397,4.5923,4.5923,4.5399,4.479,4.479,4.4716,4.4462,4.3809,4.3639,4.3453,4.2692,4.2066,4.1593,4.1441,4.0832,4.0316,4.0316,4.0197,4.0096,4.0096,4.0096,4.0096,4.0096,3.9462,3.8717,3.799,3.7246,3.6485,3.5684,3.56,3.56,3.56,3.5735,3.5267,3.3914,3.4675,3.4556,3.3224,3.3309,3.3393,3.3393,3.3393,3.3964,3.5148,3.5148,3.5791,3.7015,3.7015,3.6355,2.5968,2.5161,2.5312,2.6046,2.7034,2.9026,0.0,0.0,3.3482,3.6046,3.6597,3.6904,3.7924,3.8891,4.0008,4.1539,4.1999,4.2061,4.1885,4.1949,4.1739,4.108,4.2343,4.3524,4.41,4.4723,4.5397,4.6076,4.5403,4.5321,4.6026,4.5457,4.5431,4.6173,4.5395,4.5358,4.6173,4.5358,4.5395,4.6208,4.6208,4.6208,4.6208,4.6314,4.6365,4.6419,4.734,4.777,4.7836,4.8656,4.9001,4.9001,4.9001,4.89,4.8748,4.8748,4.8748,4.8663,4.799,4.78,4.7682,4.7005,4.6735,4.6667,4.6667,4.616,4.5585,4.5585,4.5094,4.4581,4.4496,4.4479,4.4248,4.3487,4.3206,4.2953,4.232,4.1593,4.1085,4.1085,4.0544,4.0096,4.0096,4.0096,4.0096,4.0096,3.9462,3.8717,3.799,3.7246,3.6485,3.5684,3.56,3.56,3.56,3.6248,3.6282,3.5397,3.6721,3.7144,3.6338,3.6924,3.728,3.728,3.728,3.7364,3.7533,3.7533,3.7618,3.7787,3.7787,3.7686,2.8997,2.8106,2.7963,2.8818,2.9896,3.1632,3.5011,3.4943,3.4813,3.7112,3.7857,3.8177,3.8526,3.9503,4.0339,0.0,4.0959,4.1062,4.055,4.0481,4.055,4.069,4.1171,4.1957,4.3207,4.3949,4.4641,4.5332,4.502,4.4721,4.4502,4.4684,4.4721,4.4502,4.4128,4.4128,4.4502,4.4128,4.4128,4.4502,4.4502,4.4502,4.454,4.5138,4.567,4.6208,4.6592,4.6781,4.6815,4.7205,4.7373,4.7373,4.7373,4.7373,4.7523,4.8593,4.9001,4.8968,4.8663,4.8545,4.8494,4.8189,4.78,4.7445,4.7445,4.6938,4.6346,4.6346,4.6109,4.5771,4.5348,4.5229,4.5043,4.4265,4.3741,4.3308,4.3014,4.2354,4.183,4.183,4.1238,4.073,4.073,4.0383,4.0096,4.0096,3.9842,3.9385,3.8633,3.8261,3.7618,3.6417,3.5893,3.56,3.56,3.6332,3.6451,3.565,3.7036,3.7567,3.6829,3.7499,3.7905,3.7905,3.7905,3.8125,3.8531,3.8531,3.8751,3.9174,3.9174,3.9174,3.0342,3.003,3.03,3.1074,3.2578,3.437,3.6184,3.624,3.6368,3.8053,3.858,3.8818,3.8996,3.9745,4.0205,3.9829,4.0095,4.0115,3.9481,3.9388,3.9646,4.0274,4.0217,4.0646,4.2017,4.2729,4.342,4.4074,4.4135,4.3884,4.3314,4.4004,4.4028,4.3329,4.329,4.329,4.329,4.329,4.329,4.329,4.329,4.329,4.3329,4.4066,4.4743,4.5436,4.569,4.5798,4.5834,4.6103,4.6208,4.6208,4.6208,4.6208,4.6349,4.7737,4.8225,4.8225,4.8225,4.8225,4.8225,4.8225,4.7875,4.7489,4.7742,4.7315,4.6757,4.7031,4.6955,4.6667,4.6143,4.6007,4.5821,4.506,4.4468,4.3995,4.3775,4.3149,4.2591,4.2591,4.2016,4.1508,4.1508,4.0882,4.0417,4.0417,4.0231,3.9842,3.9089,3.8819,3.8278,3.7235,3.6586,3.6225,3.6225,3.6772,3.6755,3.5994,3.7364,3.7872,3.7134,3.8007,3.8514,3.8514,3.8514,3.8768,3.9292,3.9292,3.9588,4.0096,4.0096,4.0096,2.8996,2.9985,3.1516,3.2254,3.4931,3.7559,3.8434,3.9063,3.9678,4.0442,3.9949,3.9621,4.0454,3.9975,3.9702,4.0535,3.9955,3.9424,3.9409,3.9388,3.9424,3.946,3.9439,3.9709,0.0,4.11,4.176,4.2419,4.2464,4.2695,4.326,4.3329,4.3329,4.329,4.329,4.329,4.329,4.329,4.329,4.329,4.329,4.329,4.329,4.3329,4.3369,4.3433,4.4434,4.4849,4.4909,4.5834,4.6208,4.6208,4.6208,4.6208,4.6208,4.6244,4.6279,4.6279,4.6279,4.6279,4.6279,4.6279,4.6263,4.6421,4.734,4.7094,4.6711,4.7608,4.7361,4.6786,4.6752,4.6752,4.6583,4.5838,4.5652,4.5432,4.4733,4.3927,4.3358,4.3358,4.2777,4.2252,4.2252,4.1644,4.117,4.117,4.0544,3.9842,3.9089,3.8379,3.7922,3.7872,3.7855,3.7838,3.7838,3.7855,3.755,3.6812,3.8142,3.8633,3.7905,3.9242,4.0028,4.0028,4.0028,4.0045,4.0079,4.0079,4.0079,4.0096,4.0096,4.0096,3.0404,3.1623,3.3288,3.5416,3.7039,3.8433,3.9725,3.9749,3.9536,3.9783,3.9234,3.8827,3.9113,3.8918,3.8827,3.9148,3.9309,3.9388,3.9388,3.9388,3.9388,3.9388,3.9388,0.0,0.0,0.0,0.0,4.2321,4.2396,4.2641,4.326,4.329,4.329,4.329,4.329,4.329,4.329,4.329,4.329,4.3305,4.3738,4.3947,4.4003,4.4436,4.4631,4.4631,4.4966,4.5127,4.5167,4.548,4.5583,4.5583,4.5583,4.5583,4.5583,4.5583,4.5308,4.508,4.592,4.6208,4.6208,4.6208,4.6627,4.7205,4.7523,4.7881,4.8224,4.8537,4.846,4.8156,4.7665,4.753,4.7344,4.6599,4.6058,4.5635,4.5382,4.4722,4.4198,4.4198,4.3572,4.3031,4.3031,4.2422,4.1762,4.1271,4.0561,4.0011,3.9774,3.9089,3.8633,3.8633,3.8193,3.7905,3.7905,3.7905,3.7787,3.755,3.8447,3.8886,3.8633,3.9588,4.0096,4.0096,4.0096,4.0096,4.0096,4.0096,4.0096,4.0096,4.0096,4.0096,3.2168,3.3559,3.5125,3.7369,3.836,3.8958,3.9703,3.9627,3.9239,3.876,3.8347,3.7973,3.7749,3.7524,3.7509,3.7958,3.8407,3.8871,3.9313,3.9388,3.9388,3.9388,3.9388,3.9388,0.0,0.0,0.0,4.1617,4.1916,4.2336,4.2955,4.317,4.329,4.329,4.329,4.329,4.329,4.329,4.3409,4.3648,4.4347,4.4661,4.4676,4.5095,4.5289,4.5289,4.5289,4.5289,4.5289,4.5289,4.5289,4.5289,4.5289,4.5289,4.5289,4.5289,4.5035,4.4759,4.5316,4.5346,4.5143,4.5143,4.5566,4.6138,4.6504,4.7002,4.7572,4.7917,4.8015,4.7899,4.7418,4.7541,4.7611,4.6857,4.6595,4.6413,4.616,4.55,4.4976,4.4976,4.4367,4.3826,4.3826,4.32,4.2439,4.1694,4.1187,4.0705,4.018,3.969,3.9402,3.9402,3.8954,3.8684,3.8684,3.8447,3.8294,3.8294,3.8734,3.8988,3.8988,3.9723,4.0096,4.0096,4.0096,4.0096,4.0096,4.0096,4.0096,4.0096,4.0096,4.0096,3.4038,3.5597,3.6881,3.8123,3.8931,3.9245,3.8601,3.8931,3.899,3.7644,3.73,3.7045,0.0,0.0,3.5848,3.706,3.7375,3.7913,3.923,3.9388,3.9388,0.0,0.0,0.0,0.0,0.0,0.0,4.0397,0.0,4.1722,4.241,4.3,4.329,4.329,4.329,4.329,4.329,4.329,4.3618,4.4332,4.4975,4.5319,4.5349,4.5379,4.5394,4.5394,4.5394,4.5394,4.5394,4.5394,4.5394,4.5394,4.5394,4.5394,4.5394,4.5394,4.5379,4.5259,4.4631,4.3947,4.3394,4.3349,4.3374,4.3596,4.4526,4.4849,4.5042,4.5941,4.6208,4.6208,4.6244,4.6918,4.7424,4.6781,4.7285,4.7733,4.7005,4.6278,4.5771,4.5771,4.5145,4.4649,4.4615,4.3961,4.3217,4.2472,4.2354,4.183,4.04,4.018,4.0163,4.0163,4.013,4.0096,4.0096,3.9469,3.9056,3.9056,3.9056,3.9056,3.9056,3.974,4.0096,4.0096,4.0096,4.0096,4.0096,4.0096,4.0096,4.0096,4.0096,4.0096,3.5429,3.6911,3.8108,3.8945,3.9254,3.9379,3.92,3.8901,3.8287,3.6985,3.5923,3.4726,0.0,0.0,0.0,3.5207,3.6866,0.0,3.9269,3.9388,0.0,3.9388,0.0,4.0157,4.0157,4.0591,0.0,0.0,4.128,4.1878,4.303,4.32,4.329,4.329,4.329,4.329,4.329,4.329,4.3618,4.4332,4.4975,4.5559,4.6082,4.6561,4.68,4.68,4.68,4.68,4.68,4.68,4.68,4.68,4.68,4.68,4.68,4.68,4.6471,4.6037,4.5873,4.5364,4.4721,4.4227,4.4537,4.5064,4.4838,4.5285,4.5905,4.6138,4.6208,4.6349,4.7054,4.7406,4.7721,4.8247,4.8138,4.7838,4.7682,4.7039,4.6515,4.6515,4.5923,4.5246,4.4699,4.4445,4.4028,4.325,4.3132,4.2794,4.1847,4.1255,4.0916,4.0916,4.0434,4.0096,4.0096,3.9943,3.9825,3.9825,3.9825,3.9825,3.9825,4.0011,4.0096,4.0096,4.0096,4.0096,4.0096,4.0096,4.0096,4.0096,4.0096,4.0096,3.6866,3.8063,3.8931,3.9334,3.9388,3.9089,3.7958,3.7629,3.6851,3.4367,3.326,0.0,3.0524,3.1614,3.2931,0.0,0.0,0.0,3.8841,3.923,3.9493,0.0,4.0172,0.0,4.0801,4.116,4.1542,0.0,4.1856,4.2132,4.2865,4.314,4.329,4.329,4.329,4.329,4.329,4.3574,4.4092,4.4751,4.5424,4.6097,4.677,4.713,4.7309,4.7309,0.0,4.7309,4.7309,4.7309,4.7309,4.7309,4.7309,4.7309,4.7309,4.7309,4.707,4.6756,4.6756,4.6501,4.6022,4.505,4.5112,4.5447,4.5135,4.5372,4.5723,4.5466,4.5388,4.5422,4.5645,4.6349,4.7138,4.7655,4.8084,4.8392,4.8392,4.7817,4.7192,4.6853,4.6464,4.594,4.5196,4.5077,4.4807,4.4045,4.3927,4.3775,4.3379,4.2354,4.1677,4.1677,4.1305,4.0942,4.0595,4.0578,4.0426,4.013,4.0096,4.0096,4.0096,4.0096,4.0096,4.0096,4.0096,4.0096,4.0096,4.0096,4.0096,4.0113,4.0434,4.0578,3.8197,3.896,3.9388,3.9388,3.9313,3.8646,3.6193,3.5878,3.4996,3.1165,0.0,2.9714,2.8442,2.94,3.0821,3.2138,0.0,3.6836,3.8197,3.8901,3.9559,4.0307,4.0472,4.0786,4.1482,4.1594,4.1878,4.2485,4.253,4.253,4.253,4.303,4.329,4.329,4.329,4.329,4.329,4.3947,4.4646,4.5304,4.5992,4.6666,4.7309,4.7309,4.7309,4.7309,4.7309,4.7309,4.7309,4.7309,4.7309,4.7309,4.7309,4.7309,4.7309,4.7309,4.7309,4.7309,4.7309,4.7309,4.71,4.5843,4.5424,4.5409,4.5319,4.5289,4.517,4.4601,4.4451,4.4287,4.3773,4.4852,4.6143,4.6205,4.7556,4.8829,4.8829,4.8402,4.7834,4.709,4.6938,4.6701,4.5974,4.5855,4.5602,4.4869,4.475,4.4716,4.4615,4.3345,4.2439,4.2439,4.2354,4.2033,4.1407,4.1356,4.1068,4.0434,4.04,4.04,4.04,4.04,4.04,4.04,4.04,4.04,4.04,4.04,4.04,4.0417,4.1052,4.1356,3.9035,3.9334,3.9388,3.9388,3.899,3.8167,3.6656,3.5115,0.0,0.0,2.8873,2.7705,2.6378,2.8113,3.0178,3.1451,3.3902,3.6312,3.8138,3.8497,3.902,0.0,4.0876,4.1512,4.2171,4.2686,0.0,0.0,4.3125,4.3125,4.3125,4.323,4.329,4.329,4.329,4.329,4.329,4.3947,4.4646,4.5304,4.5992,4.6666,4.7309,4.7309,4.7309,4.7309,4.7309,0.0,4.7309,4.7309,4.7309,4.7309,4.7309,4.7309,4.7309,4.7309,4.7309,4.7309,4.7309,4.7309,4.7174,4.6396,4.6142,4.6037,4.5469,4.5289,4.5274,4.5155,4.5125,4.515,4.5262,4.5549,4.5847,4.6124,4.702,4.7836,4.7836,4.8333,4.8595,4.7868,4.7733,4.7479,4.6735,4.6599,4.6363,4.5618,4.5517,4.528,4.4682,4.3792,4.3189,4.3189,4.2658,4.2236,4.2117,4.21,4.2049,4.1914,4.1941,4.1941,4.1941,4.1941,4.1941,4.1941,4.1941,4.1941,4.1941,4.1941,4.1941,4.1914,4.2049,4.21,3.9334,3.9388,3.9388,3.9388,3.8646,3.727,3.4951,0.0,0.0,0.0,2.5982,2.5234,2.4268,2.6551,0.0,2.9821,3.2198,3.4756,3.7075,3.7404,3.8272,4.0636,4.119,4.1773,4.2776,4.315,4.329,4.329,4.329,4.329,4.329,4.329,4.329,4.329,4.329,4.329,4.329,4.3947,4.4646,4.5304,4.5992,4.6666,4.7309,4.7309,4.7309,4.7309,4.7309,4.7309,4.7309,4.7309,4.7309,4.7309,4.7309,4.7309,4.7309,4.7309,4.7309,4.7309,4.7309,4.7309,4.7249,4.6935,4.683,4.677,4.6441,4.6337,4.6277,4.5933,4.5828,4.5788,4.5556,4.5846,4.6152,4.598,4.641,4.6884,4.6884,4.7239,4.7457,4.7079,4.7404,4.7523,4.6789,4.7043,4.7124,4.638,4.6261,4.6007,4.5263,4.484,4.4451,4.4062,4.369,4.3318,4.2912,4.2878,4.2709,4.232,4.2286,4.2286,4.2286,4.2286,4.2286,4.2286,4.2286,4.2286,4.2286,4.2286,4.2286,4.2303,4.2692,4.2878,3.9379,3.9388,3.9388,3.9388,3.8302,3.6387,3.323,3.0761,0.0,2.4373,2.3385,2.3131,2.2942,2.5129,2.7305,0.0,3.0687,3.3185,3.5699,3.6417,3.7808,0.0,4.1294,0.0,4.317,4.329,0.0,4.329,4.329,4.329,4.329,4.329,4.329,4.329,4.329,4.3364,4.3499,4.4197,4.4855,4.5529,4.6202,4.68,4.7309,4.7309,4.7309,4.7309,4.7309,4.7309,4.7309,4.7309,4.7309,4.7309,4.7309,4.7309,4.7309,4.7309,4.7309,4.7309,4.7309,4.7309,4.7309,4.7309,4.7309,4.7309,4.7309,4.7309,4.7189,4.6681,4.6488,4.6381,4.5693,4.6072,4.6502,4.6028,4.6012,4.6148,4.6378,4.6285,4.6208,4.6208,4.6815,4.7176,4.6782,4.736,4.7656,4.7111,4.7039,4.6769,4.6024,4.594,4.5703,4.5139,4.4801,4.4333,4.3724,4.3673,4.342,4.2811,4.2777,4.2777,4.2777,4.2777,4.2777,4.2777,4.2777,4.2777,4.2777,4.2777,4.2777,4.2794,4.3386,4.3673,3.9245,3.9388,3.9388,3.9388,3.7988,3.5863,3.314,0.0,2.6986,2.4178,2.2682,2.2203,2.331,2.4246,0.0,0.0,0.0,3.2303,3.4399,3.6193,3.8108,4.0232,0.0,0.0,4.317,4.329,4.329,4.329,4.329,4.329,4.329,4.329,4.329,4.329,4.329,4.3574,4.4212,4.487,4.5544,4.6232,4.6905,4.7249,4.7309,4.7309,4.7309,4.7309,4.7309,4.7309,0.0,4.7309,4.7309,4.7309,4.7309,4.7309,4.7309,4.7309,4.7309,4.7309,4.7309,4.7309,4.7309,4.7309,4.7309,4.7309,4.7309,4.7309,4.7294,4.7234,4.7219,4.7055,4.6396,4.6259,4.6399,4.6557,4.616,4.6006,4.6912,4.6617,4.6208,4.6208,4.6279,4.6576,4.7358,4.7556,4.7683,4.7781,4.7787,4.7547,4.6786,4.6684,4.6667,4.6599,4.541,4.4581,4.4513,4.4496,4.4479,4.4395,4.4395,4.4395,4.4395,4.4395,4.4395,4.4395,4.4395,4.4395,4.4395,4.4395,4.4395,4.4395,4.4462,4.4496,3.9125,3.9388,3.9388,3.9388,3.7644,3.5205,3.2497,0.0,2.5644,2.2996,2.1739,2.138,2.2293,2.331,2.4747,0.0,0.0,0.0,3.2317,3.3724,3.5639,3.8811,4.0127,0.0,0.0,0.0,4.329,4.329,4.329,4.329,4.329,4.329,4.329,4.329,4.329,4.3604,4.4302,4.496,4.5648,4.6294,4.6995,4.7309,4.7309,4.7309,4.7309,4.7309,4.7309,4.7309,0.0,4.7309,4.7309,4.7309,4.7309,4.7309,4.7309,4.7309,4.7309,4.7309,4.7309,4.7309,4.7309,4.7309,4.7309,4.7309,4.7309,4.7309,4.7309,4.7309,4.7309,4.7249,4.698,4.6621,4.6331,4.6433,4.5966,4.5571,4.5953,4.5533,4.5041,4.5041,4.5232,4.5468,4.585,4.6866,4.7638,4.7697,4.8188,4.8308,4.7564,4.7462,4.7293,4.6836,4.6261,4.5906,4.5906,4.5517,4.5263,4.5263,4.4869,4.4615,4.4615,4.4615,4.4615,4.4615,4.4615,4.4615,4.4615,4.4615,4.4615,4.4615,4.4615,4.4615,3.8467,3.911,3.9328,3.917,3.73,3.4756,3.1854,2.8297,2.4866,2.2233,2.1006,2.0677,2.1545,2.2428,2.3744,0.0,0.0,2.7964,3.1077,3.2437,3.4337,3.7704,0.0,4.0591,4.2566,4.3065,4.329,4.329,4.329,4.329,4.329,4.329,4.329,4.329,4.329,4.3604,4.4302,4.4766,4.5454,4.6337,4.68,4.7115,4.7309,4.7309,4.7309,4.7309,4.7309,4.7309,0.0,4.7309,4.7309,4.7309,4.7309,4.7309,4.7309,4.7309,4.7309,4.7309,4.7309,4.7309,4.7309,4.7309,4.7309,4.7309,4.7309,4.7309,4.7309,4.7309,4.7309,4.7309,4.7309,4.6965,4.6621,4.6621,4.6097,4.5603,4.5603,4.508,4.4601,4.4601,4.4646,4.4742,4.5015,4.6012,4.6968,4.7523,4.8161,4.8503,4.8277,4.824,4.8037,4.7513,4.7445,4.7259,4.6836,4.6312,4.6024,4.6024,4.5534,4.5258,4.5258,4.5258,4.5258,4.5258,4.5258,4.5258,4.5258,4.5258,4.5258,4.5258,4.5258,4.5258,3.7075,3.8407,3.926,3.8571,3.6941,3.4622,3.127,2.7964,2.4866,2.2233,2.0632,2.0127,2.144,2.171,2.2577,2.5196,0.0,0.0,3.1137,3.3215,3.5222,0.0,0.0,3.92,4.1205,4.2566,4.329,4.329,4.329,0.0,4.329,4.329,4.329,4.329,4.329,4.3604,4.4302,4.4332,4.5005,4.6279,4.6294,4.6681,4.7309,4.7309,4.7309,4.7309,4.7309,4.7309,0.0,4.7309,4.7309,4.7309,4.7309,4.7309,4.7309,4.7309,4.7309,4.7309,4.7309,4.7309,4.7309,4.7309,4.7309,4.7309,4.7309,4.7309,4.7309,4.7309,4.7309,4.7309,4.7309,4.7294,4.7294,4.7294,4.68,4.6264,4.6264,4.5768,4.5289,4.5289,4.4751,4.4594,4.5526,4.523,4.5468,4.7306,4.7622,4.795,4.8861,4.8984,4.8984,4.8984,4.8984,4.8392,4.6904,4.6786,4.6786,4.6786,4.6769,4.6769,4.6769,4.6769,4.6769,4.6769,4.6769,4.6769,4.6769,4.6769,4.6769,4.6769,4.6769,4.6769,3.4382,3.537,3.5878,3.522,3.3903,3.2123,2.9759,2.6991,2.4291,2.2143,2.0636,2.0112,2.144,2.1695,2.2868,2.6402,2.733,0.0,0.0,0.0,0.0,3.718,3.9978,4.2013,0.0,0.0,4.329,4.329,4.329,4.329,4.329,4.329,4.329,4.329,4.329,4.3604,4.4302,4.4317,4.499,4.6279,4.6279,4.6666,4.7309,4.7309,4.7309,4.7309,4.7309,4.7309,4.7309,4.7309,4.7309,4.7309,4.7309,4.7309,4.7309,4.7309,4.7309,4.7309,4.7309,4.7309,4.7309,4.7309,4.7309,4.7309,4.7309,4.7309,4.7309,4.7309,4.7309,4.7309,4.7309,4.7309,4.7309,4.7309,4.7145,4.6995,4.6995,4.6471,4.5992,4.5992,4.5439,4.5098,4.5394,4.5806,4.6128,4.6266,4.6909,4.7487,4.7967,4.8047,4.8289,4.894,4.9001,4.8815,4.8342,4.7851,4.7564,4.7564,4.7073,4.6786,4.6786,4.6786,4.6786,4.6786,4.6786,4.6786,4.6786,4.6786,4.6786,4.6786,4.6786,4.7073,3.1674,3.3215,3.3948,3.329,3.2123,3.0599,2.8667,2.6153,2.3738,2.2054,2.0636,2.0019,2.1126,2.153,2.2652,2.5623,2.6522,0.0,0.0,0.0,0.0,3.7464,0.0,0.0,0.0,4.3006,4.329,4.329,4.329,4.329,4.329,4.329,4.329,4.329,4.329,4.3484,4.3943,4.3902,4.4456,4.5574,4.5574,4.6052,4.6935,4.6935,4.707,4.7309,4.7309,4.7309,0.0,4.7309,4.7309,4.7309,4.7309,4.7309,4.7309,4.7309,4.7309,4.7309,4.7309,4.7309,4.7309,4.7309,4.7309,4.7309,4.7309,4.7309,4.7309,4.7309,4.7309,4.7309,4.7309,4.7309,4.7309,4.7309,4.7309,4.7309,4.7309,4.698,4.6696,4.6696,4.6157,4.5678,4.5678,4.5945,4.6159,4.6106,4.6385,4.6832,4.7389,4.7233,4.7306,4.7868,4.8257,4.8465,4.8465,4.8377,4.8342,4.8342,4.7885,4.7631,4.7631,4.7631,4.7631,4.7631,4.7631,4.7631,4.7631,4.7631,4.7631,4.7631,4.7631,4.7885,0.0,3.1405,3.2781,3.2168,3.1076,2.9654,2.775,2.5368,0.0,2.1889,2.0587,1.9962,2.0748,2.135,2.2203,2.3714,2.5001,0.0,0.0,3.2003,0.0,0.0,4.0322,0.0,4.1519,4.2626,4.329,4.329,4.329,4.329,4.329,4.329,4.329,4.329,4.329,4.329,4.329,4.329,4.3618,4.4317,4.4317,4.499,4.6204,4.6204,4.6606,0.0,4.7234,4.7264,4.7309,4.7309,4.7309,4.7309,4.7309,4.7309,4.7309,4.7309,4.7309,4.7309,4.7309,4.7309,4.7309,4.7309,4.7309,4.7309,4.7309,4.7309,4.7309,4.7309,4.7309,4.7309,4.7309,4.7309,4.7309,4.7309,4.7309,4.7309,4.7309,4.7309,4.7309,4.7309,4.6815,4.6354,4.6354,4.5858,4.5725,4.6573,4.612,4.6088,4.705,4.6606,4.6246,4.6317,4.71,4.7555,4.7555,4.8435,4.9001,4.9001,4.9001,4.9001,4.9001,4.9001,4.9001,4.9001,4.9001,4.9001,4.9001,4.9001,4.9001,4.9001,4.9001,4.9001,2.4245,0.0,2.7425,2.7275,2.6991,2.6363,0.0,2.3706,2.2538,2.1216,2.0273,2.0367,2.2517,2.2248,2.2951,2.6797,2.7694,2.8861,3.1644,3.537,0.0,4.0442,4.1983,4.2826,4.2826,4.311,4.329,4.329,4.329,4.329,4.329,4.329,4.329,4.329,4.329,4.329,4.329,4.329,4.3618,4.4317,4.4317,4.4751,4.5544,4.5544,4.5903,4.6561,4.6561,4.6845,4.7309,4.7309,4.7309,4.7309,4.7309,4.7309,4.7309,4.7309,4.7309,4.7309,4.7309,4.7309,4.7309,4.7309,4.7309,4.7309,4.7309,4.7309,4.7309,4.7309,4.7309,4.7309,4.7309,4.7309,4.7309,4.7309,4.7309,4.7309,4.7309,4.7309,4.7309,4.7309,4.7174,4.707,4.707,4.6935,4.6736,4.6421,4.6252,4.6331,4.6765,4.6663,4.6859,4.759,4.7417,4.7291,4.7291,4.8347,4.9001,4.9001,4.9001,4.9001,4.9001,4.9001,4.9001,4.9001,4.9001,4.9001,4.9001,4.9001,4.9001,4.9001,4.9001,4.9001,2.1695,2.3655,2.5615,2.5615,2.5375,2.4948,2.4216,2.2877,2.1575,0.0,0.0,0.0,2.1949,2.2203,2.3161,2.6249,2.7799,0.0,0.0,0.0,3.9903,4.122,4.2536,4.329,0.0,4.329,4.329,4.329,4.329,4.329,4.329,4.329,4.329,4.329,4.329,4.329,4.329,4.329,4.3469,4.3828,4.3828,4.4212,4.484,4.484,4.5214,4.5873,4.6187,4.6531,4.6875,4.7174,4.7309,4.7309,4.7309,4.7309,4.7309,4.7309,4.7309,4.7309,4.7309,4.7309,4.7309,4.7309,4.7309,4.7309,4.7309,4.7309,4.7309,4.7309,4.7309,4.7309,4.7309,4.7309,4.7309,4.7309,4.7309,4.7309,4.7309,4.7309,4.7309,4.7309,4.7309,4.7309,4.7309,4.7309,4.7189,4.683,4.6516,4.6341,4.6498,4.6229,4.6257,4.678,4.6917,4.6947,4.6947,4.7964,4.8498,4.8371,4.875,4.9001,4.9001,4.9001,4.9001,4.9001,4.9001,4.9001,4.9001,4.9001,4.9001,4.9001,4.9001,4.9001,2.0782,2.3191,2.5397,2.5211,2.4874,2.4545,2.435,0.0,0.0,0.0,0.0,0.0,0.0,2.2383,0.0,0.0,0.0,0.0,3.534,3.8033,4.0053,4.1407,4.2596,0.0,4.329,4.329,4.329,4.329,4.329,4.329,4.329,4.329,4.329,4.329,4.329,4.329,4.329,4.329,4.329,4.329,4.329,4.3589,4.4167,4.4167,4.4526,4.5185,0.0,0.0,4.6324,4.692,4.7219,4.7309,4.7309,4.7309,4.7309,4.7309,4.7309,4.7309,4.7309,4.7309,4.7309,4.7309,4.7309,4.7309,4.7309,4.7309,4.7309,4.7309,4.7309,4.7309,4.7309,4.7309,4.7309,4.7309,4.7309,4.7309,4.7309,4.7309,4.7309,4.7309,4.7309,4.7309,4.7309,4.7309,4.7309,4.7309,4.683,4.6429,4.6429,4.5963,4.5603,4.5603,4.6219,4.6634,4.6634,4.7392,4.7794,4.7496,4.8377,4.8947,4.9001,4.9001,4.9001,4.9001,4.9001,4.9001,4.9001,4.9001,4.9001,4.9001,4.9001,4.9001,2.1909,2.355,2.4485,2.3422,2.3879,2.4321,2.3236,2.2688,0.0,0.0,0.0,0.0,0.0,2.5031,2.6138,0.0,0.0,3.4638,0.0,0.0,4.0741,4.2096,0.0,4.329,4.329,4.329,4.329,4.329,4.329,4.329,4.329,4.329,4.329,4.329,4.329,4.329,4.329,4.329,4.329,4.329,4.329,4.3349,4.3439,4.3439,4.3798,4.4466,0.0,4.5274,4.6294,4.6384,4.68,4.7309,4.7309,4.7309,4.7309,4.7309,4.7309,4.7309,4.7309,4.7309,4.7309,4.7309,4.7309,4.7309,4.7309,4.7309,4.7309,4.7309,4.7309,4.7309,4.7309,4.7309,4.7309,4.7309,4.7309,4.7309,4.7309,4.7309,4.7309,4.7309,4.7309,4.7309,4.7309,4.7309,4.7309,4.7309,4.7219,4.716,4.716,4.707,4.6995,4.6995,4.6614,4.6353,4.6353,4.6714,4.6905,4.6841,4.7996,4.8761,4.9004,4.9001,4.9001,4.9001,4.9001,4.9001,4.9001,4.9001,4.9001,4.9001,4.9001,4.9001,2.0831,2.2313,2.3505,2.3236,2.4448,2.554,2.4949,2.4238,0.0,0.0,0.0,0.0,0.0,0.0,2.8951,3.2617,0.0,3.6357,3.8631,3.9783,4.0891,0.0,4.294,4.329,4.329,4.329,4.329,4.329,4.329,4.329,4.329,4.329,4.329,4.329,4.329,4.329,4.329,4.329,4.329,4.329,4.329,4.329,4.329,4.329,4.3454,4.3768,0.0,4.4661,4.5304,4.598,4.6459,4.6815,4.7174,4.7309,4.7309,4.7309,4.7309,4.7309,4.7309,4.7309,4.7309,4.7309,4.7309,4.7309,4.7309,4.7309,4.7309,4.7309,4.7309,4.7309,4.7309,4.7309,4.7309,4.7309,4.7309,4.7309,4.7309,4.7309,4.7309,4.7309,4.7309,4.7309,4.7309,4.7309,4.7309,4.7309,4.7309,4.7309,4.7309,4.7309,4.7309,4.7309,4.704,4.686,4.686,4.6939,4.7159,4.7453,4.8544,4.9257,4.936,4.9376,4.9376,4.9376,4.8826,4.8792,4.9376,4.9376,4.9671,5.0202,5.0202,5.0202,2.0722,2.1864,2.3107,2.3864,2.5106,2.6303,2.6916,2.6033,2.5337,0.0,0.0,0.0,0.0,2.94,0.0,3.5415,3.6641,3.7808,3.9619,4.0307,4.1115,4.247,4.303,4.329,4.329,4.329,4.329,4.329,4.329,4.329,4.329,4.329,4.329,4.329,4.329,4.329,4.329,4.329,4.329,4.329,4.329,4.329,4.329,4.329,4.329,4.3319,4.3828,4.4167,4.4407,4.5603,4.6172,4.6396,4.7055,4.7309,4.7309,4.7309,4.7309,4.7309,4.7309,4.7309,4.7309,4.7309,4.7309,4.7309,4.7309,4.7309,4.7309,4.7309,4.7309,4.7309,4.7309,4.7309,4.7309,4.7309,4.7309,4.7309,4.7309,4.7309,4.7309,4.7309,4.7309,4.7309,4.7309,4.7309,4.7309,4.7309,4.7309,4.7309,4.7309,4.7309,4.7309,4.7309,4.7309,4.7309,4.7309,4.7309,4.7479,4.7894,4.8609,4.9099,4.9311,4.9328,4.9328,4.9328,4.876,4.8743,4.9311,4.9798,5.0342,5.0858,5.1071,5.1185,2.3752,2.3887,2.3849,2.5136,2.5098,2.5397,2.7889,2.741,0.0,2.8933,0.0,0.0,0.0,3.2886,3.5564,3.703,3.8362,3.9679,4.1055,4.128,4.1788,4.3065,4.326,4.329,4.329,4.329,4.329,4.329,4.329,4.329,4.329,4.329,4.329,4.329,4.329,4.329,4.329,4.329,4.329,4.329,4.329,4.329,4.329,4.329,4.329,4.329,4.3349,4.3708,4.4362,4.508,4.5738,4.6396,4.7055,4.7309,4.7309,4.7309,4.7309,4.7309,4.7309,4.7309,4.7309,4.7309,4.7309,4.7309,4.7309,4.7309,4.7309,4.7309,4.7309,4.7309,4.7309,4.7309,4.7309,4.7309,4.7309,4.7309,4.7309,4.7309,4.7309,4.7309,4.7309,4.7309,4.7309,4.7309,4.7309,4.7309,4.7309,4.7309,4.7309,4.7309,4.7309,4.7309,4.7309,4.7309,4.7309,4.7309,4.7307,4.736,4.7083,4.7291,4.8179,4.8216,4.8216,4.8216,4.9118,4.9118,4.8216,5.014,5.0643,4.9832,5.0792,5.1185,2.2093,2.2877,2.3924,2.527,2.6363,0.0,0.0,3.0043,3.0836,3.2841,3.326,0.0,0.0,0.0,3.6537,3.7808,3.8811,3.9873,4.119,4.1422,4.1863,4.314,4.329,4.329,4.329,4.329,4.329,4.329,4.329,4.329,4.329,4.329,4.329,4.329,4.329,4.329,4.329,4.329,4.329,4.329,4.329,4.329,4.329,4.329,4.329,4.329,4.329,4.3439,4.3708,4.4407,4.508,4.5798,4.6875,4.7309,4.7309,4.7309,4.7309,4.7309,4.7309,4.7309,4.7309,4.7309,4.7309,4.7309,4.7309,4.7309,4.7309,4.7309,4.7309,4.7309,4.7309,4.7309,4.7309,4.7309,4.7309,4.7309,4.7309,4.7309,4.7309,4.7309,4.7309,4.7309,4.7309,4.7309,4.7309,4.7309,4.7309,4.7309,4.7309,4.7309,4.7309,4.7309,4.7309,4.7309,4.7309,4.7309,4.7309,4.7309,4.7736,4.8171,4.8498,4.8553,4.8851,4.9521,4.9276,4.9581,5.0436,5.1239,5.1794,5.2083,5.2455,5.2638,2.1515,2.2293,2.3625,2.4933,0.0,0.0,3.0746,3.2018,3.3455,3.5654,3.5953,3.6013,3.6656,0.0,0.0,3.8212,3.8975,3.9798,4.092,4.1287,4.1788,4.2895,4.317,4.329,4.329,4.329,4.329,4.329,4.329,4.329,4.329,4.329,4.329,4.329,4.329,4.329,4.329,4.329,4.329,4.329,4.329,4.329,4.329,4.329,4.329,4.329,4.329,4.329,4.3349,4.4007,4.4825,4.5738,4.686,4.7309,4.7309,4.7309,4.7309,4.7309,4.7309,4.7309,4.7309,4.7309,4.7309,4.7309,4.7309,4.7309,4.7309,4.7309,4.7309,4.7309,4.7309,4.7309,4.7309,4.7309,4.7309,4.7309,4.7309,4.7309,4.7309,4.7309,4.7309,4.7369,4.7578,4.7623,4.7683,4.7893,4.7743,4.7623,4.7623,4.7429,4.7309,4.7309,4.7309,4.7309,4.7309,4.7309,4.7309,4.7309,4.7946,4.8335,4.8335,4.8335,4.8692,4.9407,4.9029,4.9336,5.0458,5.1414,5.2117,5.2539,5.3195,5.3314,2.2868,2.2703,2.3032,2.4306,0.0,0.0,3.1958,3.3051,3.4262,3.6881,3.6941,3.6686,3.73,3.7419,0.0,3.8287,3.8975,3.9649,4.0307,4.0965,4.1647,4.2306,4.2925,4.3275,4.3275,4.329,4.329,4.329,4.329,4.329,4.329,4.329,4.329,4.329,4.329,4.329,4.329,4.329,4.329,4.329,4.329,4.329,4.329,4.329,4.329,4.329,4.329,4.329,4.3349,4.4047,4.511,4.6339,4.7055,4.7309,4.7309,4.7309,4.7309,4.7309,4.7309,4.7309,4.7309,4.7309,4.7309,4.7309,4.7309,4.7309,4.7309,4.7309,4.7309,4.7309,4.7309,4.7309,4.7309,4.7309,4.7309,4.7309,4.7309,4.7309,4.7309,4.7309,4.7309,4.7534,4.8192,4.8297,4.8521,4.9209,4.8716,4.8297,4.8297,4.7713,4.7309,4.7309,4.7309,4.7309,4.7309,4.7309,4.7309,4.7309,4.7309,4.7309,4.7309,4.7309,4.7294,4.7294,4.8293,4.8335,4.7352,5.0381,5.1377,5.0451,5.2487,5.2904,2.2278,2.2996,2.4477,2.6258,0.0,0.0,0.0,3.5459,0.0,0.0,3.8287,3.7883,3.8063,3.8093,0.0,3.8362,3.8975,3.9649,4.0307,4.0561,4.0935,4.1632,4.1848,4.1953,4.1953,4.2387,4.2656,4.2656,4.3075,4.329,4.329,4.329,4.329,4.329,4.329,4.329,4.329,4.329,4.329,4.329,4.329,4.329,4.329,4.329,4.329,4.329,4.329,4.329,4.3379,4.4541,4.5244,4.5708,4.686,4.7309,4.7309,4.7309,4.7309,4.7309,4.7309,4.7309,4.7309,4.7309,4.7309,4.7309,4.7309,4.7309,4.7309,4.7309,4.7309,4.7414,4.7878,4.7653,4.7309,4.7309,4.7309,4.7309,4.7309,4.7668,4.7997,4.7997,4.8371,4.8745,4.8985,4.9015,4.909,4.9284,4.9149,4.9015,4.9015,4.8401,4.7997,4.7997,4.7578,4.7309,4.7309,4.7309,4.7309,4.7309,4.7309,4.7309,4.7309,4.7309,4.7651,4.8335,4.8636,4.9029,4.9472,5.0397,5.0703,5.0397,5.1021,5.1134,2.2921,2.3902,0.0,2.7839,3.0567,3.344,3.6222,0.0,0.0,0.0,3.8871,3.8467,3.8751,3.8571,0.0,3.8751,3.9155,3.9559,3.9963,4.0232,4.0546,4.0935,4.122,4.1422,4.1422,4.1782,4.2006,4.2006,4.2342,4.2551,4.2551,4.2806,4.294,4.294,4.317,4.329,4.329,4.329,4.329,4.329,4.329,4.329,4.329,4.329,4.329,4.329,4.329,4.329,4.3379,4.4466,4.5065,4.5409,4.6486,4.707,4.7309,4.7309,4.7309,4.7309,4.7309,4.7309,4.7309,4.7309,4.7309,4.7309,4.7309,4.7309,4.7309,4.7309,4.7309,4.7459,4.8117,4.7997,4.7698,4.7698,4.7698,4.7698,4.7698,4.8207,4.8686,4.8686,4.9045,4.9404,4.9613,4.9658,4.9748,5.0002,4.9823,4.9553,4.9344,4.897,4.8686,4.8686,4.8087,4.7698,4.7698,4.7459,4.7309,4.7309,4.7309,4.7309,4.7309,4.7309,4.7566,4.8183,4.821,4.8543,4.9166,5.0025,5.0165,4.9773,5.0627,5.0534,2.4186,2.5128,2.6422,2.9086,3.0881,0.0,3.6656,3.8437,3.9349,3.9373,0.0,3.8676,3.9305,3.8901,3.8691,3.932,3.9388,3.9388,3.9388,3.9933,4.0307,4.0307,4.0846,4.1205,4.1205,4.125,4.1294,4.1294,4.1392,4.1422,4.1422,4.1991,4.2306,4.2306,4.291,4.32,4.32,4.326,4.329,4.329,4.329,4.329,4.329,4.329,4.329,4.329,4.329,4.329,4.3349,4.4007,4.4661,4.5274,4.5995,4.6696,4.7219,4.7279,4.7309,4.7309,4.7309,4.7309,4.7309,4.7309,4.7309,4.7309,4.7309,4.7309,4.7309,4.7309,4.7309,4.7459,4.8117,4.8282,4.8297,4.8356,4.8371,4.8371,4.8371,4.8895,4.9404,4.9404,4.9449,4.9628,5.0181,5.0285,5.048,5.1124,5.0659,5.0107,4.9523,4.9434,4.9404,4.9404,4.8775,4.8371,4.8371,4.7833,4.7489,4.7489,4.7489,4.7489,4.7489,4.7369,4.7309,4.7309,4.7381,4.7381,4.7294,4.9287,4.9694,4.8718,5.0611,5.0458,2.3744,2.545,0.0,3.0419,3.329,3.5908,3.7749,3.8407,3.8766,3.9305,3.9305,3.9245,3.9358,3.929,3.9245,3.9394,3.9388,3.9388,3.9388,3.9508,3.9634,3.9634,3.9753,3.9843,3.9843,4.0307,4.0606,4.0606,4.1085,4.1422,4.1422,4.1557,4.1632,4.1632,4.2261,4.2605,4.2605,4.3075,4.329,4.329,4.329,4.329,4.329,4.329,4.329,4.329,4.329,4.329,4.3349,4.4007,4.4392,4.4646,4.5816,4.6369,4.6591,4.7115,4.7309,4.7309,4.7309,4.7309,4.7309,4.7309,4.7309,4.7309,4.7309,4.7309,4.7309,4.7309,4.7309,4.7459,4.8117,4.8282,4.8416,4.8985,4.9105,4.9105,4.9105,4.9568,4.9986,4.9986,5.0451,5.084,5.0943,5.0958,5.1003,5.1199,5.1094,5.096,5.081,5.0346,4.9986,4.9986,4.9449,4.9105,4.9105,4.897,4.8895,4.8895,4.8895,4.8895,4.8895,4.7863,4.7309,4.7309,4.8072,4.8099,4.7309,4.8527,4.861,4.7651,4.8072,4.803,2.4612,0.0,0.0,3.2123,0.0,3.6656,3.733,3.7943,3.8497,3.8856,3.9185,3.9388,3.9388,3.9388,3.9388,3.9388,3.9388,3.9388,3.9388,3.9388,3.9388,3.9388,3.9388,3.9388,3.9388,3.9723,3.9933,3.9933,4.0247,4.0442,4.0442,4.0741,4.0905,4.0905,4.1587,4.1931,4.1931,4.2222,4.2551,4.2865,4.2865,4.303,4.329,4.329,4.329,4.329,4.329,4.329,4.3319,4.3663,4.3992,4.4407,4.5439,4.6037,4.6396,4.7055,4.7309,4.7309,4.7309,4.7309,4.7309,4.7309,4.7309,4.7309,4.7309,4.7309,4.7309,4.7309,4.7309,4.7534,4.8506,4.8805,4.9,4.9972,4.9957,4.9733,4.9733,5.0242,5.0659,5.0659,5.0943,5.1214,5.1214,5.1214,5.1214,5.1214,5.1214,5.1214,5.1214,5.0868,5.0659,5.0659,5.0122,4.9733,4.9733,4.9449,4.9314,4.9314,4.9314,4.9314,4.9314,4.8655,4.8102,4.7788,4.8276,4.8152,4.7309,4.8293,4.8293,4.7294,4.7807,4.7764,2.5151,0.0,2.9819,3.3575,3.54,0.0,3.6462,3.7315,3.8093,3.8197,3.8856,3.9388,3.9388,3.9388,3.9388,3.9388,3.9388,3.9388,3.9388,3.9388,3.9388,3.9388,3.9388,3.9388,3.9388,3.9388,3.9388,3.9388,3.9388,3.9388,3.9388,3.9933,4.0232,4.0232,4.0876,4.1205,4.1205,4.1324,4.1692,4.2231,4.2351,4.2701,4.329,4.329,4.329,4.329,4.329,4.329,4.329,4.329,4.3618,4.4227,4.499,4.5648,4.6232,4.701,4.7309,4.7309,4.7309,4.7309,4.7309,4.7309,4.7309,4.7309,4.7309,4.7309,4.7309,4.7309,4.7309,4.7578,4.8835,4.9224,4.9614,5.0765,5.0674,5.036,5.036,5.0794,5.1214,5.1214,5.1214,5.1214,5.1214,5.1214,5.1214,5.1214,5.1214,5.1214,5.1214,5.1214,5.1214,5.1214,5.0689,5.036,5.036,4.9912,4.9644,4.9644,4.9644,4.9644,4.9644,4.9644,4.9299,4.8626,4.8712,4.8382,4.7638,4.8523,4.8477,4.7474,4.8324,4.8282,2.2942,0.0,3.0926,0.0,3.5055,3.5789,0.0,0.0,3.6896,0.0,3.8542,3.9388,3.9388,3.9388,3.9388,3.9388,3.9388,3.9388,3.9388,3.9388,3.9388,3.9388,3.9388,3.9388,3.9388,3.9388,3.9388,3.9388,3.9388,3.9388,3.9388,3.9463,3.9508,3.9508,4.0187,4.0531,4.0531,4.11,4.1429,4.1557,4.2126,4.2701,4.329,4.329,4.329,4.329,4.329,4.329,4.329,4.329,4.3349,4.3544,4.4811,4.5349,4.5589,4.6845,4.7309,4.7309,4.7309,4.7309,4.7309,4.7309,4.7309,4.7309,4.7309,4.7309,4.7309,4.7309,4.7309,4.7474,4.8222,4.888,4.9449,5.0151,5.0689,5.1094,5.1094,5.1154,5.1214,5.1214,5.1214,5.1214,5.1214,5.1214,5.1214,5.1214,5.1214,5.1214,5.1214,5.1214,5.1214,5.1214,5.1139,5.1094,5.1094,5.1005,5.096,5.096,5.096,5.096,5.096,5.096,5.0646,4.9941,5.0293,5.0001,4.9045,4.9442,4.9166,4.8162,4.8308,4.8308,2.4665,2.7675,3.0717,0.0,3.4728,3.5115,3.5789,3.6222,3.6567,3.6836,3.7644,3.8407,3.8781,3.8841,3.8975,3.9328,3.9388,3.9388,3.9388,3.9388,3.9388,3.9388,3.9388,3.9388,3.9388,3.9388,3.9388,3.9388,3.9388,3.9388,3.9388,3.9388,3.9388,3.9388,3.9709,3.9843,3.9843,4.0142,4.0472,4.0846,4.1916,4.2545,4.2806,4.3125,4.329,4.329,4.329,4.329,4.329,4.329,4.329,4.3394,4.4377,4.4975,4.5409,4.6396,4.6995,4.7309,4.7309,4.7309,4.7309,4.7309,4.7309,4.7309,4.7309,4.7309,4.7309,4.7309,4.7578,4.7997,4.8715,4.9314,4.9987,5.0631,5.1005,5.1214,5.1214,5.1214,5.1214,5.1214,5.1214,5.1214,5.1214,5.1214,5.1214,5.1214,5.1214,5.1214,5.1214,5.1214,5.1214,5.1214,5.1214,5.1214,5.1214,5.1214,5.1214,5.1214,5.1214,5.1214,5.1214,5.1214,5.1079,5.0749,5.0548,5.0064,4.9314,4.9458,4.9307,4.888,4.888,4.888,0.0,0.0,2.9352,3.2482,3.3755,3.4397,0.0,0.0,3.6237,0.0,3.6596,3.712,3.7778,3.8033,3.8362,3.905,3.9155,3.9215,3.9394,3.9388,3.9388,3.9388,3.9388,3.9388,3.9388,3.9388,3.9388,3.9388,3.9388,3.9388,3.9388,3.9388,3.9388,3.9388,3.9388,3.9388,3.9388,3.9388,3.9753,4.0412,4.1602,4.2246,4.2425,4.303,4.329,4.329,4.329,4.329,4.329,4.329,4.329,4.3364,4.4062,4.4721,4.5379,4.6067,4.6741,4.7309,4.7309,4.7309,4.7309,4.7309,4.7309,4.7309,4.7309,4.7309,4.7309,4.7309,4.7773,4.8431,4.9149,4.9748,5.036,5.1065,5.1214,5.1214,5.1214,5.1214,5.1214,5.1214,5.1214,5.1214,5.1214,5.1214,5.1214,5.1214,5.1214,5.1214,5.1214,5.1214,5.1214,5.1214,5.1214,5.1214,5.1214,5.1214,5.1214,5.1214,5.1214,5.1214,5.1214,5.1214,5.1214,5.1214,5.0689,5.0242,4.9763,4.9598,4.9508,4.9508,4.9508,4.9508,0.0,2.4343,0.0,2.9187,3.1704,3.3724,0.0,0.0,3.5549,3.5549,3.5579,3.5804,3.6462,3.706,3.7674,3.8332,3.8437,3.8676,3.9334,3.9388,3.9388,3.9388,3.9388,3.9388,3.9388,3.9388,3.9388,3.9388,3.9388,3.9388,3.9388,3.9388,3.9388,3.9388,3.9388,3.9388,3.9388,3.9388,3.9753,4.0412,4.11,4.1796,4.2425,4.303,4.329,4.329,4.329,4.329,4.329,4.329,4.329,4.3364,4.4062,4.4721,4.5379,4.6067,4.6741,4.7309,4.7309,4.7309,4.7309,4.7309,4.7309,4.7309,4.7309,4.7309,4.7309,4.7309,4.7773,4.8431,4.9149,4.9748,5.036,5.1065,5.1214,5.1214,5.1214,5.1214,5.1214,5.1214,5.1214,5.1214,5.1214,5.1214,5.1214,5.1214,5.1214,5.1214,5.1214,5.1214,5.1214,5.1214,5.1214,5.1214,5.1214,5.1214,5.1214,5.1214,5.1214,5.1214,5.1214,5.1214,5.1214,5.1214,5.1184,5.1154,5.1109,5.045,5.0136,5.0136,5.0136,5.0136,0.0,0.0,0.0,2.8293,3.0612,3.2512,3.3604,3.4711,3.5504,3.5504,3.5504,3.5579,3.5804,3.6387,3.703,3.7659,3.7764,3.7988,3.8661,3.8751,3.8931,3.9364,3.9388,3.9388,3.9388,3.9388,3.9388,3.9388,3.9388,3.9388,3.9388,3.9388,3.9388,3.9388,3.9388,3.9388,3.9388,3.9388,3.9508,3.9783,4.0442,4.11,4.1796,4.2417,4.294,4.329,4.329,4.329,4.329,4.329,4.329,4.3319,4.3544,4.4347,4.5334,4.5574,4.6352,4.7309,4.7309,4.7309,4.7309,4.7309,4.7309,4.7309,4.7309,4.7309,4.7399,4.7818,4.8401,4.9075,4.9718,5.0376,5.0883,5.1154,5.1214,5.1214,5.1214,5.1214,5.1214,5.1214,5.1214,5.1214,5.1214,5.1214,5.1065,5.0599,5.0898,5.1018,5.0599,5.0913,5.1214,5.1214,5.1214,5.1214,5.1214,5.1214,5.1214,5.1214,5.1214,5.1214,5.1214,5.1214,5.1214,5.1214,5.1214,5.1214,5.1214,5.0943,5.0823,5.0823,5.0823,5.0823,2.152,0.0,0.0,0.0,0.0,3.0507,3.2946,3.4023,3.4622,3.507,3.534,3.5504,3.5504,3.5863,3.6372,3.7,3.7105,3.733,3.7973,3.8063,3.8317,3.899,3.9065,3.917,3.9394,3.9388,3.9388,3.9388,3.9388,0.0,3.9388,3.9388,3.9388,3.9388,3.9388,3.9388,3.9388,3.9388,3.9388,3.9388,4.0083,4.0741,4.1399,4.2096,4.2716,4.329,4.329,4.329,4.329,4.329,4.329,4.329,4.329,4.4137,4.5289,4.5289,4.6142,4.7309,4.7309,4.7309,4.7309,4.7309,4.7309,4.7309,4.7309,4.7459,4.7728,4.8162,4.891,4.9688,5.0091,5.0689,5.1214,5.1214,5.1214,5.1214,5.1214,5.1214,5.1214,5.1214,5.1214,5.1214,5.1214,5.1214,5.1065,5.0584,5.0883,5.1065,5.0569,5.0898,5.1214,5.1214,5.1214,5.1214,5.1214,5.1214,5.1214,5.1214,5.1214,5.1214,5.1214,5.1214,5.1214,5.1214,5.1214,5.1214,5.1214,5.1214,5.1214,5.1214,5.1214,5.1214,0.0,0.0,0.0,0.0,0.0,0.0,3.2258,0.0,3.2751,3.4159,3.4936,3.5415,3.5489,3.5504,3.5714,3.6357,3.6462,3.6671,3.73,3.7375,3.7629,3.8287,3.8362,3.8631,3.9334,3.9394,3.9394,3.9388,3.9388,3.9388,3.9388,3.9388,3.9388,3.9388,3.9388,3.9388,3.9388,3.9388,3.9388,3.9388,4.0068,4.0711,4.1407,4.2066,4.2686,4.326,4.329,4.329,4.329,4.329,4.329,4.329,4.329,4.4137,4.5289,4.5289,4.6142,4.7309,4.7309,4.7309,4.7309,4.7309,4.7309,4.7309,4.7309,4.7758,4.8282,4.8312,4.9239,5.0196,5.0211,5.0689,5.1214,5.1214,5.1214,5.1214,5.1214,5.1214,5.1214,5.1214,5.1214,5.1214,5.1214,5.1214,5.1214,5.1184,5.1184,5.1184,5.1184,5.1184,5.1199,5.1214,5.1214,5.1214,5.1214,5.1214,5.1214,5.1214,5.1214,5.1214,5.1214,5.1214,5.1214,5.1214,5.1214,5.1214,5.1214,5.1214,5.1214,5.1214,5.1214,5.1214,2.0464,0.0,0.0,0.0,0.0,0.0,0.0,0.0,2.9756,3.2482,3.2811,3.3185,3.5145,3.5504,3.5564,3.5744,3.5774,3.5998,3.6656,3.6746,3.6971,3.7599,3.7689,3.7943,3.8616,3.8676,3.8886,0.0,3.9388,3.9388,3.9388,3.9388,3.9388,3.9388,3.9388,3.9388,3.9388,3.9388,3.9388,3.9388,3.9604,4.0038,4.0696,4.1354,4.2051,4.2656,4.3135,4.329,4.329,4.329,4.329,4.329,4.329,4.4137,4.5289,4.5289,4.6142,4.7309,4.7309,4.7309,4.7309,4.7309,4.7309,4.7309,4.7309,4.7758,4.8386,4.891,4.9598,5.03,5.0779,5.1079,5.1214,5.1214,5.1214,5.1214,5.1214,5.1214,5.1214,5.1214,5.1214,5.1214,5.1214,5.1214,5.1065,5.0539,5.0465,5.0465,5.0465,5.0465,5.0644,5.1169,5.1214,5.1214,5.1214,5.1214,5.1214,5.1214,5.1214,5.1214,5.1214,5.1214,5.1214,5.1214,5.1214,5.1214,5.1214,5.1214,5.1214,5.1214,5.1214,5.1214,2.1256,0.0,0.0,0.0,0.0,0.0,2.7156,2.751,2.8098,0.0,3.1989,3.2557,3.4681,3.507,3.5175,3.5459,3.5504,3.5639,3.6028,3.6073,3.6312,3.6941,3.703,3.7285,3.7913,3.7973,3.8257,3.8931,3.899,3.911,3.9373,3.9388,3.9388,3.9388,3.9388,3.9388,3.9388,3.9388,3.9388,3.9388,3.9388,3.9768,4.0427,4.1085,4.1782,4.2425,4.3045,4.329,4.329,4.329,4.329,4.329,4.329,4.4137,4.5289,4.5289,4.6142,4.7309,4.7309,4.7309,4.7309,4.7309,4.7309,4.7309,4.7309,4.7952,4.882,4.9209,4.9942,5.0689,5.1124,5.1214,5.1214,5.1214,5.1214,5.1214,5.1214,5.1214,5.1214,5.1214,5.1214,5.1214,5.1214,5.1214,5.1094,5.0659,5.0599,5.0599,5.0599,5.0599,5.0749,5.1184,5.1214,5.1214,5.1214,5.1214,5.1214,5.1214,5.1214,5.1214,5.1214,5.1214,5.1214,5.1214,5.1214,5.1214,5.1214,5.1214,5.1214,5.1214,5.1214,5.1214,2.2338,2.2458,0.0,0.0,2.4238,0.0,2.7735,2.75,2.723,0.0,3.1316,3.2213,3.3785,3.4129,3.4352,3.4966,3.525,3.5415,3.5489,3.5504,3.5729,3.6312,3.6372,3.6626,3.724,3.73,3.7584,3.8227,3.8347,3.8661,3.9275,3.9379,3.9388,3.9388,3.9388,3.9388,3.9388,3.9388,3.9388,3.9388,3.9388,3.9768,4.0427,4.1085,4.1782,4.2425,4.3045,4.329,4.329,4.329,4.329,4.329,4.329,4.4137,4.5289,4.5289,4.6142,4.7309,4.7309,4.7309,4.7309,4.7309,4.7309,4.7309,4.7309,4.8222,4.9344,4.9479,5.0331,5.1214,5.1214,5.1214,5.1214,5.1214,5.1214,5.1214,5.1214,5.1214,5.1214,5.1214,5.1214,5.1214,5.1214,5.1214,5.1214,5.1214,5.1154,5.1139,5.1214,5.1154,5.1139,5.1214,5.1214,5.1214,5.1214,5.1214,5.1214,5.1214,5.1214,5.1214,5.1214,5.1214,5.1214,5.1214,5.1214,5.1214,5.1214,5.1214,5.1214,5.1214,5.1214,5.1214,2.4096,2.4126,2.4216,2.4193,0.0,0.0,2.361,2.4163,2.5322,0.0,2.6871,2.7844,3.0746,3.1734,3.2123,3.2258,3.3634,3.4876,3.5429,3.5504,3.5549,3.5684,3.5699,3.5953,3.6596,3.6671,3.6926,3.7554,3.8093,3.8452,3.8586,3.9125,3.9388,3.9388,3.9388,3.9388,3.9388,3.9388,3.9388,3.9388,3.9388,3.9768,4.0427,4.1085,4.1782,4.2425,4.3045,4.329,4.329,4.329,4.329,4.329,4.329,4.4137,4.5289,4.5289,4.6142,4.7309,4.7309,4.7309,4.7309,4.7309,4.7309,4.7309,4.7309,4.8222,4.9524,5.0541,5.102,5.1214,5.1214,5.1214,5.1214,5.1214,5.1214,5.1214,5.1214,5.1214,5.1214,5.1214,5.1214,5.1214,5.1214,5.1214,5.1214,5.1214,5.0719,5.0569,5.1154,5.0704,5.0584,5.1154,5.1214,5.1214,5.1214,5.1214,5.1214,5.1214,5.1214,5.1214,5.1214,5.1214,5.1214,5.1214,5.1214,5.1214,5.1214,5.1214,5.1214,5.1214,5.1214,5.1214,2.5367,2.5098,2.5247,2.5929,0.0,0.0,0.0,2.4358,2.4582,2.6243,2.6063,2.6512,2.949,2.9774,2.9998,3.1286,3.2647,3.3619,3.3963,3.4876,3.5504,3.5504,3.5504,3.5639,3.5968,3.5998,3.6267,3.6896,3.7539,3.7898,3.7898,3.8542,3.8901,3.8901,3.9245,3.9388,3.9388,3.9388,3.9388,3.9388,3.9388,3.9768,4.0427,4.1085,4.1782,4.2425,4.3045,4.329,4.329,4.329,4.329,4.3319,4.3648,4.4421,4.5334,4.5678,4.6441,4.7309,4.7309,4.7309,4.7309,4.7309,4.7309,4.7309,4.7309,4.8222,4.9584,5.0855,5.1214,5.1214,5.1214,5.1214,5.1214,5.1214,5.1214,5.1214,5.1214,5.1214,5.1214,5.1214,5.1214,5.1214,5.1214,5.1214,5.1214,5.1214,5.0883,5.0808,5.1184,5.0883,5.0808,5.1184,5.1214,5.1214,5.1214,5.1214,5.1214,5.1214,5.1214,5.1214,5.1214,5.1214,5.1214,5.1214,5.1214,5.1214,5.1214,5.1214,5.1214,5.1214,5.1214,5.1214,0.0,0.0,0.0,0.0,0.0,2.539,0.0,0.0,0.0,0.0,0.0,0.0,0.0,0.0,0.0,3.0016,0.0,0.0,0.0,3.3365,0.0,3.4891,3.5265,3.5444,3.5325,3.507,3.531,3.6237,3.6522,3.6821,3.721,3.7958,3.8392,3.8392,3.9065,3.9388,3.9388,3.9388,3.9388,3.9388,3.9388,3.9828,4.0606,4.113,4.1841,4.262,4.3105,4.329,4.329,4.329,4.329,4.3364,4.4062,4.4721,4.5379,4.6067,4.6741,4.7309,4.7309,4.7309,4.7309,4.7309,4.7399,4.7519,4.7653,4.8506,4.9703,5.0885,5.1214,5.1214,5.1214,5.1214,5.1214,5.1214,5.1214,5.1214,5.1214,5.1214,5.1214,5.1214,5.1214,5.1214,5.1214,5.1214,5.1214,5.1214,5.1214,5.1214,5.1214,5.1214,5.1214,5.1214,5.1214,5.1214,5.1214,5.1214,5.1214,5.1214,5.1214,5.1214,5.1214,5.1214,5.1214,5.1214,5.1214,5.1214,5.1214,5.1214,5.1214,5.1214,5.1214,5.1214,0.0,0.0,0.0,0.0,2.9175,0.0,0.0,0.0,2.5698,2.3676,0.0,0.0,0.0,0.0,0.0,0.0,0.0,0.0,2.9131,3.0208,3.1509,3.2706,3.4427,3.5265,3.4683,3.3544,3.3619,3.5474,3.4577,3.4711,3.6492,3.7734,3.8392,3.8392,3.9065,3.9388,3.9388,3.9388,3.9388,3.9388,3.9388,4.0068,4.1265,4.1392,4.2058,4.3185,4.326,4.329,4.329,4.329,4.329,4.3364,4.4062,4.4721,4.5379,4.6067,4.6741,4.7309,4.7309,4.7309,4.7309,4.7309,4.7698,4.8282,4.891,4.9553,5.0226,5.1005,5.1214,5.1214,5.1214,5.1214,5.1214,5.1214,5.1214,5.1214,5.1214,5.1214,5.1214,5.1214,5.1214,5.1214,5.1214,5.1214,5.1214,5.1214,5.1214,5.1214,5.1214,5.1214,5.1214,5.1214,5.1214,5.1214,5.1214,5.1214,5.1214,5.1214,5.1214,5.1214,5.1214,5.1214,5.1214,5.1214,5.1214,5.1214,5.1214,5.1214,5.1214,5.1214,5.1214,5.1214,0.0,0.0,0.0,0.0,0.0,0.0,2.5623,0.0,2.4657,0.0,0.0,0.0,0.0,0.0,0.0,0.0,2.6871,0.0,0.0,0.0,3.0028,0.0,0.0,0.0,3.326,3.2841,3.3319,3.5355,3.3903,3.3799,3.5804,3.6791,3.7449,3.7808,3.8467,3.902,3.9388,3.9388,3.9388,3.9388,3.9388,4.0113,4.1422,4.1422,4.2102,4.329,4.329,4.329,4.329,4.329,4.329,4.3394,4.4481,4.505,4.5424,4.6501,4.707,4.7309,4.7309,4.7309,4.7309,4.7309,4.7743,4.8416,4.912,4.9718,5.033,5.0988,5.1214,5.1214,5.1214,5.1214,5.1214,5.1214,5.1214,5.1214,5.1214,5.1214,5.1214,5.1214,5.1214,5.1214,5.1214,5.1214,5.1214,5.1214,5.1214,5.1214,5.1214,5.1214,5.1214,5.1214,5.1214,5.1214,5.1214,5.1214,5.1214,5.1214,5.1214,5.1214,5.1214,5.1214,5.1214,5.1214,5.1214,5.1214,5.1214,5.1214,5.1214,5.1214,5.1214,5.1214,3.2856,0.0,0.0,0.0,0.0,0.0,0.0,0.0,0.0,0.0,0.0,0.0,0.0,0.0,0.0,0.0,0.0,2.6303,0.0,2.6437,0.0,0.0,0.0,0.0,0.0,3.1584,3.2213,3.4756,3.2946,3.2826,3.537,3.6133,3.6776,3.7389,3.8048,3.8721,3.9373,3.9388,3.9388,3.9388,3.9604,4.0277,4.1422,4.1602,4.2267,4.329,4.329,4.329,4.329,4.329,4.329,4.3424,4.4781,4.5289,4.5454,4.6815,4.7309,4.7309,4.7309,4.7309,4.7339,4.7519,4.8012,4.8686,4.9329,4.9987,5.0569,5.1079,5.1214,5.1214,5.1214,5.1214,5.1214,5.1214,5.1214,5.1214,5.1214,5.1214,5.1214,5.1214,5.1214,5.1274,5.1454,5.1334,5.1214,5.1214,5.1214,5.1214,5.1214,5.1214,5.1214,5.1214,5.1214,5.1214,5.1214,5.1214,5.1214,5.1214,5.1214,5.1214,5.1214,5.1214,5.1214,5.1214,5.1214,5.1214,5.1214,5.1214,5.1214,5.1214,5.1214,5.1214,0.0,0.0,0.0,3.0582,0.0,0.0,0.0,0.0,2.6318,0.0,0.0,0.0,0.0,0.0,0.0,0.0,0.0,0.0,0.0,0.0,0.0,0.0,0.0,0.0,0.0,2.9235,2.9382,0.0,3.115,3.1375,3.5295,3.6133,3.6776,3.7389,3.8048,3.8721,3.9373,3.9388,3.9388,3.9388,4.0068,4.0726,4.1399,4.2081,4.2701,4.329,4.329,4.329,4.329,4.329,4.329,4.3424,4.4781,4.5289,4.5454,4.6815,4.7309,4.7309,4.7309,4.7309,4.7414,4.8057,4.8701,4.9359,5.0017,5.0629,5.1184,5.1214,5.1214,5.1214,5.1214,5.1214,5.1214,5.1214,5.1214,5.1214,5.1214,5.1214,5.1214,5.1214,5.1214,5.1424,5.2052,5.1633,5.1214,5.1214,5.1214,5.1214,5.1214,5.1214,5.1214,5.1214,5.1214,5.1214,5.1214,5.1214,5.1214,5.1214,5.1214,5.1214,5.1214,5.1214,5.1214,5.1214,5.1214,5.1214,5.1214,5.1214,5.1214,5.1214,5.1214,5.1214,0.0,0.0,3.5519,3.2841,0.0,0.0,0.0,0.0,0.0,0.0,0.0,0.0,0.0,0.0,0.0,0.0,0.0,0.0,0.0,0.0,0.0,0.0,0.0,0.0,0.0,0.0,0.0,3.2647,3.1629,0.0,3.534,3.5714,3.6327,3.7375,3.7629,3.8272,3.9373,3.9388,3.9388,3.9388,4.0083,4.0741,4.1399,4.2096,4.2716,4.329,4.329,4.329,4.329,4.329,4.3544,4.4062,4.4945,4.5574,4.6082,4.698,4.7309,4.7309,4.7309,4.7593,4.7997,4.8222,4.9015,4.9942,5.0121,5.0644,5.1214,5.1214,5.1214,5.1214,5.1214,5.1214,5.1214,5.1214,5.1214,5.1214,5.1214,5.1214,5.1349,5.1783,5.1872,5.2067,5.274,5.2665,5.2516,5.2516,5.2157,5.1872,5.1872,5.1872,5.1872,5.1872,5.1872,5.2037,5.2486,5.2112,5.1678,5.1244,5.1214,5.1214,5.1214,5.1214,5.1214,5.1214,5.1214,5.1214,5.1214,5.1214,5.1214,5.1214,5.1214,5.1214,3.6701,3.6806,0.0,3.4337,3.2871,0.0,2.8592,0.0,0.0,0.0,0.0,0.0,0.0,0.0,0.0,0.0,0.0,0.0,0.0,2.1819,0.0,0.0,0.0,0.0,0.0,0.0,2.9026,3.1914,3.1092,3.1854,0.0,3.537,3.6088,3.7375,3.7404,3.8048,3.9373,3.9388,3.9388,3.9388,4.0322,4.0965,4.1414,4.2312,4.294,4.329,4.329,4.329,4.329,4.329,4.3678,4.4377,4.5035,4.5723,4.6396,4.7055,4.7309,4.7309,4.7309,4.7743,4.8327,4.8566,4.9359,5.024,5.0465,5.0838,5.1214,5.1214,5.1214,5.1214,5.1214,5.1214,5.1214,5.1214,5.1214,5.1289,5.1513,5.1573,5.1753,5.2426,5.2546,5.2755,5.3428,5.3339,5.3174,5.3174,5.2815,5.2546,5.2546,5.2546,5.2546,5.2546,5.2546,5.271,5.3144,5.2785,5.2366,5.1947,5.1917,5.1917,5.1917,5.1917,5.1917,5.1917,5.1693,5.1573,5.1573,5.1334,5.1214,5.1214,5.1214,5.1214]}]]